     2              OBSERVATION DATA    GPS                 RINEX VERSION / TYPE
teqc 1999Jul19 19991123 03:21:32UTC                         PGM / RUN BY / DATE
                                                            COMMENT
Original Marker Name: MAMM                                  COMMENT
Campaign Name: HPGN 1991                                    COMMENT
4-Character Station Name: MAMM                              COMMENT
6-Character Antenna Code: TRMSST                            COMMENT
Vertical Measurement Point: BPA                             COMMENT
Vertical Offset to Rinex Ref. Point: 0.0000                 COMMENT
Radial Measurement Point: RRP                               COMMENT
Radial Offset to Rinex Ref. Point: 0.0000                   COMMENT
Antenna Height from Field Measurement: 2.2200 m             COMMENT
                                                            COMMENT
Original XYZ: -2448244.1368 -4426724.4416 3875434.4836      COMMENT
New XYZ position is based on association with SCEC monument COMMENT
E1F9H1F7+0011. Position of that monument is believed to be  COMMENT
valid to within 1 m horizontally; vertical accuracy         COMMENT
should be no worse than 3-times this value.                 COMMENT
                                                            COMMENT
Revised Rinex header created by UCSD GPS archive for        COMMENT
GSAC on 10-Mar-2000 (2000:070) 17:41:51 GMT                 COMMENT
For assistance contact dagnew@ucsd.edu or hjohnson@ucsd.edu COMMENT
                                                            COMMENT
MAMMOTH LAKES NCMN 7259                                     MARKER NAME
MAMM                                                        MARKER NUMBER
-Unknown- CALIF DEPT TRANSPORTATION                         OBSERVER / AGENCY
482 TRIMBLE 4000 SST NP 4.30 / SP 4.20                      REC # / TYPE / VERS
20 TR 4000SST L1/L2 GEO                                     ANT # / TYPE
 -2448246.8101 -4426738.3166  3875435.9329                  APPROX POSITION XYZ
        2.2200        0.0000        0.0000                  ANTENNA: DELTA H/E/N
     1     1     0                                          WAVELENGTH FACT L1/2
     5    C1    L1    L2    S1    S2                        # / TYPES OF OBSERV
     0                                                      INTERVAL
  1991     5    29    17    39   45.000000                  TIME OF FIRST OBS
  1991     5    29    23     9   60.000000                  TIME OF LAST OBS
                                                            END OF HEADER
 91  5 29 17 39 45.0000000  0  5G18G19G 2G11G16
  20931403.633          -0.52718        -0.45233        29.250           2.813
  20694421.867          -0.11316        -0.38532        19.750           2.031
  23503437.867          -0.25416        -0.25431        14.000           0.719
  23566724.789          -0.13216        -0.09931        16.000           0.625
  24059566.758          -0.94015        -0.39431         9.000           0.344
 91  5 29 17 40  0.0000000  0  5G18G19G 2G11G16
  20935401.000       20999.442 8     16363.14523        29.250           2.813
  20693254.953       -6106.556 7     -4758.64622        20.000           1.906
  23493508.227      -52163.357 6    -40646.76021        14.750           0.625
  23559947.438      -35606.092 6    -27744.96521        15.500           0.656
  24053545.820      -31658.683 5    -24668.72721         9.000           0.281
 91  5 29 17 40 15.0000000  0  5G18G19G 2G11G16
  20939420.383       42118.000 8     32819.13523        29.250           2.844
  20692109.680      -12148.946 6     -9466.99322        19.750           1.938
  23483595.617     -104265.827 6    -81245.99821        15.000           0.688
  23553198.742      -71092.906 6    -55396.98321        15.500           0.656
  24047539.438      -63183.528 5    -49233.53221         9.000           0.281
 91  5 29 17 40 30.0000000  0  5G18G19G 2G11G16
  20943461.328       63352.444 8     49365.43623        29.500           2.781
  20690967.805      -18130.022 7    -14127.58322        20.500           1.813
  23473690.719     -156310.423 6   -121800.14121        15.000           0.656
  23546464.813     -106462.781 6    -82957.89221        15.000           0.656
  24041568.203      -94578.005 5    -73696.75521         9.750           0.344
 91  5 29 17 40 45.0000000  0  5G18G19G 2G11G16
  20947523.227       84702.880 8     66002.11423        29.000           2.688
  20689845.203      -24049.657 7    -18740.28922        20.000           1.938
  23463796.273     -208296.601 6   -162308.78721        14.750           0.594
  23539754.836     -141715.229 6   -110427.28721        15.750           0.656
  24035616.039     -125841.664 5    -98058.04221         8.750           0.281
 91  5 29 17 41  0.0000000  0  5G18G19G 2G11G16
  20951608.492      106167.323 8     82727.63023        28.750           2.688
  20688728.633      -29909.705 6    -23306.56022        19.500           1.906
  23453914.258     -260226.211 6   -202773.36021        14.500           0.625
  23533070.500     -176851.801 6   -137806.38921        15.750           0.781
  24029692.055     -156976.121 5                         9.750
 91  5 29 17 41 15.0000000  0  5G18G19G 2G11G16
  20955714.406      127743.360 8     99540.10423        29.000           2.656
  20687625.672      -35712.223 7    -27827.99422        20.000           1.938
  23444042.203     -312101.213 6   -243195.36521        14.250           0.531
  23526404.375     -211874.223 6   -165096.55421        15.000           0.750
  24023796.281     -187983.581 5                         9.250
 91  5 29 17 41 30.0000000  0  5G18G19G 2G11G16
  20959841.289      149431.762 8    116440.13623        29.000           2.813
  20686530.336      -41456.290 7    -32303.89222        20.500           1.969
  23434182.156     -363920.526 6   -283573.98521        13.750           0.563
  23519766.430     -246781.401 6   -192296.91221        15.750           0.781
  24017920.117     -218862.745 5                         8.750
 91  5 29 17 41 45.0000000  0  5G18G19G 2G11G16
  20963991.234      171233.359 8    133428.37123        29.250           2.750
  20685448.375      -47141.219 6    -36733.70622        19.750           2.000
  23424332.883     -415683.313 6   -323908.55021        14.250           0.625
  23513143.266     -281572.165 6   -219406.56521        15.500           0.719
  24012062.633     -249612.542 5        -0.30731         9.250           0.250
 91  5 29 17 42  0.0000000  0  5G18G19G 2G11G16
  20968159.938      193148.648 8    150505.19423        28.500           2.813
  20684377.102      -52766.330 6    -41116.91022        19.750           1.969
  23414492.461     -467388.628 6   -364198.36721        13.750           0.656
  23506547.172     -316245.414 6   -246424.63421        16.250           0.813
  24006242.617     -280232.364 5    -23859.91421        10.000           0.219
 91  5 29 17 42 15.0000000  0  5G18G19G 2G11G16
  20972351.477      215173.752 8    167667.58723        28.500           2.906
  20683320.297      -58335.227 6    -45456.30722        19.500           1.813
  23404663.797     -519039.775 6   -404445.94521        14.250           0.719
  23499971.398     -350804.438 6   -273353.70021        16.000           0.906
  24000434.898     -310725.617 5    -47620.87421        10.750           0.219
 91  5 29 17 42 30.0000000  0  5G18G19G 2G11G16
  20976562.531      237310.056 7    184916.63323        27.500           2.688
  20682267.961      -63846.800 7    -49751.04422        20.750           1.969
  23394844.484     -570635.863 6   -444650.61621        14.000           0.625
  23493413.531     -385247.866 6   -300192.70121        16.000           0.781
  23994655.578     -341090.817 5    -71282.09721        10.500           0.219
 91  5 29 17 42 45.0000000  0  5G18G19G 2G11G16
  20980796.055      259554.385 7    202249.85123        27.750           2.656
  20681232.734      -69304.033 7    -54003.42922        20.000           1.938
  23385035.188     -622179.467 6   -484814.41021        13.750           0.781
  23486883.242     -419578.208 6   -326943.57321        16.500           0.781
  23988903.336     -371330.921 5    -94845.78721        11.000           0.281
 91  5 29 17 43  0.0000000  0  5G18G19G 2G11G16
  20985051.641      281910.559 8    219670.22523        28.000           2.781
  20680202.227      -74703.041 7    -58210.44922        20.500           1.969
  23375235.867     -673666.665 6   -524934.22921        13.750           0.656
  23480375.055     -453791.268 6   -353603.06221        16.750           0.750
  23983177.234     -401441.796 6   -118308.81121        12.000           0.219
 91  5 29 17 43 15.0000000  0  5G18G19G 2G11G16
  20989327.469      304375.250 8    237175.15123        28.000           2.625
  20679188.484      -80046.889 7    -62374.49122        20.000           1.906
  23365449.313     -725100.192 6   -565012.23721        13.750           0.781
  23473881.367     -487889.818 6   -380173.31321        16.250           0.719
  23977467.508     -431426.273 5   -141673.33721        11.000           0.219
 91  5 29 17 43 30.0000000  0  5G18G19G 2G11G16
  20993620.789      326949.700 7    254765.60923        27.250           2.781
  20678179.711      -85333.991 7    -66494.31122        21.000           1.969
  23355674.695     -776478.337 6   -605047.08721        14.250           0.625
  23467416.359     -521872.006 6   -406652.91121        16.500           0.781
  23971784.047     -461282.731 5   -164938.09521        10.750           0.281
 91  5 29 17 43 45.0000000  0  5G18G19G 2G11G16
  20997940.297      349635.179 7    272442.58123        27.750           2.719
  20677187.234      -90563.224 6    -70569.03522        19.750           2.000
  23345908.453     -827799.797 6   -645037.77221        13.750           0.656
  23460975.352     -555736.367 6   -433040.68021        17.000           0.750
  23966125.297     -491009.920 5   -188102.11321        10.750           0.281
 91  5 29 17 44  0.0000000  0  5G18G19G 2G11G16
  21002274.875      372423.545 7    290199.72223        27.250           2.813
  20676197.508      -95742.665 7    -74604.96122        21.250           1.938
  23336151.594     -879072.548 6   -684990.50721        14.500           0.531
  23454548.906     -589490.570 6   -459342.61521        16.000           0.813
  23960493.242     -520615.819 5   -211171.65321        11.250           0.313
 91  5 29 17 44 15.0000000  0  5G18G19G 2G11G16
  21006630.555      395315.880 7    308037.87123        27.250           2.938
  20675224.523     -100871.089 6    -78601.13322        19.750           1.938
  23326405.758     -930295.202 6   -724904.20821        15.000           0.438
  23448144.250     -623133.037 6   -485557.48521        15.750           0.781
  23954883.281     -550098.727 5   -234145.36421        10.750           0.375
 91  5 29 17 44 30.0000000  0  5G18G19G 2G11G16
  21011009.352      418318.260 7    325961.77223        27.000           2.969
  20674260.266     -105942.196 7    -82552.64722        20.000           1.938
  23316664.922     -981461.206 6   -764773.78321        14.500           0.469
  23441766.773     -656657.171 6   -511680.15421        15.750           0.750
  23949299.539     -579452.212 5   -257018.17721        11.750           0.438
 91  5 29 17 44 45.0000000  0  5G18G19G 2G11G16
  21015406.070      441432.849 7    343973.11323        26.500           2.875
  20673306.180     -110953.921 6    -86457.88722        19.750           1.938
  23306939.078    -1032568.457 6   -804597.55121        14.750           0.563
  23435409.117     -690060.527 6   -537708.70121        15.750           0.750
  23943735.320     -608673.956 6   -279788.39221        12.250           0.375
 91  5 29 17 45  0.0000000  0  5G18G19G 2G11G16
  21019827.016      464654.923 7    362068.20623        27.000           2.781
  20672362.359     -115910.616 7    -90320.25022        20.750           2.063
  23297225.789    -1083621.082 6   -844378.76921        14.000           0.531
  23429075.547     -723347.252 6   -563646.36421        15.750           0.625
  23938204.234     -637768.464 5   -302459.40921        11.500           0.313
 91  5 29 17 45 15.0000000  0  5G18G19G 2G11G16
  21024264.477      487982.111 7    380245.21023        27.250           2.844
  20671428.602     -120814.746 6    -94141.65022        19.500           1.938
  23287522.688    -1134621.514 6   -884119.29821        14.000           0.469
  23422765.523     -756519.327 6   -589494.68621        16.250           0.688
  23932685.578     -666738.006 5   -325033.06621        11.250           0.344
 91  5 29 17 45 30.0000000  0  5G18G19G 2G11G16
  21028725.109      511420.061 7    398508.51723        27.750           2.813
  20670508.125     -125660.482 6    -97917.55722        19.500           2.063
  23277826.164    -1185563.723 6   -923814.48121        14.000           0.469
  23416476.508     -789570.552 6   -615248.84921        16.250           0.688
  23927197.219     -695576.399 5   -347504.51421        10.000           0.250
 91  5 29 17 45 45.0000000  0  5G18G19G 2G11G16
  21033205.570      534963.733 8    416854.20223        28.500           2.750
  20669594.602     -130452.774 6   -101651.80322        19.000           2.063
  23268143.172    -1236452.349 6   -963467.90921        13.500           0.594
  23410207.078     -822505.622 6   -640912.50121        16.000           0.625
  23921736.242     -724288.447 5   -369877.50921        11.750           0.344
 91  5 29 17 46  0.0000000  0  5G18G19G 2G11G16
  21037705.484      558610.363 8    435280.12223        28.500           2.813
  20668690.969     -135194.252 6   -105346.46422        19.750           2.094
  23258470.992    -1287289.837 6  -1003081.46021        12.750           0.438
  23403959.898     -855326.877 6   -666487.45921        15.500           0.719
  23916296.859     -752876.592 5   -392154.00521        11.000           0.406
 91  5 29 17 46 15.0000000  0  5G18G19G 2G11G16
  21042226.461      582365.633 8    453790.69623        28.750           2.875
  20667804.063     -139878.973 6   -108996.89422        19.750           1.969
  23248802.719    -1338070.306 6  -1042650.59721        12.500           0.469
  23397739.008     -888028.084 6   -691968.88221        15.750           0.719
  23910879.789     -781335.080 5   -414329.41321        10.500           0.406
 91  5 29 17 46 30.0000000  0  5G18G19G 2G11G16
  21046765.797      606218.852 8    472377.59023        28.250           2.750
  20666918.914     -144517.423 6   -112611.27822        19.250           2.031
  23239149.258    -1388804.045 6  -1082183.32821        12.750           0.406
  23391539.367     -920619.414 6   -717364.68621        16.250           0.625
  23905488.438     -809673.815 5   -436411.54121        10.750           0.344
 91  5 29 17 46 45.0000000  0  5G18G19G 2G11G16
  21051323.578      630178.310 7    491047.26323        27.250           2.719
  20666048.461     -149101.380 7   -116183.19322        20.000           2.031
  23229507.703    -1439482.610 6  -1121673.05221        13.000           0.500
  23385358.398     -953092.298 6   -742668.18921        17.000           0.719
  23900118.516     -837884.715 5   -458394.06321        10.000           0.469
 91  5 29 17 47  0.0000000  0  5G18G19G 2G11G16
  21055905.563      654248.763 7    509803.42323        27.750           2.813
  20665183.859     -153626.123 7   -119708.97822        20.250           1.969
  23219874.180    -1490101.140 6  -1161116.02021        12.000           0.375
  23379202.250     -985441.704 6   -767875.48321        16.750           0.813
  23894777.250     -865962.887 5   -480273.14521        10.250           0.406
 91  5 29 17 47 15.0000000  0  5G18G19G 2G11G16
  21060506.711      678424.235 8    528641.42323        28.000           2.688
  20664336.172     -158097.281 6   -123192.99222        19.750           2.188
  23210251.922    -1540665.187 5  -1200516.52821        11.250           0.438
  23373070.016    -1017673.025 6   -792990.76121        16.000           0.750
  23889461.063     -893913.460 5   -502052.81521        11.250           0.438
 91  5 29 17 47 30.0000000  0  5G18G19G 2G11G16
  21065125.711      702706.928 7    547562.98123        27.500           2.625
  20663494.734     -162512.552 7   -126633.47222        20.250           2.031
  23200642.875    -1591172.396 5  -1239872.72321        11.250           0.469
  23366958.664    -1049783.735 6   -818012.05121        16.500           0.813
  23884167.906     -921734.471 5   -523731.50321        11.250           0.438
 91  5 29 17 47 45.0000000  0  5G18G19G 2G11G16
  21069765.352      727095.834 7    566567.30723        26.500           2.625
  20662665.492     -166872.823 7   -130031.08822        20.250           2.000
  23191040.492    -1641623.291 5  -1279185.04521        11.500           0.500
  23360870.672    -1081774.097 6   -842939.56921        17.000           0.688
  23878891.352     -949426.275 5   -545309.49921        10.000           0.438
 91  5 29 17 48  0.0000000  0  5G18G19G 2G11G16
  21074427.992      751595.819 7    585658.17923        26.750           2.594
  20661844.758     -171173.297 7   -133382.10622        21.000           2.063
  23181454.250    -1692012.871 6  -1318449.58821        12.000           0.531
  23354805.109    -1113639.081 6   -867769.38621        16.250           0.688
  23873651.250     -976984.037 5   -566783.10321         9.000           0.375
 91  5 29 17 48 15.0000000  0  5G18G19G 2G11G16
  21079111.953      776201.660 7    604831.52423        27.000           2.656
  20661040.477     -175418.958 7   -136690.41322        20.750           1.906
  23171878.766    -1742346.021 5  -1357670.17721        11.750           0.531
  23348764.867    -1145383.413 6   -892505.19021        16.500           0.813
  23868432.406    -1004412.500 5   -588155.94421         9.500           0.406
 91  5 29 17 48 30.0000000  0  5G18G19G 2G11G16
  21083815.141      800912.063 7    624086.35723        27.750           2.781
  20660241.461     -179611.116 6   -139957.03322        19.750           2.000
  23162310.539    -1792624.049 6  -1396847.78521        12.000           0.500
  23342746.688    -1177007.989 6   -917147.68021        16.250           0.938
  23863240.406    -1031713.012 5   -609429.03721        11.500           0.375
 91  5 29 17 48 45.0000000  0  5G18G19G 2G11G16
  21088537.992      825727.381 8    643422.93623        28.000           2.719
  20659453.938     -183748.966 7   -143181.33322        20.250           1.969
  23152750.109    -1842846.023 5  -1435981.73921        11.500           0.563
  23336754.492    -1208511.779 6   -941696.03921        16.750           0.688
  23858063.633    -1058884.451 5   -630601.58221        10.000           0.406
 91  5 29 17 49  0.0000000  0  5G18G19G 2G11G16
  21093279.586      850651.967 7    662844.65823        27.250           2.781
  20658679.234     -187828.048 7   -146359.83722        20.500           1.938
  23143206.320    -1893007.232 6  -1475068.34221        12.250           0.531
  23330782.992    -1239889.924 6   -966146.50321        16.500           0.750
  23852920.820    -1085922.276 5   -651670.00921        10.750           0.344
 91  5 29 17 49 15.0000000  0  5G18G19G 2G11G16
  21098043.438      875681.362 7    682348.04423        27.750           2.750
  20657913.172     -191852.837 7   -149496.03822        20.250           1.875
  23133666.969    -1943112.044 5  -1514111.00721        11.750           0.500
  23324831.875    -1271146.608 6   -990502.33021        15.750           0.781
  23847798.859    -1112830.988 5   -672637.82321        10.750           0.406
 91  5 29 17 49 30.0000000  0  5G18G19G 2G11G16
  21102823.461      900820.238 7    701936.74323        26.750           2.625
  20657154.883     -195818.657 7   -152586.28922        20.750           2.031
  23124147.898    -1993155.600 5  -1553105.91021        11.750           0.563
  23318910.242    -1302276.911 6  -1014759.67021        16.500           0.719
  23842703.602    -1139605.278 5   -693500.91721        10.750           0.469
 91  5 29 17 49 45.0000000  0  5G18G19G 2G11G16
  21107629.078      926065.320 7    721608.20923        26.250           2.625
  20656414.031     -199728.401 7   -155632.83722        20.250           2.063
  23114634.609    -2043140.533 5  -1592055.13421        11.500           0.563
  23313009.844    -1333283.384 6  -1038920.51521        16.750           0.781
  23837638.781    -1166248.276 5   -714261.70421        11.250           0.313
 91  5 29 17 50  0.0000000  0  5G18G19G 2G11G16
  21112454.266      951415.853 7    741361.83623        26.250           2.563
  20655678.273     -203583.002 7   -158636.42222        21.000           1.906
  23105135.336    -2093067.790 5  -1630959.42321        11.750           0.500
  23307133.180    -1364166.520 6  -1062985.25421        16.750           0.813
  23832589.563    -1192760.640 5   -734920.67621        11.500           0.375
 91  5 29 17 50 15.0000000  0  6G18G19G 2G11G16G 6
  21117298.102      976874.961 7    761200.07623        26.000           2.625
  20654959.625     -207378.795 7   -161594.18422        20.750           2.031
  23095646.891    -2142933.442 6  -1669815.72021        13.250           0.594
  23301280.109    -1394922.526 6  -1086950.94621        16.000           0.750
  23827573.242    -1219138.680 6   -755474.99821        12.000           0.438
  24415545.906          -0.17915                         7.750
 91  5 29 17 50 30.0000000  0  6G18G19G 2G11G16G 6
  21122163.398     1002445.943 7    781125.48223        26.000           2.594
  20654246.414     -211112.354 7   -164503.44722        21.250           2.000
  23086168.625    -2192734.028 6  -1708621.30721        13.250           0.656
  23295451.188    -1425547.804 6  -1110814.75421        15.750           0.719
  23822579.563    -1245378.895 5   -775921.90021        11.750           0.438
  24407535.148      -42108.528 5                         8.500
 91  5 29 17 50 45.0000000  0  6G18G19G 2G11G16G 6
  21127049.250     1028124.183 7    801134.47823        26.000           2.656
  20653548.273     -214788.140 7   -167367.69922        20.250           2.000
  23076703.664    -2242473.795 6  -1747379.54121        12.500           0.594
  23289649.813    -1456046.365 6  -1134579.82121        16.500           0.813
  23817611.625    -1271485.544 5   -796264.75421        11.500           0.406
  24399524.938      -84195.095 5                         8.750
 91  5 29 17 51  0.0000000  0  6G18G19G 2G11G16G 6
  21131958.438     1053907.706 7    821225.49623        26.750           2.781
  20652856.320     -218408.359 7   -170188.65422        20.750           2.031
  23067251.453    -2292154.860 6  -1786091.99921        13.500           0.594
  23283869.758    -1486420.090 6  -1158247.62621        16.750           0.781
  23812662.172    -1297460.783 5   -816505.21421        10.500           0.375
  24391518.320     -126262.058 5                         8.000
 91  5 29 17 51 15.0000000  0  6G18G19G 2G11G16G 6
  21136884.656     1079799.132 7    841400.59723        26.750           2.844
  20652182.414     -221970.226 7   -172964.13022        20.000           2.000
  23057808.641    -2341774.296 6  -1824756.41921        13.250           0.688
  23278114.719    -1516665.873 6  -1181815.73121        17.000           0.750
  23807749.125    -1323301.644 5   -836640.95821        11.000           0.313
  24383513.898     -168306.610 5                         8.000
 91  5 29 17 51 30.0000000  0  6G18G19G 2G11G16G 6
  21141833.133     1105796.755 7    861658.44923        27.000           2.750
  20651511.188     -225475.124 7   -175695.22622        20.250           1.938
  23048378.547    -2391333.286 6  -1863373.75821        14.500           0.625
  23272381.578    -1546784.855 6  -1205285.03721        16.500           0.719
  23802861.563    -1349009.201 5   -856672.81921        11.750           0.344
  24375518.305     -210330.211 5                         7.750
 91  5 29 17 51 45.0000000  0  6G18G19G 2G11G16G 6
  21146800.313     1131901.099 7    881999.46123        26.500           2.875
  20650857.758     -228922.324 6   -178381.35322        19.750           1.906
  23038957.844    -2440831.005 6  -1901943.35821        14.000           0.625
  23266673.031    -1576776.005 6  -1228654.72021        16.000           0.719
  23797995.648    -1374582.730 5   -876600.21421        11.500           0.281
  24367529.844     -252332.261 5                         8.250
 91  5 29 17 52  0.0000000  0  6G18G19G 2G11G16G 6
  21151787.250     1158113.361 7    902424.57123        26.500           2.813
  20650211.531     -232310.731 7   -181021.67522        20.500           1.875
  23029551.305    -2490266.037 6  -1940464.10321        14.750           0.688
  23260991.453    -1606637.982 6  -1251923.75821        16.250           0.750
  23793147.844    -1400020.860 5   -896422.15521        10.500           0.156
  24359538.094     -294311.612 5        -0.31331         7.750           0.156
 91  5 29 17 52 15.0000000  0  6G18G19G 2G11G16G 6
  21156796.273     1184436.101 7    922935.76323        26.750           2.844
  20649580.578     -235637.422 6   -183613.90622        19.750           1.969
  23020154.539    -2539635.502 6  -1978933.76321        13.500           0.750
  23255334.781    -1636367.449 6  -1275089.53121        17.250           0.750
  23788330.781    -1425320.735 5   -916136.35221        10.250           0.313
  24351550.117     -336265.385 4    -32691.49221         7.000           0.188
 91  5 29 17 52 30.0000000  0  6G18G19G 2G11G16G 6
  21161826.352     1210869.038 7    943532.81723        26.750           2.844
  20648956.492     -238902.564 7   -186158.18022        20.000           1.969
  23010773.648    -2588939.523 6  -2017352.39721        14.000           0.906
  23249703.250    -1665964.350 6  -1298152.01621        16.750           0.688
  23783545.680    -1450482.607 5   -935743.01221        11.750           0.281
  24343571.117     -378193.912 4    -65363.02121         6.250           0.250
 91  5 29 17 52 45.0000000  0  6G18G19G 2G11G16G 6
  21166875.750     1237405.953 7    964210.89623        27.250           2.938
  20648348.688     -242112.077 6   -188659.09822        19.250           1.906
  23001405.328    -2638183.991 6  -2055724.65921        15.000           0.844
  23244093.094    -1695434.429 6  -1321115.68221        16.250           0.906
  23778779.875    -1475511.989 5   -955246.43121        11.500           0.344
  24335602.344     -420103.273 4    -98019.64121         7.250           0.250
 91  5 29 17 53  0.0000000  0  6G18G19G 2G11G16G 6
  21171947.086     1264050.955 7    984973.20823        27.500           3.094
  20647746.938     -245261.830 6   -191113.45322        19.750           1.906
  22992042.617    -2687364.517 6  -2094047.08521        14.250           0.844
  23238510.484    -1724773.260 6  -1343977.07321        16.750           0.781
  23774049.414    -1500404.637 6   -974643.26721        12.250           0.250
  24327630.273     -461989.145 4   -130657.92921         7.000           0.156
 91  5 29 17 53 15.0000000  0  6G18G19G 2G11G16G 6
  21177038.734     1290803.407 7   1005819.24423        27.250           3.031
  20647160.109     -248352.434 6   -193521.71422        19.250           1.813
  22982695.625    -2736481.447 6  -2132319.95221        14.750           0.781
  23232950.852    -1753981.004 6  -1366736.31921        16.500           0.781
  23769336.500    -1525161.186 5   -993934.10221        11.250           0.219
  24319670.680     -503852.196 4   -163278.46221         6.750           0.156
 91  5 29 17 53 30.0000000  0  6G18G19G 2G11G16G 6
  21182147.383     1317662.499 7   1026748.36623        26.250           2.938
  20646583.469     -251384.538 6   -195884.39922        19.750           1.844
  22973362.109    -2785535.336 6  -2170543.72021        14.750           0.813
  23227421.258    -1783058.123 6  -1389393.77221        17.750           0.781
  23764654.203    -1549781.990 6  -1013119.15821        12.000           0.250
  24311702.891     -545693.115 4   -195881.72521         6.500           0.156
 91  5 29 17 53 45.0000000  0  6G18G19G 2G11G16G 6
  21187281.430     1344629.581 7   1047761.63723        26.750           2.875
  20646018.672     -254356.452 6   -198200.17622        19.750           1.813
  22964039.938    -2834524.279 6  -2208716.86021        15.500           0.813
  23221911.500    -1812002.614 6  -1411947.88521        17.000           0.781
  23759991.984    -1574265.137 5  -1032196.93221        11.500           0.250
  24303751.141     -587510.291 3   -228466.48621         6.000           0.250
 91  5 29 17 54  0.0000000  0  6G18G19G 2G11G16G 6
  21192434.773     1371704.542 7   1068858.97223        27.250           2.906
  20645463.570     -257268.104 7   -200468.99922        20.250           1.781
  22954731.359    -2883448.193 6  -2246839.33121        15.000           0.813
  23216427.680    -1840814.191 6  -1434398.43021        17.000           0.906
  23755357.773    -1598610.679 5  -1051167.51221        11.000           0.219
  24295796.422     -629303.639 4   -261032.68721         6.500           0.219
 91  5 29 17 54 15.0000000  0  6G18G19G 2G11G16G 6
  21197606.484     1398890.204 7   1090042.56723        27.000           2.875
  20644923.234     -260116.767 6   -202688.74122        19.500           1.938
  22945432.063    -2932304.155 6  -2284908.86821        14.750           0.781
  23210974.133    -1869489.721 6  -1456742.96221        17.500           0.844
  23750754.367    -1622815.729 6  -1070028.57421        12.250           0.219
  24287842.641     -671070.442 4   -293578.21121         7.250           0.250
 91  5 29 17 54 30.0000000  0  6G18G19G 2G11G16G 6
  21202800.727     1426185.030 7   1111311.23023        27.250           2.844
  20644392.219     -262903.786 6   -204860.44022        19.500           1.844
  22936145.094    -2981093.350 6  -2322926.37921        13.500           0.781
  23205541.813    -1898030.288 6  -1478982.32621        17.500           0.875
  23746171.547    -1646881.282 5  -1088780.96421        11.750           0.250
  24279898.156     -712812.052 4   -326104.09921         7.000           0.219
 91  5 29 17 54 45.0000000  0  6G18G19G 2G11G16G 6
  21208014.352     1453583.296 7   1132660.48823        26.750           2.813
  20643873.539     -265634.521 6   -206988.28622        19.750           1.844
  22926875.367    -3029821.027 6  -2360895.92721        14.500           0.875
  23200136.766    -1926441.083 6  -1501120.57521        18.000           0.781
  23741619.453    -1670812.794 5  -1107428.87621        11.500           0.156
  24271960.164     -754533.976 4   -358614.64421         7.250           0.250
 91  5 29 17 55  0.0000000  0  6G18G19G 2G11G16G 6
  21213248.594     1481090.310 7   1154094.48623        27.000           2.781
  20643362.156     -268303.722 7   -209068.18922        20.500           1.875
  22917616.031    -3078481.774 6  -2398813.34321        15.000           0.969
  23194753.398    -1954716.580 6  -1523153.40121        17.500           0.844
  23737090.414    -1694604.812 5  -1125968.11621        11.000           0.281
  24264023.328     -796230.959 4   -391105.76921         7.000           0.281
 91  5 29 17 55 15.0000000  0  6G18G19G 2G11G16G 6
  21218503.797     1508709.970 7   1175616.25723        26.500           2.781
  20642867.555     -270907.440 6   -211097.05622        19.750           1.875
  22908370.641    -3127071.749 6  -2436675.59921        15.250           0.938
  23189403.500    -1982852.493 6  -1545077.44921        17.750           0.844
  23732591.859    -1718253.775 5  -1144395.90721        10.250           0.281
  24256097.766     -837899.099 5   -423574.37921         7.500           0.438
 91  5 29 17 55 30.0000000  0  6G18G19G 2G11G16G 6
  21223778.758     1536434.679 7   1197219.88623        25.750           2.813
  20642382.633     -273452.915 7   -213080.54322        20.500           1.844
  22899137.141    -3175597.967 6  -2474488.19421        16.000           0.969
  23184076.164    -2010855.598 6  -1566898.01121        18.000           0.875
  23728115.609    -1741766.540 5  -1162717.52821        10.000           0.313
  24248171.234     -879545.649 5   -456026.16321         7.500           0.344
 91  5 29 17 55 45.0000000  0  6G18G19G 2G11G16G 6
  21229075.438     1564264.406 7   1218905.34423        26.750           2.625
  20641912.977     -275939.878 7   -215018.43522        20.000           1.875
  22889913.078    -3224059.919 6  -2512250.69621        14.500           1.000
  23178767.594    -2038725.490 6  -1588614.78021        17.000           0.906
  23723670.313    -1765142.543 5  -1180932.61221        11.250           0.344
  24240252.867     -921170.353 5   -488460.95821         7.750           0.281
 91  5 29 17 56  0.0000000  0  6G18G19G 2G11G16G 6
  21234392.477     1592204.406 7   1240676.73423        27.000           2.719
  20641446.953     -278363.157 7   -216906.71322        20.750           1.813
  22880704.281    -3272452.317 6  -2549959.00121        15.750           0.906
  23173487.070    -2066456.963 6  -1610223.68421        16.250           0.781
  23719249.133    -1788376.421 5  -1199036.92621        11.250           0.344
  24232334.898     -962768.302 5   -520874.90721         8.000           0.375
 91  5 29 17 56 15.0000000  0  6G18G19G 2G11G16G 6
  21239729.078     1620248.357 7   1262529.12623        26.750           2.531
  20641000.438     -280728.828 6   -218750.09522        19.750           1.813
  22871507.289    -3320781.057 6  -2587617.72021        15.750           0.844
  23168236.945    -2094055.584 6  -1631729.07221        16.750           0.844
  23714850.047    -1811474.455 5  -1217035.39621        10.750           0.281
  24224428.000    -1004345.359 5   -553272.56821         8.250           0.469
 91  5 29 17 56 30.0000000  0  6G18G19G 2G11G16G 6
  21245086.492     1648401.928 7   1284466.92922        27.000           2.406
  20640556.750     -283031.228 7   -220544.17122        21.000           1.875
  22862323.133    -3369040.267 6  -2625222.26721        16.000           0.938
  23163010.992    -2121515.469 6  -1653126.35421        16.750           0.938
  23710481.984    -1834430.649 5  -1234923.34821         9.750           0.281
  24216517.250    -1045895.917 5   -585649.57321         7.500           0.375
 91  5 29 17 56 45.0000000  0  6G18G19G 2G11G16G 6
  21250464.336     1676659.645 7   1306485.89122        26.750           2.344
  20640135.352     -285275.456 7   -222292.92622        20.250           1.938
  22853152.781    -3417235.130 6  -2662776.65421        16.750           1.000
  23157808.008    -2148841.501 6  -1674419.32521        16.250           0.844
  23706139.219    -1857250.153 5  -1252704.79021         9.750           0.250
  24208617.977    -1087425.276 5   -618010.06121         8.000           0.344
 91  5 29 17 57  0.0000000  0  6G18G19G 2G11G16G 6
  21255863.680     1705028.041 7   1328591.09022        26.250           2.375
  20639722.188     -287454.627 7   -223990.98722        20.250           1.875
  22843996.188    -3465358.621 6  -2700275.44021        16.000           0.969
  23152640.000    -2176026.558 6  -1695602.45321        17.000           0.844
  23701826.063    -1879926.068 5  -1270374.34721         9.750           0.281
  24200714.797    -1128926.641 5   -650348.76021         7.500           0.313
 91  5 29 17 57 15.0000000  0  6G18G19G 2G11G16G 6
  21261281.000     1733499.362 7   1350776.48422        26.250           2.375
  20639317.188     -289576.465 7   -225644.37122        20.250           1.906
  22834849.234    -3513418.398 6  -2737724.56221        15.750           1.031
  23147492.445    -2203078.081 6  -1716681.53021        17.000           0.813
  23697542.164    -1902465.807 5  -1287937.79721        10.750           0.344
  24192824.711    -1170407.556 5   -682671.52021         8.250           0.438
 91  5 29 17 57 30.0000000  0  6G18G19G 2G11G16G 6
  21266717.727     1762074.869 7   1373043.06822        25.750           2.375
  20638920.727     -291639.572 7   -227251.99322        20.500           1.875
  22825718.117    -3561412.753 6  -2775122.69721        17.000           1.063
  23142369.555    -2229994.357 6  -1737655.22321        17.000           0.813
  23693277.188    -1924868.062 5  -1305394.10821        10.500           0.344
  24184935.602    -1211866.775 5   -714977.34421         8.750           0.375
 91  5 29 17 57 45.0000000  0  6G18G19G 2G11G16G 6
  21272176.930     1790756.493 7   1395392.33722        26.500           2.469
  20638542.484     -293641.767 6   -228812.14922        19.500           1.906
  22816598.516    -3609339.446 6  -2812468.13621        16.250           1.000
  23137275.453    -2256773.051 6  -1758521.70221        17.750           0.781
  23689039.305    -1947130.607 5  -1322741.53121        10.000           0.250
  24177048.164    -1253302.185 5   -747264.65121         9.000           0.344
 91  5 29 17 58  0.0000000  0  6G18G19G 2G11G16G 6
  21277654.813     1819543.306 7   1417823.57422        26.750           2.438
  20638174.336     -295583.993 6   -230325.57522        19.500           1.875
  22807488.586    -3657199.451 6  -2849761.59521        15.500           1.063
  23132204.039    -2283414.844 6  -1779281.51721        17.500           0.844
  23684833.227    -1969254.110 5  -1339980.62921        10.000           0.438
  24169164.219    -1294714.769 5   -779534.15521         8.500           0.500
 91  5 29 17 58 15.0000000  0  6G18G19G 2G11G16G 6
  21283152.047     1848432.523 7   1440334.59822        27.250           2.375
  20637813.266     -297468.857 6   -231794.29822        19.500           1.938
  22798393.555    -3704995.152 6  -2887004.94821        15.250           0.938
  23127160.711    -2309921.973 6  -1799936.39921        17.750           0.875
  23680644.367    -1991241.038 5  -1357113.29721        10.500           0.313
  24161287.531    -1336107.136 5   -811787.87721         8.000           0.500
 91  5 29 17 58 30.0000000  0  6G18G19G 2G11G16G 6
  21288670.500     1877435.010 7   1462933.90222        26.250           2.406
  20637467.734     -299285.568 7   -233209.92222        20.250           1.813
  22789315.078    -3752715.568 6  -2924189.65121        15.750           1.031
  23122143.172    -2336283.345 6  -1820477.70021        17.250           0.844
  23676492.508    -2013080.636 5  -1374131.22321        10.750           0.313
  24153421.820    -1377468.518 5   -844017.47721         9.250           0.469
 91  5 29 17 58 45.0000000  0  6G18G19G 2G11G16G 6
  21294209.828     1906545.056 7   1485617.02022        26.250           2.281
  20637135.539     -301039.260 6   -234576.43922        19.500           1.969
  22780244.805    -3800365.859 6  -2961319.69921        16.750           0.969
  23117156.336    -2362504.032 6  -1840909.37221        18.250           0.938
  23672359.820    -2034778.145 5  -1391038.34621        11.000           0.500
  24145555.313    -1418804.087 5   -876226.95921         8.750           0.406
 91  5 29 17 59  0.0000000  0  6G18G19G 2G11G16G 6
  21299770.000     1935758.085 7   1508380.37422        26.000           2.250
  20636813.055     -302734.427 6   -235897.35522        19.250           1.969
  22771191.188    -3847950.274 6  -2998398.42821        16.750           1.000
  23112190.781    -2388588.177 6  -1861234.65421        18.000           0.969
  23668259.055    -2056337.698 5  -1407838.00221        11.250           0.313
  24137693.367    -1460118.436 5   -908419.92021         8.500           0.406
 91  5 29 17 59 15.0000000  0  6G18G19G 2G11G16G 6
  21305346.516     1965075.057 7   1531224.72722        25.750           2.188
  20636500.813     -304370.049 6   -237171.86722        19.500           1.875
  22762149.594    -3895467.577 6  -3035424.85821        16.250           0.906
  23107253.422    -2414534.500 6  -1881452.54321        17.750           0.875
  23664179.547    -2077758.152 5  -1424529.26621        10.250           0.375
  24129831.953    -1501410.504 5   -940595.49321         8.000           0.375
 91  5 29 17 59 30.0000000  0  6G18G19G 2G11G16G 6
  21310949.594     1994501.021 7   1554153.99922        27.000           2.281
  20636199.789     -305940.918 7   -238395.93522        20.000           2.000
  22753117.305    -3942912.452 6  -3072394.84221        15.500           1.031
  23102344.898    -2440337.465 6  -1901558.71921        18.250           0.875
  23660132.617    -2099034.391 5  -1441108.16921         9.250           0.406
  24121984.078    -1542675.157 5   -972749.70421         8.000           0.313
 91  5 29 17 59 45.0000000  0  6G18G19G 2G11G16G 6
  21316568.094     2024032.850 7   1577165.77222        27.000           2.313
  20635914.914     -307449.853 6   -239571.73222        19.250           1.938
  22744104.242    -3990287.843 6  -3109310.69321        15.500           0.906
  23097460.258    -2465999.782 6  -1921555.31321        18.000           0.844
  23656109.852    -2120168.988 5  -1457576.68821         9.750           0.500
  24114133.914    -1583915.198 4  -1004884.78321         7.250           0.250
 91  5 29 18  0  0.0000000  0  6G18G19G 2G11G16G 6
  21322206.516     2053665.384 7   1600256.01622        27.000           2.375
  20635637.805     -308901.956 6   -240703.24622        19.750           1.906
  22735100.734    -4037598.395 6  -3146176.01521        16.000           1.063
  23092600.891    -2491526.203 6  -1941446.01721        17.250           0.750
  23652117.047    -2141167.099 5  -1473938.84421        10.750           0.406
  24106290.094    -1625135.732 5  -1037004.63221         7.750           0.219
 91  5 29 18  0 15.0000000  0  6G18G19G 2G11G16G 6
  21327865.266     2083407.347 7   1623431.52522        25.750           2.281
  20635371.430     -310288.152 7   -241783.40322        20.750           2.031
  22726113.539    -4084835.111 6  -3182983.80021        16.500           1.156
  23087772.789    -2516907.466 6  -1961223.59021        17.750           0.906
  23648146.813    -2162019.610 5  -1490187.56321        10.250           0.500
  24098446.352    -1666327.980 4  -1069102.48921         7.000           0.188
 91  5 29 18  0 30.0000000  0  6G18G19G 2G11G16G 6
  21333544.836     2113248.429 7   1646684.26722        25.500           2.313
  20635118.852     -311618.698 7   -242820.19522        20.000           1.938
  22717136.195    -4132008.168 6  -3219741.97421        16.000           1.156
  23082969.227    -2542153.510 6  -1980895.81321        18.250           0.844
  23644207.805    -2182736.742 5  -1506330.80821        10.250           0.531
  24090616.578    -1707502.070 4  -1101186.16021         7.250           0.250
 91  5 29 18  0 45.0000000  0  6G18G19G 2G11G16G 6
  21339242.242     2143191.544 7   1670016.52122        25.000           2.406
  20634876.156     -312890.202 7   -243810.98722        21.000           2.000
  22708172.109    -4179114.307 6  -3256448.00821        16.250           1.188
  23078191.219    -2567260.893 6  -2000459.98521        18.000           0.813
  23640289.336    -2203314.916 5  -1522365.74521         9.750           0.344
  24082782.195    -1748654.802 4  -1133253.12221         7.000           0.250
 91  5 29 18  1  0.0000000  0  6G18G19G 2G11G16G 6
  21344959.422     2173239.782 7   1693430.68322        25.500           2.281
  20634651.383     -314099.612 6   -244753.39322        19.250           1.938
  22699221.352    -4226150.119 6  -3293099.25421        16.250           1.219
  23073441.023    -2592226.256 6  -2019913.49221        18.500           0.906
  23636395.758    -2223750.906 5  -1538289.89221         9.500           0.375
  24074959.328    -1789783.090 4  -1165301.09021         7.250           0.156
 91  5 29 18  1 15.0000000  0  6G18G19G 2G11G16G 6
  21350699.914     2203395.120 7   1716928.31122        25.250           2.344
  20634429.813     -315244.886 7   -245645.81822        21.000           1.844
  22690284.227    -4273113.337 6  -3329693.92021        16.500           1.125
  23068717.539    -2617047.303 6  -2039254.54421        18.500           0.938
  23632538.609    -2244042.662 5  -1554101.66921        10.250           0.313
  24067137.977    -1830884.809 5  -1197328.35821         7.500           0.188
 91  5 29 18  1 30.0000000  0  6G18G19G 2G11G16G 6
  21356457.477     2233659.932 7   1740511.22622        25.250           2.344
  20634226.305     -316323.377 6   -246486.20522        19.250           2.031
  22681359.984    -4320001.098 6  -3366229.78921        18.000           1.219
  23064022.133    -2641721.064 6  -2058480.84021        18.000           0.938
  23628700.516    -2264187.545 5  -1569798.96721        10.000           0.406
  24059321.563    -1871957.442 5  -1229332.92821         8.000           0.219
 91  5 29 18  1 45.0000000  0  6G18G19G 2G11G16G 6
  21362239.352     2264031.125 7   1764177.04922        25.000           2.375
  20634030.773     -317338.011 7   -247276.83322        20.500           2.000
  22672451.594    -4366816.454 6  -3402709.25121        17.750           1.219
  23059352.930    -2666250.347 6  -2077594.54021        18.000           0.813
  23624900.625    -2284188.495 5  -1585384.14621        10.500           0.406
  24051507.406    -1913003.989 5  -1261317.23021         7.750           0.250
 91  5 29 18  2  0.0000000  0  6G18G19G 2G11G16G 6
  21368039.563     2294509.084 7   1787926.06322        25.000           2.313
  20633850.383     -318288.184 7   -248017.22822        20.000           1.938
  22663556.523    -4413558.664 6  -3439131.71021        18.000           1.063
  23054716.039    -2690634.360 6  -2096595.05221        18.500           0.750
  23621120.195    -2304044.835 5  -1600856.60921        10.500           0.438
  24043700.125    -1954023.951 4  -1293280.80021         7.250           0.250
 91  5 29 18  2 15.0000000  0  6G18G19G 2G11G16G 6
  21373858.523     2325089.165 7   1811754.64622        25.000           2.438
  20633681.125     -319178.338 7   -248710.86122        20.750           2.031
  22654673.805    -4460231.929 6  -3475500.45821        17.500           1.188
  23050099.289    -2714877.195 6  -2115485.55321        18.250           0.875
  23617367.414    -2323760.778 5  -1616219.69221        10.250           0.563
  24035904.617    -1995021.671 5  -1325226.97721         7.750           0.281
 91  5 29 18  2 30.0000000  0  6G18G19G 2G11G16G 6
  21379692.977     2355769.489 7   1835661.35522        23.500           2.438
  20633522.313     -320009.894 7   -249358.83422        20.000           2.031
  22645808.781    -4506837.651 6  -3511816.55921        19.000           1.188
  23045514.805    -2738980.119 6  -2134267.02721        18.750           0.844
  23613639.188    -2343337.910 5  -1631474.60521        10.250           0.563
  24028101.344    -2035998.686 5  -1357157.05921         8.250           0.250
 91  5 29 18  2 45.0000000  0  6G18G19G 2G11G16G 6
  21385552.016     2386555.874 7   1859650.69122        23.250           2.469
  20633376.547     -320777.085 7   -249956.64422        20.500           2.000
  22636954.594    -4553370.158 7  -3548075.60021        20.000           1.156
  23040955.109    -2762937.213 6  -2152934.87221        18.250           0.875
  23609946.031    -2362770.250 5  -1646616.69021        11.250           0.469
  24020313.664    -2076949.368 5  -1389066.65121         8.750           0.250
 91  5 29 18  3  0.0000000  0  6G18G19G 2G11G16G 6
  21391430.023     2417444.515 7   1883719.72022        23.250           2.438
  20633243.055     -321483.489 7   -250507.09822        20.000           2.000
  22628111.875    -4599832.871 6  -3584280.28521        19.250           1.250
  23036422.070    -2786751.759 6  -2171491.63921        18.500           0.813
  23606273.750    -2382061.593 6  -1661648.90421        12.250           0.469
  24012525.625    -2117877.373 5  -1420958.62321         8.750           0.219
 91  5 29 18  3 15.0000000  0  6G18G19G 2G11G16G 6
  21397328.383     2448436.868 7   1907869.54422        23.750           2.438
  20633119.961     -322127.419 7   -251008.86322        20.750           1.969
  22619283.961    -4646223.917 6  -3620429.11121        19.500           1.313
  23031919.000    -2810421.910 6  -2189935.89521        18.250           1.031
  23602628.539    -2401210.122 6  -1676569.82821        12.000           0.469
  24004738.867    -2158780.944 5  -1452831.48521         8.500           0.250
 91  5 29 18  3 30.0000000  0  6G18G19G 2G11G16G 6
  21403246.695     2479531.020 7   1932098.69322        24.500           2.344
  20633009.375     -322710.788 7   -251463.44822        20.250           2.063
  22610467.992    -4692545.108 6  -3656523.51121        19.000           1.313
  23027441.820    -2833949.232 6  -2208268.85621        17.750           0.906
  23599016.078    -2420217.450 6  -1691380.74121        12.000           0.563
  23996961.211    -2199661.945 5  -1484686.76421         8.750           0.156
 91  5 29 18  3 45.0000000  0  6G18G19G 2G11G16G 6
  21409182.266     2510732.773 7   1956411.69722        24.000           2.219
  20632909.352     -323227.652 7   -251866.19422        21.000           1.969
  22601667.977    -4738790.223 6  -3692558.61721        19.000           1.313
  23022993.086    -2857327.408 6  -2226485.58821        17.750           0.844
  23595423.422    -2439077.630 5  -1706076.99921        11.250           0.500
  23989182.836    -2240514.530 5  -1516519.89521         9.250           0.250
 91  5 29 18  4  0.0000000  0  6G18G19G 2G11G16G 6
  21415139.930     2542033.276 7   1980801.65722        24.500           2.375
  20632823.203     -323686.542 6   -252223.77822        19.500           1.906
  22592881.914    -4784967.729 6  -3728541.04221        19.500           1.250
  23018571.719    -2880564.919 6  -2244592.72221        18.000           0.906
  23591863.508    -2457799.448 5  -1720665.44821        11.750           0.469
  23981418.023    -2281347.332 5  -1548337.61921         9.750           0.219
 91  5 29 18  4 15.0000000  0  6G18G19G 2G11G16G 6
  21421118.570     2573441.805 7   2005275.78422        24.750           2.406
  20632746.250     -324077.997 7   -252528.81022        20.000           1.844
  22584109.813    -4831068.117 7  -3764463.37921        20.250           1.406
  23014174.102    -2903652.190 6  -2262582.80021        16.750           1.000
  23588328.930    -2476373.070 6  -1735138.40521        12.000           0.469
  23973647.289    -2322150.873 5  -1580132.56421         9.250           0.281
 91  5 29 18  4 30.0000000  0  6G18G19G 2G11G16G 6
  21427114.188     2604955.400 7   2029831.78622        24.250           2.344
  20632686.484     -324404.856 6   -252783.50922        19.750           1.875
  22575349.180    -4877094.096 7  -3800327.73822        20.000           1.500
  23009809.961    -2926591.715 6  -2280457.73721        17.000           1.000
  23584820.164    -2494801.182 6  -1749497.94721        12.250           0.469
  23965887.547    -2362928.010 5  -1611906.89421         8.750           0.344
 91  5 29 18  4 45.0000000  0  6G18G19G 2G11G16G 6
  21433128.758     2636570.394 7   2054466.78722        24.500           2.406
  20632633.508     -324670.319 7   -252990.36922        20.250           2.000
  22566604.641    -4923048.920 6  -3836136.65222        19.500           1.531
  23005472.359    -2949386.628 6  -2298219.99921        17.750           1.000
  23581339.164    -2513087.120 5  -1763746.74921        11.500           0.438
  23958133.414    -2403682.151 5  -1643663.31321         8.750           0.219
 91  5 29 18  5  0.0000000  0  6G18G19G 2G11G16G 6
  21439164.523     2668280.962 7   2079176.26522        25.000           2.438
  20632595.820     -324880.177 6   -253153.90322        19.500           1.750
  22557873.633    -4968938.260 6  -3871894.53422        19.750           1.531
  23001162.508    -2972042.492 6  -2315873.88621        18.000           0.906
  23577885.797    -2531236.914 5  -1777889.43721        10.250           0.438
  23950382.234    -2444419.069 5  -1675406.31821         9.000           0.156
 91  5 29 18  5 15.0000000  0  6G18G19G 2G11G16G 6
  21445217.289     2700098.462 7   2103969.06922        25.500           2.438
  20632569.328     -325022.985 7                        20.250
  22549154.289    -5014750.437 6  -3907592.29622        18.750           1.688
  22996880.344    -2994547.542 6  -2333410.27921        17.750           0.969
  23574459.984    -2549238.752 5  -1791916.86521        11.250           0.438
  23942637.133    -2485127.324 5  -1707126.99421         8.750           0.250
 91  5 29 18  5 30.0000000  0  6G18G19G 2G11G16G 6
  21451292.258     2732021.189 7   2128843.87622        25.250           2.375
  20632555.656     -325100.177 6                        19.250
  22540453.281    -5060486.783 6  -3943230.96021        19.250           1.344
  22992624.828    -3016903.030 6  -2350830.12721        17.250           0.969
  23571065.539    -2567094.207 6  -1805830.21121        12.250           0.469
  23934896.734    -2525808.380 5  -1738826.48821        10.000           0.281
 91  5 29 18  5 45.0000000  0  6G18G19G 2G11G16G 6
  21457387.594     2764044.645 7   2153797.17122        25.500           2.313
  20632551.719     -325116.124 7                        20.000
  22531762.875    -5106151.558 6  -3978813.86721        18.750           1.344
  22988399.047    -3039112.960 6  -2368136.55021        17.250           0.875
  23567690.922    -2584807.143 5  -1819632.49121        11.750           0.438
  23927160.141    -2566466.585 5  -1770508.14521        10.750           0.188
 91  5 29 18  6  0.0000000  0  6G18G19G 2G11G16G 6
  21463502.102     2796171.428 7   2178830.97522        25.250           2.469
  20632563.813     -325068.028 6                        19.250
  22523086.516    -5151741.927 6  -4014338.79121        18.750           1.406
  22984201.141    -3061174.500 6  -2385327.34521        17.500           1.031
  23564346.883    -2602375.145 5  -1833321.85021        11.750           0.531
  23919429.688    -2607099.262 5  -1802169.90121        11.000           0.219
 91  5 29 18  6 14.9990000  0  6G18G19G 2G11G16G 6
  21469633.940     2828401.476 7   2203945.26222        24.750           2.438
  20632580.753     -324953.535 7                        20.000
  22514424.815    -5197252.384 6  -4049801.46221        18.250           1.375
  22980034.620    -3083083.703 6  -2402399.43421        18.250           1.000
  23561036.862    -2619794.639 5  -1846895.51221        11.750           0.531
  23911702.581    -2647701.402 5  -1833807.95121        11.000           0.219
 91  5 29 18  6 29.9990000  0  6G18G19G 2G11G16G 6
  21475788.433     2860734.728 7   2229139.95022        25.250           2.313
  20632615.831     -324776.529 6                        19.250
  22505778.222    -5242692.755 6  -4085209.49422        18.500           1.531
  22975890.105    -3104847.176 6  -2419357.96521        17.750           0.969
  23557747.597    -2637071.949 5  -1860358.34621        11.500           0.406
  23903981.065    -2688282.446 5  -1865429.48621        10.750           0.250
 91  5 29 18  6 44.9990000  0  6G18G19G 2G11G16G 6
  21481962.198     2893171.836 7   2254415.56922        25.750           2.281
  20632660.323     -324534.130 7                        20.000
  22497144.901    -5288057.163 6  -4120558.34521        18.750           1.438
  22971775.448    -3126460.375 6  -2436199.40521        17.000           1.000
  23554490.394    -2654202.849 6  -1873707.11021        12.500           0.500
  23896263.151    -2728836.853 5  -1897030.30021        10.500           0.313
 91  5 29 18  6 59.9990000  0  6G18G19G 2G11G16G 6
  21488151.628     2925711.746 7   2279771.28822        26.000           2.375
  20632721.886     -324227.440 6   -252645.33222        18.750           1.969
  22488526.964    -5333346.382 6  -4155848.60422        18.750           1.500
  22967693.628    -3147924.104 6  -2452924.37121        17.500           1.000
  23551256.026    -2671188.174 5  -1886942.42621        11.250           0.531
  23888549.722    -2769365.540 5  -1928611.03521        10.000           0.313
 91  5 29 18  7 14.9990000  0  6G18G19G 2G11G16G 6
  21494363.784     2958351.988 7   2305205.19122        25.500           2.375
  20632788.878     -323858.808 7   -252358.09122        20.000           1.938
  22479923.472    -5378562.637 6  -4191082.00422        19.000           1.531
  22963635.972    -3169240.469 6  -2469534.51321        17.750           0.875
  23548052.300    -2688030.268 6  -1900066.16621        12.250           0.469
  23880842.276    -2809870.956 5  -1960173.62621        10.000           0.281
 91  5 29 18  7 29.9990000  0  6G18G19G 2G11G16G 6
  21500592.714     2991096.198 7   2330720.10122        25.500           2.313
  20632873.323     -323424.262 7   -252019.49122        20.250           1.969
  22471332.753    -5423701.951 6  -4226255.47421        17.750           1.469
  22959610.065    -3190405.387 6  -2486026.64321        17.750           0.969
  23544875.034    -2704725.378 6  -1913075.35721        12.250           0.531
  23873142.214    -2850349.251 5  -1991715.11621        10.250           0.438
 91  5 29 18  7 44.9990000  0  6G18G19G 2G11G16G 6
  21506844.198     3023943.553 7   2356315.39322        25.250           2.250
  20632966.831     -322924.153 7   -251629.80322        20.750           1.844
  22462758.722    -5468764.650 6  -4261369.22321        18.250           1.406
  22955608.730    -3211419.035 6  -2502400.90121        17.000           0.969
  23541723.519    -2721273.798 5  -1925970.23721        11.750           0.469
  23865444.698    -2890800.910 5  -2023235.83221        10.500           0.344
 91  5 29 18  7 59.9990000  0  6G18G19G 2G11G16G 6
  21513115.331     3056895.480 7   2381992.16722        25.500           2.375
  20633076.401     -322357.006 7   -251187.88022        20.000           1.938
  22454197.550    -5513749.311 6  -4296422.14621        18.750           1.469
  22951640.745    -3232279.728 6  -2518655.97021        17.000           0.906
  23538604.901    -2737674.030 5  -1938749.66521        11.250           0.500
  23857751.120    -2931224.462 5  -2054734.68421         9.500           0.313
 91  5 29 18  8 14.9990000  0  6G18G19G 2G11G16G 6
  21519405.886     3089948.821 7   2407747.96522        25.250           2.250
  20633194.276     -321725.881 7   -250696.10522        20.250           1.969
  22445652.870    -5558658.590 6  -4331416.35122        19.250           1.500
  22947699.472    -3252990.420 6  -2534794.15821        17.250           0.938
  23535508.839    -2753928.970 6  -1951415.85121        12.000           0.469
  23850062.542    -2971623.031 5  -2086214.04321         9.000           0.406
 91  5 29 18  8 29.9990000  0  6G18G19G 2G11G16G 6
  21525715.995     3123097.827 7   2433578.30322        25.500           2.344
  20633326.456     -321036.087 6   -250158.61022        19.750           2.000
  22437119.308    -5603497.864 6  -4366355.99121        19.500           1.469
  22943786.394    -3273556.141 6  -2550819.37921        17.750           0.969
  23532443.011    -2770044.128 6  -1963973.12621        12.500           0.469
  23842380.542    -3012001.981 5  -2117678.12621         8.750           0.500
 91  5 29 18  8 44.9990000  0  6G18G19G 2G11G16G 6
  21532041.769     3156350.692 7   2459489.57222        25.250           2.281
  20633469.480     -320279.135 7   -249568.78422        20.250           2.031
  22428601.386    -5648258.517 6  -4401234.37821        19.250           1.469
  22939903.425    -3293968.254 6  -2566724.91721        17.750           1.031
  23529405.995    -2786011.128 5  -1976414.94121        11.750           0.500
  23834703.003    -3052352.835 5  -2149120.27421         8.750           0.469
 91  5 29 18  8 59.9990000  0  6G18G19G 2G11G16G 6
  21538389.464     3189706.703 7   2485481.20122        25.250           2.156
  20633628.222     -319455.851 7   -248927.27122        20.500           2.000
  22420099.706    -5692941.409 7  -4436052.17121        20.250           1.438
  22936046.370    -3314227.402 6  -2582511.25221        17.750           1.031
  23526398.683    -2801830.485 6  -1988741.73321        12.000           0.438
  23827025.511    -3092676.407 5  -2180541.20021         7.750           0.469
 91  5 29 18  9 14.9990000  0  6G18G19G 2G11G16G 6
  21544755.628     3223159.955 7   2511548.61622        25.250           2.250
  20633794.597     -318571.681 7   -248238.31822        20.000           2.031
  22411611.706    -5737551.912 7  -4470813.55721        21.000           1.469
  22932219.644    -3334338.876 6  -2598182.52321        17.750           1.125
  23523411.659    -2817507.585 5  -2000957.70021        11.750           0.344
  23819354.230    -3132978.302 5  -2211945.22821         7.750           0.594
 91  5 29 18  9 29.9990000  0  6G18G19G 2G11G16G 6
  21551139.675     3256715.232 7   2537695.53822        24.750           2.375
  20633977.972     -317621.634 6   -247498.02822        18.750           2.031
  22403136.401    -5782084.879 7  -4505514.53722        21.250           1.500
  22928421.253    -3354297.552 6  -2613734.72521        18.000           1.094
  23520458.886    -2833037.631 5  -2013059.04121        11.750           0.563
  23811691.761    -3173253.514 5  -2243328.43321         8.000           0.469
 91  5 29 18  9 44.9990000  0  6G18G19G 2G11G16G 6
  21557545.339     3290370.719 7   2563920.53522        24.500           2.344
  20634169.183     -316607.630 7   -246707.90422        20.000           1.969
  22394674.339    -5826542.091 7  -4540156.48522        20.750           1.656
  22924653.589    -3374105.028 6  -2629169.11421        18.250           1.094
  23517528.315    -2848422.495 5  -2025047.25621        11.250           0.531
  23804029.698    -3213504.017 5  -2274692.42121         9.000           0.469
 91  5 29 18  9 59.9990000  0  6G18G19G 2G11G16G 6
  21563968.909     3324126.488 7   2590223.67522        24.000           2.313
  20634377.511     -315529.457 6   -245867.77222        19.250           2.094
  22386228.698    -5870923.210 7  -4574739.12322        21.250           1.625
  22920911.737    -3393760.912 6  -2644485.38521        18.500           1.125
  23514619.901    -2863661.949 5  -2036922.16521        10.750           0.469
  23796374.589    -3253729.591 5  -2306036.99521         8.250           0.469
 91  5 29 18 10 14.9990000  0  6G18G19G 2G11G16G 6
  21570409.480     3357982.165 7   2616604.66022        23.250           2.313
  20634591.144     -314386.649 6   -244977.28122        19.750           2.000
  22377799.159    -5915227.856 7  -4609262.17722        20.750           1.625
  22917201.831    -3413264.676 6  -2659683.10621        19.000           1.094
  23511755.183    -2878755.520 5  -2048683.40721        11.750           0.531
  23788724.753    -3293929.971 5  -2337361.93821         9.000           0.406
 91  5 29 18 10 29.9990000  0  6G18G19G 2G11G16G 6
  21576871.730     3391937.196 7   2643063.06122        23.750           2.250
  20634824.292     -313179.629 6   -244036.75522        18.750           2.000
  22369381.214    -5959456.285 7  -4643725.84822        20.500           1.688
  22913518.261    -3432616.631 6  -2674762.54821        18.500           1.031
  23508908.714    -2893703.680 6  -2060331.33721        12.000           0.406
  23781082.042    -3334105.635 5  -2368667.61021         9.000           0.313
 91  5 29 18 10 44.9990000  0  6G18G19G 2G11G16G 6
  21583354.042     3425995.672 7   2669602.07822        24.000           2.219
  20635065.573     -311904.341 7   -243043.02922        20.250           2.094
  22360983.644    -6003604.384 7  -4678126.91822        20.500           1.656
  22909865.347    -3451812.439 6  -2689720.29921        18.250           1.063
  23506094.823    -2908502.389 6  -2071862.80321        12.000           0.469
  23773441.284    -3374252.424 5  -2399950.77121         9.000           0.250
 91  5 29 18 10 59.9990000  0  6G18G19G 2G11G16G 6
  21589854.917     3460153.395 7   2696218.43022        24.750           2.156
  20635319.542     -310564.710 6   -241999.18322        19.000           2.156
  22352595.870    -6047675.857 7  -4712468.28022        20.000           1.500
  22906241.370    -3470855.858 6  -2704559.31421        17.750           1.000
  23503310.784    -2923155.383 6  -2083280.72821        12.250           0.500
  23765813.097    -3414374.339 5  -2431214.55321         8.250           0.281
 91  5 29 18 11 14.9990000  0  6G18G19G 2G11G16G 6
  21596373.323     3494413.822 7   2722914.81622        24.500           2.219
  20635586.284     -309157.214 7   -240902.43722        20.000           2.063
  22344223.425    -6091667.071 7  -4746747.10422        20.000           1.594
  22902645.745    -3489743.067 6  -2719276.60321        17.750           1.031
  23500548.589    -2937659.244 5  -2094582.45721        11.750           0.406
  23758177.644    -3454467.951 5  -2462456.28821         7.750           0.219
 91  5 29 18 11 29.9990000  0  6G18G19G 2G11G16G 6
  21602910.651     3528774.590 7   2749689.38922        23.750           2.031
  20635871.089     -307683.827 6   -239754.34322        18.500           2.031
  22335867.206    -6135580.082 6  -4780964.99521        19.750           1.469
  22899081.456    -3508475.989 6  -2733873.66721        18.000           0.969
  23497815.073    -2952016.140 6  -2105769.66621        12.000           0.313
  23750556.776    -3494535.220 5  -2493677.48921         9.000           0.219
 91  5 29 18 11 44.9990000  0  6G18G19G 2G11G16G 6
  21609469.495     3563230.928 7   2776538.42522        24.000           2.125
  20636159.573     -306149.033 7   -238558.40622        20.250           2.125
  22327525.370    -6179419.160 7  -4815125.27022        20.000           1.500
  22895545.644    -3527058.740 6  -2748353.72521        17.750           1.000
  23495106.909    -2966230.052 5  -2116845.46021        11.500           0.406
  23742934.136    -3534580.543 5  -2524881.61021         8.750           0.219
 91  5 29 18 11 59.9990000  0  6G18G19G 2G11G16G 6
  21616042.183     3597788.136 7   2803466.06522        23.000           2.156
  20636464.761     -304547.651 6   -237310.58322        19.500           2.156
  22319197.698    -6223179.109 7  -4849223.87222        20.250           1.531
  22892038.862    -3545486.280 6  -2762712.82621        17.250           0.875
  23492436.214    -2980295.919 6  -2127805.87121        12.500           0.406
  23735321.026    -3574598.950 5  -2556064.75821         9.750           0.281
 91  5 29 18 12 14.9990000  0  6G18G19G 2G11G16G 6
  21622640.480     3632447.716 7   2830473.46622        23.250           2.125
  20636782.722     -302877.813 7   -236009.41622        20.500           2.094
  22310887.519    -6266857.826 7  -4883259.19222        20.250           1.625
  22888562.581    -3563756.539 6  -2776949.38321        17.500           0.938
  23489784.230    -2994212.218 5  -2138649.76221        11.250           0.406
  23727705.253    -3614588.590 5  -2587225.47321         9.500           0.313
 91  5 29 18 12 29.9990000  0  6G18G19G 2G11G16G 6
  21629253.198     3667205.577 7   2857557.45322        23.500           2.125
  20637114.448     -301143.288 6   -234657.84922        19.500           2.094
  22302587.605    -6310459.100 7  -4917234.16422        20.250           1.750
  22885115.480    -3581873.071 6  -2791066.14821        17.500           0.969
  23487161.433    -3007982.388 5  -2149379.76621        11.500           0.344
  23720103.862    -3654553.358 5  -2618366.81921         9.000           0.281
 91  5 29 18 12 44.9990000  0  6G18G19G 2G11G16G 6
  21635885.823     3702058.752 7   2884715.71222        23.750           2.063
  20637454.511     -299346.821 7   -233258.01022        20.250           2.156
  22294307.214    -6353985.685 7  -4951150.92222        21.000           1.688
  22881693.097    -3599838.433 6  -2805065.11621        17.500           1.000
  23484571.847    -3021609.191 5  -2159998.07521        11.000           0.531
  23712507.448    -3694495.932 5  -2649490.88421         8.500           0.281
 91  5 29 18 12 59.9990000  0  6G18G19G 2G11G16G 6
  21642539.276     3737011.941 7   2911951.90222        24.500           1.938
  20637811.331     -297483.291 6   -231805.91622        19.750           2.000
  22286037.292    -6397432.436 6  -4985005.49722        19.750           1.594
  22878305.448    -3617647.385 6  -2818942.20421        18.250           1.094
  23482014.901    -3035087.782 6  -2170500.88921        12.000           0.406
  23704911.097    -3734411.456 5  -2680593.85521         8.250           0.344
 91  5 29 18 13 14.9990000  0  6G18G19G 2G11G16G 6
  21649206.808     3772055.924 7   2939258.84222        24.000           1.938
  20638172.776     -295561.918 7   -230308.75222        20.000           2.031
  22277784.237    -6440808.422 7  -5018804.92121        20.250           1.438
  22874945.933    -3635308.990 6  -2832704.48021        18.750           1.031
  23479465.636    -3048427.308 5  -2180895.35321        11.250           0.438
  23697305.245    -3774309.011 5  -2711682.82221         7.500           0.281
 91  5 29 18 13 29.9990000  0  6G18G19G 2G11G16G 6
  21655892.987     3807197.132 7   2966641.54722        23.250           1.781
  20638556.245     -293575.980 6   -228761.26722        18.500           2.063
  22269545.948    -6484106.935 7  -5052543.98022        20.000           1.500
  22871617.206    -3652816.586 6  -2846346.74121        19.500           0.969
  23476955.698    -3061621.359 5  -2191176.43521        11.000           0.438
  23689727.128    -3814182.150 5  -2742752.76321         8.750           0.188
 91  5 29 18 13 44.9990000  0  6G18G19G 2G11G16G 6
  21662601.417     3842433.802 7   2994098.62722        23.750           1.938
  20638941.753     -291527.146 6   -227164.78122        19.750           2.063
  22261322.237    -6527329.327 7  -5086223.72121        21.000           1.469
  22868313.370    -3670171.363 6  -2859869.93421        18.750           1.031
  23474474.605    -3074671.010 5  -2201344.99721        11.250           0.406
  23682142.464    -3854032.161 5  -2773804.69421         9.250           0.344
 91  5 29 18 13 59.9990000  0  6G18G19G 2G11G16G 6
  21669322.745     3877770.200 7   3021633.42722        23.250           1.844
  20639348.878     -289410.957 6   -225515.80922        18.750           2.063
  22253110.698    -6570470.842 7  -5119840.45722        21.000           1.500
  22865041.386    -3687368.772 6  -2873270.49021        19.000           1.156
  23472015.683    -3087572.021 5  -2211397.77121        10.000           0.281
  23674567.980    -3893854.721 5  -2804835.22121        10.750           0.375
 91  5 29 18 14 14.9990000  0  6G18G19G 2G11G16G 6
  21676065.300     3913204.202 7   3049244.27822        23.000           1.875
  20639759.409     -287229.290 6   -223815.81922        19.500           2.125
  22244915.073    -6613533.672 7  -5153395.87522        20.500           1.531
  22861796.980    -3704410.687 6  -2886549.88721        19.000           1.156
  23469591.261    -3100326.454 5  -2221336.29521        10.250           0.344
  23666992.776    -3933651.924 5  -2835846.01421        10.500           0.313
 91  5 29 18 14 29.9990000  0  6G18G19G 2G11G16G 6
  21682826.284     3948728.602 7   3076925.57322        23.000           1.906
  20640188.026     -284988.812 6   -222069.99522        19.250           1.969
  22236734.448    -6656524.414 7  -5186895.11721        21.000           1.469
  22858583.386    -3721303.656 6  -2899713.21721        19.000           1.063
  23467192.558    -3112941.097 5  -2231165.89921        10.750           0.438
  23659424.019    -3973430.594 5  -2866842.31621        10.500           0.469
 91  5 29 18 14 44.9990000  0  6G18G19G 2G11G16G 6
  21689604.753     3984349.136 7   3104681.76822        23.250           1.906
  20640624.206     -282683.388 7   -220273.57322        20.000           2.125
  22228567.237    -6699436.881 7  -5220333.37022        20.250           1.594
  22855395.823    -3738041.357 6  -2912755.57021        18.000           1.094
  23464820.105    -3125409.845 5  -2240881.83021        11.250           0.375
  23651854.972    -4013184.585 5  -2897819.42621         9.750           0.375
 91  5 29 18 14 59.9990000  0  6G18G19G 2G11G16G 6
  21696403.112     4020070.881 7   3132516.82622        23.750           1.906
  20641079.151     -280308.196 6   -218422.78422        18.750           2.063
  22220418.417    -6742266.129 7  -5253706.76222        20.750           1.656
  22852243.769    -3754618.765 6  -2925673.00921        18.500           1.000
  23462476.433    -3137727.513 5  -2250480.03121        11.000           0.375
  23644298.597    -4052908.981 5  -2928773.45221         9.250           0.344
 91  5 29 18 15 14.9990000  0  6G18G19G 2G11G16G 6
  21703217.089     4055883.179 7   3160422.46122        23.500           1.969
  20641539.284     -277873.759 6   -216525.82822        19.500           2.094
  22212283.003    -6785022.539 7  -5287023.41222        21.000           1.844
  22849117.292    -3771046.216 6  -2938473.60321        18.250           1.125
  23460156.019    -3149904.866 5  -2259968.89721        10.500           0.406
  23636743.284    -4092614.388 5  -2959712.70821         9.750           0.344
 91  5 29 18 15 29.9990000  0  6G18G19G 2G11G16G 6
  21710049.065     4091787.997 7   3188400.18422        22.750           1.906
  20642015.964     -275377.764 6   -214580.90622        19.000           2.125
  22204162.573    -6827703.675 7  -5320281.39222        22.000           1.938
  22846022.855    -3787321.300 6  -2951155.47121        19.250           0.938
  23457866.011    -3161939.894 5  -2269346.85221        10.500           0.281
  23629180.480    -4132298.625 5  -2990635.45121         7.750           0.344
 91  5 29 18 15 44.9990000  0  6G18G19G 2G11G16G 6
  21716900.448     4127787.503 7   3216451.67622        22.500           1.906
  20642502.581     -272817.826 7   -212586.15722        20.250           2.125
  22196053.042    -6870307.099 7  -5353478.82722        20.750           1.906
  22842953.511    -3803441.596 6  -2963716.72121        18.750           0.938
  23455606.026    -3173829.888 5  -2278611.81321        10.500           0.406
  23621644.901    -4171959.253 5  -3021539.77521         9.500           0.281
 91  5 29 18 15 59.9990000  0  6G18G19G 2G11G16G 6
  21723767.237     4163881.867 7   3244577.09722        22.000           1.938
  20643002.925     -270192.880 6   -210540.75522        19.500           2.156
  22187960.456    -6912831.978 7  -5386615.04222        21.000           2.000
  22839913.831    -3819405.980 6  -2976156.48421        18.500           0.969
  23453371.261    -3185573.988 5  -2287763.06921        10.250           0.500
  23614101.128    -4211595.518 5  -3052425.14321         9.250           0.313
 91  5 29 18 16 14.9990000  0  6G18G19G 2G11G16G 6
  21730656.034     4200072.596 7   3272777.59222        22.750           1.719
  20643513.519     -267501.512 7   -208443.59222        20.000           2.188
  22179881.886    -6955276.854 7  -5419688.93022        20.250           1.938
  22836906.339    -3835212.825 6  -2988473.49521        18.500           0.938
  23451166.003    -3197170.884 5  -2296799.62621        10.500           0.375
  23606563.206    -4251205.968 5  -3083290.41721        10.000           0.281
 91  5 29 18 16 29.9990000  0  6G18G19G 2G11G16G 6
  21737562.425     4236357.954 7   3301051.82922        23.250           1.875
  20644039.722     -264745.419 6   -206295.99222        19.500           2.219
  22171822.659    -6997643.133 7  -5452701.56822        21.000           1.781
  22833929.089    -3850863.758 6  -3000669.00521        19.000           0.969
  23448981.136    -3208622.155 5  -2305722.70721         9.500           0.406
  23599034.792    -4290792.273 5  -3114136.85521         9.500           0.375
 91  5 29 18 16 44.9990000  0  6G18G19G 2G11G16G 6
  21744486.097     4272739.519 7   3329401.03022        24.000           2.000
  20644576.753     -261922.644 7   -204096.43522        20.250           2.250
  22163772.683    -7039928.521 7  -5485651.19422        20.000           1.656
  22830979.167    -3866356.587 6  -3012741.32321        18.500           0.938
  23446829.894    -3219926.047 5  -2314530.98421         9.000           0.406
  23591503.745    -4330352.446 5  -3144962.92021         9.250           0.438
 91  5 29 18 16 59.9990000  0  6G18G19G 2G11G16G 6
  21751425.292     4309213.062 7   3357821.90922        23.250           1.875
  20645125.987     -259037.546 6   -201848.31222        19.500           2.188
  22155742.417    -7082137.391 7  -5518541.17322        20.750           1.625
  22828062.089    -3881695.419 6  -3024693.64321        19.000           0.969
  23444713.183    -3231086.509 5  -2323227.42721         9.250           0.406
  23583976.558    -4369890.815 5  -3175771.99521         9.250           0.406
 91  5 29 18 17 14.9990000  0  6G18G19G 2G11G16G 6
  21758382.331     4345781.715 7   3386316.90322        22.500           1.969
  20645684.745     -256086.694 7   -199548.95622        20.000           2.156
  22147723.503    -7124266.221 7  -5551368.80322        20.750           1.688
  22825171.034    -3896876.638 6  -3036523.14121        19.250           0.938
  23442611.675    -3242100.361 5  -2331809.65721         9.000           0.406
  23576460.487    -4409403.964 5  -3206561.44421        10.250           0.375
 91  5 29 18 17 29.9990000  0  6G18G19G 2G11G16G 6
  21765359.323     4382440.126 7   3414881.83422        22.500           2.000
  20646259.331     -253075.321 6   -197202.43822        19.000           2.125
  22139724.964    -7166320.411 7  -5584138.26522        22.500           1.688
  22822315.909    -3911905.484 6  -3048233.91021        19.250           1.156
  23440544.917    -3252973.004 5  -2340281.86921         9.750           0.313
  23568945.151    -4448897.237 5  -3237335.37421        10.000           0.531
 91  5 29 18 17 44.9990000  0  6G18G19G 2G11G16G 6
  21772354.605     4419189.534 7   3443517.66822        22.250           1.906
  20646841.808     -250001.649 7   -194807.37722        20.000           2.125
  22131735.948    -7208298.073 7  -5616848.10822        22.500           1.719
  22819483.503    -3926780.199 6  -3059824.57921        18.500           1.000
  23438502.214    -3263702.906 5  -2348642.83121         9.500           0.438
  23561430.253    -4488369.024 5  -3268092.57621        10.250           0.500
 91  5 29 18 17 59.9990000  0  6G18G19G 2G11G16G 6
  21779364.495     4456033.053 7   3472226.83622        22.500           1.938
  20647444.073     -246862.078 7   -192360.96422        20.000           2.156
  22123763.222    -7250195.418 7  -5649495.35022        22.250           1.813
  22816678.784    -3941497.038 6  -3071292.23821        17.750           1.031
  23436490.722    -3274286.429 5  -2356889.76821        10.250           0.500
  23553927.128    -4527815.730 5  -3298830.25321         9.500           0.469
 91  5 29 18 18 14.9990000  0  6G18G19G 2G11G16G 6
  21786392.651     4492968.614 7   3501007.72122        22.750           1.781
  20648048.948     -243658.567 6   -189864.72722        19.750           2.031
  22115802.839    -7292014.494 7  -5682081.60722        20.250           1.969
  22813912.206    -3956057.833 6  -3082638.29621        18.750           1.094
  23434499.612    -3284725.434 5  -2365024.06521         9.500           0.531
  23546424.573    -4567239.481 5  -3329550.01921        10.000           0.500
 91  5 29 18 18 29.9990000  0  6G18G19G 2G11G16G 6
  21793440.214     4529994.750 7   3529859.19322        23.000           1.906
  20648676.073     -240392.465 6   -187319.72222        19.250           2.094
  22107863.597    -7333756.530 7  -5714607.81922        21.500           1.813
  22811169.175    -3970463.751 6  -3093863.67421        18.250           1.156
  23432542.550    -3295020.959 5  -2373046.56621         9.750           0.406
  23538930.331    -4606641.521 5  -3360252.85721         9.750           0.563
 91  5 29 18 18 44.9990000  0  6G18G19G 2G11G16G 6
  21800500.651     4567107.111 7   3558777.84822        22.750           1.750
  20649305.237     -237067.776 7   -184729.06222        20.000           2.063
  22099933.230    -7375425.509 7  -5747077.11622        21.750           1.875
  22808457.917    -3984718.656 6  -3104971.37921        18.250           1.250
  23430611.230    -3305177.470 5  -2380960.74021         9.750           0.563
  23531430.519    -4646025.904 5  -3390941.95821        10.000           0.500
 91  5 29 18 18 59.9990000  0  6G18G19G 2G11G16G 6
  21807580.511     4604313.145 7   3587769.49822        22.250           1.906
  20649952.065     -233676.933 6   -182086.84922        19.250           1.969
  22092016.394    -7417013.722 7  -5779483.47922        21.500           1.938
  22805774.815    -3998814.853 6  -3115955.42121        18.500           1.125
  23428706.487    -3315187.296 5  -2388760.62421        10.000           0.531
  23523942.261    -4685385.029 5  -3421611.36321         9.750           0.500
 91  5 29 18 19 14.9990000  0  6G18G19G 2G11G16G 6
  21814679.534     4641610.186 7   3616832.05922        22.000           1.719
  20650609.355     -230222.523 7   -179395.11522        20.000           2.063
  22084121.245    -7458523.487 7  -5811828.71522        22.250           1.969
  22803120.683    -4012754.820 6  -3126817.72221        18.000           1.031
  23426828.214    -3325053.250 5  -2396448.39421         9.750           0.531
  23516451.448    -4724721.626 5  -3452263.21821         9.000           0.531
 91  5 29 18 19 29.9990000  0  6G18G19G 2G11G16G 6
  21821793.401     4678994.076 7   3645962.29522        22.250           1.875
  20651280.925     -226708.137 6   -176656.63622        18.750           2.125
  22076232.511    -7499958.527 7  -5844115.73322        21.750           2.000
  22800499.323    -4026542.080 6  -3137561.03321        18.500           1.031
  23424976.667    -3334778.927 5  -2404026.86121        10.000           0.531
  23508974.761    -4764039.334 5  -3482900.35321         9.500           0.344
 91  5 29 18 19 44.9990000  0  6G18G19G 2G11G16G 6
  21828927.019     4716471.585 7   3675165.48022        22.500           1.906
  20651956.995     -223126.905 6   -173866.07722        19.750           2.063
  22068365.558    -7541311.852 7  -5876339.06722        21.000           2.000
  22797904.831    -4040169.445 6  -3148179.74621        18.500           1.063
  23423152.558    -3344357.305 5  -2411490.55621         9.750           0.531
  23501495.690    -4803331.229 5  -3513517.39021         9.750           0.375
 91  5 29 18 19 59.9990000  0  6G18G19G 2G11G16G 6
  21836075.847     4754044.351 7   3704442.88522        22.500           1.875
  20652655.089     -219477.006 6   -171022.00722        19.750           2.031
  22060507.534    -7582581.727 6  -5908497.36922        19.500           2.000
  22795342.925    -4053635.197 6  -3158672.52221        19.500           1.063
  23421360.995    -3353786.638 5  -2418838.11621        10.000           0.594
  23494026.159    -4842595.550 5  -3544112.94921        10.500           0.531
 91  5 29 18 20 14.9990000  0  6G18G19G 2G11G16G 6
  21843241.347     4791705.452 7   3733789.13322        22.250           1.844
  20653357.987     -215764.874 6   -168129.44222        19.500           2.156
  22052672.823    -7623774.537 7  -5940595.61522        21.500           2.000
  22792811.362    -4066945.783 6  -3169044.38721        19.250           1.000
  23419592.401    -3363073.814 5  -2426074.89421         9.750           0.500
  23486559.409    -4881838.943 5  -3574692.18021        11.000           0.406
 91  5 29 18 20 29.9990000  0  6G18G19G 2G11G16G 6
  21850424.800     4829459.775 7   3763208.02522        21.750           1.719
  20654079.534     -211985.515 6   -165184.49622        19.000           2.031
  22044849.823    -7664885.177 7  -5972629.84622        23.000           1.781
  22790307.112    -4080095.897 6  -3179291.21821        19.250           1.063
  23417852.433    -3372213.628 5  -2433196.83821        10.000           0.531
  23479096.886    -4921056.366 5  -3605251.18421        10.500           0.531
 91  5 29 18 20 44.9990000  0  6G18G19G 2G11G16G 6
  21857628.628     4867306.153 7   3792698.64622        22.500           1.688
  20654808.159     -208139.655 6   -162187.72922        19.250           2.125
  22037041.003    -7705914.428 7  -6004600.66422        23.250           1.781
  22787836.425    -4093086.401 6  -3189413.67421        19.750           1.031
  23416139.253    -3381207.072 5  -2440204.75121         9.000           0.531
  23471636.222    -4960248.779 5  -3635790.69821        10.000           0.469
 91  5 29 18 20 59.9990000  0  6G18G19G 2G11G16G 6
  21864847.433     4905240.674 7   3822257.93622        21.750           1.656
  20655554.081     -204231.209 6   -159142.19922        19.000           2.125
  22029250.784    -7746866.065 7  -6036511.00622        23.500           1.750
  22785395.800    -4105921.076 6  -3199414.69821        19.750           1.125
  23414456.550    -3390057.971 5  -2447101.55121         9.500           0.500
  23464182.050    -4999419.978 5  -3666313.67421        10.500           0.438
 91  5 29 18 21 14.9990000  0  6G18G19G 2G11G16G 6
  21872082.019     4943263.374 7   3851885.94722        21.250           1.500
  20656308.370     -200259.745 6   -156047.56322        19.500           2.031
  22021470.308    -7787739.583 7  -6068360.47122        22.750           1.781
  22782980.558    -4118599.177 6  -3209293.72621        19.500           1.156
  23412805.425    -3398765.953 5  -2453887.04121        10.500           0.469
  23456733.706    -5038569.541 5  -3696819.78821        11.000           0.500
 91  5 29 18 21 29.9990000  0  6G18G19G 2G11G16G 6
  21879333.401     4981375.263 7   3881583.45122        20.750           1.531
  20657077.948     -196223.879 6   -152902.74022        19.750           2.125
  22013709.284    -7828533.702 7  -6100148.06922        22.500           1.813
  22780598.862    -4131119.517 7  -3219049.82021        20.000           1.000
  23411170.339    -3407329.929 5  -2460560.27821        10.000           0.594
  23449282.151    -5077696.382 5  -3727308.20321        10.000           0.438
 91  5 29 18 21 44.9990000  0  6G18G19G 2G11G16G 6
  21886603.776     5019579.854 7   3911353.18922        21.000           1.656
  20657858.409     -192120.042 6   -149704.95622        19.750           2.094
  22005959.776    -7869244.698 7  -6131870.89222        21.500           1.781
  22778247.386    -4143478.290 7  -3228680.01721        20.000           1.000
  23409575.542    -3415746.058 5  -2467118.32621        11.000           0.594
  23441844.503    -5116796.735 5  -3757775.98421         9.750           0.500
 91  5 29 18 21 59.9990000  0  6G18G19G 2G11G16G 6
  21893890.503     5057871.924 7   3941191.10122        21.250           1.563
  20658656.597     -187953.277 6   -146458.13522        18.750           2.125
  21998227.167    -7909877.399 7  -6163532.69922        21.250           2.031
  22775923.308    -4155680.435 6  -3238188.17921        19.250           1.031
  23407993.698    -3424019.348 5  -2473565.06321        10.000           0.406
  23434408.425    -5155875.647 5  -3788227.04821        10.500           0.531
 91  5 29 18 22 14.9990000  0  6G18G19G 2G11G16G 6
  21901195.737     5096252.538 7   3971098.00122        21.000           1.656
  20659455.120     -183722.001 6   -143161.05022        19.250           2.094
  21990512.401    -7950430.291 7  -6195132.32722        22.500           2.063
  22773629.253    -4167724.392 6  -3247573.07121        18.500           1.094
  23406447.573    -3432148.655 5  -2479899.60621        10.750           0.375
  23426977.847    -5194931.771 5  -3818660.38021        11.250           0.438
 91  5 29 18 22 29.9990000  0  6G18G19G 2G11G16G 6
  21908515.894     5134721.206 7   4001073.51422        21.250           1.719
  20660277.948     -179426.689 6   -139814.06722        19.250           2.125
  21982813.136    -7990903.561 7  -6226669.90922        22.500           1.875
  22771369.526    -4179610.570 6  -3256835.01721        18.500           1.250
  23404925.730    -3440134.763 5  -2486122.56621        10.750           0.438
  23419549.065    -5233965.454 5  -3849076.18821        11.000           0.406
 91  5 29 18 22 44.9990000  0  6G18G19G 2G11G16G 6
  21915851.972     5173274.177 7   4031114.72722        21.000           1.531
  20661103.714     -175070.706 6   -136419.80822        19.750           2.094
  21975124.292    -8031300.648 7  -6258148.12822        22.750           2.250
  22769137.737    -4191342.171 6  -3265976.51021        18.500           1.344
  23403442.464    -3447980.877 6  -2492236.43621        12.250           0.531
  23412127.011    -5272980.246 5  -3879477.29321        11.250           0.406
 91  5 29 18 22 59.9990000  0  6G18G19G 2G11G16G 6
  21923205.667     5211915.800 7   4061225.01422        21.750           1.594
  20661949.683     -170649.332 6   -132974.59322        19.000           2.031
  21967451.120    -8071617.027 7  -6289563.46122        21.500           2.188
  22766934.628    -4202914.283 6  -3274993.73321        18.500           1.219
  23401972.151    -3455682.192 5  -2498237.47721        11.750           0.406
  23404709.206    -5311971.335 5  -3909859.91821        10.500           0.438
 91  5 29 18 23 14.9990000  0  6G18G19G 2G11G16G 6
  21930577.620     5250648.115 7   4091405.96122        22.000           1.500
  20662799.425     -166160.607 7   -129476.89822        20.250           2.125
  21959792.456    -8111850.463 7  -6320914.15322        20.750           2.094
  22764759.269    -4214324.955 6  -3283885.16721        18.250           1.188
  23400533.972    -3463236.799 6  -2504124.22121        12.000           0.563
  23397294.503    -5350936.919 5  -3940222.67721        11.000           0.375
 91  5 29 18 23 29.9990000  0  6G18G19G 2G11G16G 6
  21937963.753     5289466.769 7   4121654.19622        21.500           1.500
  20663668.401     -161608.419 6   -125929.74922        19.500           2.156
  21952152.003    -8152004.942 7  -6352203.32122        21.000           2.063
  22762621.183    -4225578.156 6  -3292653.89121        18.750           1.219
  23399123.948    -3470648.700 6  -2509899.74921        12.250           0.406
  23389883.612    -5389880.848 5  -3970568.57621        10.250           0.500
 91  5 29 18 23 44.9990000  0  6G18G19G 2G11G16G 6
  21945365.651     5328370.241 7   4151968.50722        21.000           1.500
  20664542.558     -156994.107 7   -122334.19322        20.000           2.125
  21944526.980    -8192081.678 7  -6383431.90922        21.750           2.031
  22760509.901    -4236674.976 6  -3301300.75221        19.500           1.125
  23397742.159    -3477919.160 6  -2515565.06121        12.250           0.406
  23382474.659    -5428804.511 5  -4000898.66221        10.500           0.313
 91  5 29 18 23 59.9990000  0  6G18G19G 2G11G16G 6
  21952786.472     5367358.530 7   4182348.92621        21.250           1.438
  20665438.417     -152317.365 6   -118689.99622        18.500           2.250
  21936915.659    -8232080.176 7  -6414599.54122        22.750           1.906
  22758427.917    -4247614.915 6  -3309825.37121        19.250           1.250
  23396383.800    -3485048.134 6  -2521120.11121        12.000           0.406
  23375071.433    -5467707.523 5  -4031212.67521         9.750           0.563
 91  5 29 18 24 14.9990000  0  6G18G19G 2G11G16G 6
  21960220.112     5406431.382 7   4212795.23021        20.500           1.375
  20666333.605     -147578.279 6   -114997.21322        19.750           2.125
  21929318.792    -8272000.425 7  -6445706.20622        24.000           1.906
  22756376.081    -4258398.049 6  -3318227.80221        19.000           1.125
  23395055.151    -3492035.861 6  -2526565.11321        12.000           0.469
  23367675.089    -5506590.086 5  -4061510.71821        10.250           0.469
 91  5 29 18 24 29.9990000  0  6G18G19G 2G11G16G 6
  21967672.042     5445588.504 7   4243307.20022        21.250           1.563
  20667249.597     -142776.988 6   -111255.96122        19.000           2.063
  21921738.026    -8311842.660 7  -6476752.08622        23.750           2.000
  22754351.636    -4269024.477 6  -3326508.12021        18.500           1.156
  23393749.589    -3498882.454 5  -2531900.15221        11.500           0.531
  23360277.175    -5545452.464 5  -4091793.06321        11.000           0.469
 91  5 29 18 24 44.9990000  0  6G18G19G 2G11G16G 6
  21975138.261     5484830.011 7   4273884.92122        20.500           1.500
  20668171.409     -137912.713 6   -107465.62622        19.500           2.094
  21914170.487    -8351606.061 7  -6507736.51822        23.500           2.000
  22752362.019    -4279493.552 6  -3334665.83121        19.000           0.969
  23392476.644    -3505587.243 5  -2537124.68721        11.750           0.563
  23352884.065    -5584293.997 5  -4122059.15321        10.000           0.531
 91  5 29 18 24 59.9990000  0  6G18G19G 2G11G16G 6
  21982622.472     5524157.668 7   4304529.78022        20.750           1.625
  20669114.526     -132983.511 6   -103624.70322        19.000           2.156
  21906616.933    -8391288.717 7  -6538658.04122        22.250           2.188
  22750399.644    -4289803.258 6  -3342699.37021        19.250           0.906
  23391228.487    -3512148.731 6  -2542237.56121        12.250           0.688
  23345498.011    -5623112.887 5  -4152307.59921        10.000           0.531
 91  5 29 18 25 14.9990000  0  6G18G19G 2G11G16G 6
  21990123.081     5563575.539 7   4335244.92622        20.750           1.656
  20670064.151     -127985.038 7    -99729.80522        20.250           2.156
  21899082.878    -8430886.353 7  -6569513.30222        22.750           2.125
  22748469.417    -4299949.113 6  -3350605.22121        19.250           0.969
  23390008.362    -3518562.391 5  -2547235.25021        11.250           0.500
  23338115.011    -5661904.699 5  -4182534.94721         9.500           0.500
 91  5 29 18 25 29.9990000  0  6G18G19G 2G11G16G 6
  21997641.440     5603078.257 7   4366026.19022        20.750           1.719
  20671028.769     -122922.475 6    -95784.96122        19.750           2.125
  21891561.698    -8470403.970 7  -6600306.21522        22.500           2.031
  22746570.261    -4309936.174 6  -3358387.33321        19.250           1.094
  23388812.120    -3524833.530 5  -2552121.86821        11.000           0.500
  23330738.620    -5700674.663 5  -4212745.27121        10.250           0.563
 91  5 29 18 25 44.9990000  0  6G18G19G 2G11G16G 6
  22005175.315     5642668.533 7   4396875.67722        20.500           1.531
  20672004.105     -117792.922 7    -91787.92522        20.500           2.188
  21884058.589    -8509838.507 7  -6631034.38422        22.500           2.156
  22744698.651    -4319761.396 6  -3366043.34221        19.250           1.063
  23387644.589    -3530959.171 5  -2556895.12521        10.750           0.375
  23323364.167    -5739419.780 5  -4242936.22421        10.750           0.500
 91  5 29 18 25 59.9990000  0  6G18G19G 2G11G16G 6
  22012727.261     5682346.401 7   4427793.42122        21.250           1.594
  20672996.659     -112596.067 6    -87738.44322        18.500           2.188
  21876571.573    -8549189.487 7  -6661697.44122        23.250           2.156
  22742857.776    -4329424.500 6  -3373573.03021        18.750           1.094
  23386508.183    -3536939.245 5  -2561554.94521        11.000           0.531
  23315994.089    -5778139.891 5  -4273107.72321        11.000           0.406
 91  5 29 18 26 14.9990000  0  6G18G19G 2G11G16G 6
  22020291.058     5722105.411 7   4458774.40021        20.250           1.406
  20673992.019     -107338.217 7    -83641.43022        20.000           2.125
  21869099.073    -8588463.223 7  -6692300.33522        23.250           2.125
  22741052.917    -4338931.698 6  -3380981.22421        19.000           1.125
  23385396.097    -3542780.318 6  -2566106.44321        12.250           0.563
  23308634.081    -5816841.238 5  -4303264.59321        11.500           0.438
 91  5 29 18 26 29.9990000  0  6G18G19G 2G11G16G 6
  22027875.401     5761954.347 7   4489825.44022        20.750           1.500
  20675010.823     -102010.224 6    -79489.76122        19.000           2.063
  21861639.722    -8627650.767 7  -6722836.05322        22.250           2.156
  22739271.730    -4348273.831 6  -3388260.80921        18.500           1.063
  23384318.855    -3548473.160 6  -2570542.45021        12.750           0.594
  23301271.894    -5855514.883 6  -4333399.87921        12.000           0.406
 91  5 29 18 26 44.9990000  0  6G18G19G 2G11G16G 6
  22035475.151     5801887.563 7   4520942.16122        21.000           1.531
  20676032.081      -96617.374 7    -75287.54622        20.500           2.094
  21854199.464    -8666757.453 7  -6753308.75622        22.500           2.094
  22737526.667    -4357456.147 6  -3395415.85121        18.250           1.156
  23383259.683    -3554023.147 6  -2574867.13321        12.000           0.688
  23293917.394    -5894166.198 6  -4363517.75421        12.000           0.375
 91  5 29 18 26 59.9990000  0  6G18G19G 2G11G16G 6
  22043090.659     5841910.659 7   4552128.91422        20.750           1.594
  20677073.433      -91153.743 6    -71030.18422        19.500           2.125
  21846773.230    -8705777.245 7  -6783713.75822        22.500           2.156
  22735809.651    -4366472.737 6  -3402441.76721        18.500           1.188
  23382228.495    -3559424.643 5  -2579076.11921        11.750           0.625
  23286569.675    -5932789.261 5  -4393613.63721        11.250           0.438
 91  5 29 18 27 14.9990000  0  6G18G19G 2G11G16G 6
  22050721.011     5882011.674 7   4583376.38522        20.000           1.688
  20678123.073      -85631.051 7    -66726.79522        20.000           2.094
  21839361.417    -8744721.863 7  -6814060.18122        22.750           2.219
  22734124.355    -4375335.271 6  -3409347.62621        19.000           1.063
  23381228.237    -3564689.263 5  -2583178.46121        11.750           0.563
  23279222.776    -5971395.847 5  -4423696.67221        11.250           0.531
 91  5 29 18 27 29.9990000  0  6G18G19G 2G11G16G 6
  22058368.605     5922194.529 6   4614687.61722        19.250           1.500
  20679186.120      -80045.024 6    -62374.05822        19.750           2.125
  21831966.230    -8783586.753 7  -6844344.48022        22.750           2.250
  22732468.472    -4384039.241 6  -3416129.93321        19.750           1.125
  23380254.120    -3569812.881 5  -2587170.90721        11.750           0.438
  23271877.612    -6009981.588 5  -4453763.44521        11.000           0.563
 91  5 29 18 27 44.9990000  0  6G18G19G 2G11G16G 6
  22066030.612     5962461.639 6   4646064.49922        18.750           1.594
  20680262.823      -74392.935 7    -57969.84922        20.500           2.094
  21824586.011    -8822368.954 7  -6874564.34522        23.000           2.281
  22730842.753    -4392581.820 6  -3422786.48621        19.750           1.063
  23379304.589    -3574792.581 6  -2591051.21721        12.500           0.438
  23264540.136    -6048543.726 5  -4483811.82921        11.500           0.594
 91  5 29 18 27 59.9990000  0  6G18G19G 2G11G16G 6
  22073707.573     6002811.437 6   4677505.81922        18.500           1.594
  20681350.730      -68676.527 7    -53515.51422        20.000           2.219
  21817223.222    -8861070.399 7  -6904721.27922        23.750           2.406
  22729246.464    -4400964.877 6  -3429318.72921        19.000           1.094
  23378385.409    -3579630.619 6  -2594821.12021        13.000           0.500
  23257206.753    -6087084.182 5  -4513843.31421        11.250           0.563
 91  5 29 18 28 14.9990000  0  6G18G19G 2G11G16G 6
  22081401.784     6043243.835 6   4709011.49322        19.250           1.531
  20682451.245      -62895.471 7    -49010.81122        20.750           2.094
  21809871.487    -8899690.775 7                        22.500
  22727682.136    -4409188.020 6  -3435726.37021        18.750           1.031
  23377495.394    -3584326.878 6  -2598480.55021        12.750           0.563
  23249874.300    -6125602.720 5                        11.500
 91  5 29 18 28 29.9990000  0  6G18G19G 2G11G16G 6
  22089113.980     6083762.611 6   4740584.49522        18.750           1.594
  20683565.386      -57045.680 7    -44452.54922        20.250           2.125
  21802541.042    -8938225.954 7                        23.500
  22726148.323    -4417247.056 6  -3442006.12321        18.750           1.094
  23376627.503    -3588877.079 6  -2602026.19621        12.750           0.594
  23242547.839    -6164095.205 5                         9.500
 91  5 29 18 28 44.9990000  0  6G18G19G 2G11G16G 6
  22096841.237     6124364.940 6   4772222.58121        19.250           1.406
  20684688.792      -51129.569 7    -39842.60522        20.500           2.188
  21795221.480    -8976678.412 7                        23.250
  22724646.534    -4425144.398 6  -3448159.90121        18.750           0.938
  23375788.034    -3593283.965 6  -2605460.16121        12.500           0.531
  23235227.355    -6202564.111 5                         9.500
 91  5 29 18 28 59.9990000  0  6G18G19G 2G11G16G 6
  22104580.995     6165053.551 6   4803927.92621        18.500           1.438
  20685828.425      -45144.180 7    -35178.68522        20.000           2.094
  21787920.995    -9015044.900 7  -7024701.27422        23.750           2.219
  22723177.003    -4432877.074 6  -3454185.35721        19.500           1.094
  23374977.378    -3597544.613 5  -2608780.19621        11.500           0.500
  23227912.769    -6241006.614 5  -4633782.75921         9.750           0.469
 91  5 29 18 29 14.9990000  0  6G18G19G 2G11G16G 6
  22112340.487     6205824.009 6   4835697.02821        18.250           1.344
  20686978.964      -39093.702 7    -30464.03722        20.750           2.063
  21780635.698    -9053329.842 7  -7054533.66522        23.500           2.188
  22721734.706    -4440449.253 6  -3460085.74621        18.750           1.094
  23374193.519    -3601663.586 6  -2611989.80121        12.250           0.563
  23220606.565    -6279426.940 5  -4663720.62921        10.750           0.375
 91  5 29 18 29 29.9990000  0  6G18G19G 2G11G16G 6
  22120114.370     6246674.486 6   4867528.49821        17.250           1.469
  20688143.956      -32979.535 6    -25699.76922        19.750           2.188
  21773365.878    -9091534.450 7  -7084303.45722        23.500           2.219
  22720321.870    -4447862.184 6  -3465862.05121        19.500           1.031
  23373433.550    -3605642.025 5  -2615089.93021        11.500           0.500
  23213298.550    -6317826.404 6  -4693642.28721        12.500           0.563
 91  5 29 18 29 44.9990000  0  6G18G19G 2G11G16G 6
  22127904.230     6287607.115 6   4899423.95721        17.750           1.375
  20689319.105      -26799.429 7    -20884.11622        20.000           2.156
  21766110.511    -9129656.595 7  -7114008.99022        23.000           2.313
  22718945.511    -4455113.796 7  -3471512.64921        20.500           1.188
  23372705.128    -3609478.034 6  -2618079.02821        12.250           0.563
  23205996.597    -6356202.962 6  -4723546.07821        12.750           0.406
 91  5 29 18 29 59.9990000  0  6G18G19G 2G11G16G 6
  22135707.706     6328620.600 6   4931382.44121        18.000           1.469
  20690508.831      -20554.244 6    -16017.74422        19.500           2.156
  21758871.730    -9167697.180 7  -7143650.97222        22.750           2.219
  22717593.651    -4462204.843 7  -3477038.13821        20.000           1.094
  23372003.980    -3613172.433 5  -2620957.80721        11.750           0.531
  23198693.362    -6394557.473 5  -4753432.68221        11.500           0.500
 91  5 29 18 30 14.9990000  0  6G18G19G 2G11G16G 6
  22143526.940     6369711.058 6   4963400.89722        18.500           1.531
  20691707.675      -14247.869 7    -11103.69922        20.250           2.125
  21751649.230    -9205659.826 7  -7173232.22022        22.750           2.313
  22716275.019    -4469139.144 7  -3482441.48221        20.250           1.156
  23371323.276    -3616729.226 5  -2623729.35121        11.250           0.719
  23191401.409    -6432893.762 5  -4783305.08121        11.250           0.469
 91  5 29 18 30 29.9990000  0  6G18G19G 2G11G16G 6
  22151362.909     6410881.388 6   4995481.57821        19.250           1.469
  20692920.636       -7876.880 6     -6139.31522        19.500           2.063
  21744440.073    -9243541.084 7  -7202750.04522        22.750           2.375
  22714986.097    -4475913.342 7  -3487720.07421        20.000           1.188
  23370674.605    -3620145.184 6  -2626391.18921        12.000           0.688
  23184106.870    -6471208.406 5  -4813160.60721        11.000           0.531
 91  5 29 18 30 44.9990000  0  6G18G19G 2G11G16G 6
  22159213.964     6452131.785 6   5027624.66421        19.250           1.406
  20694144.214       -1440.967 6     -1124.33122        19.750           2.281
  21737247.417    -9281340.555 7  -7232204.14922        23.500           2.250
  22713727.870    -4482527.050 6  -3492873.60021        19.500           1.250
  23370050.128    -3623420.141 5  -2628943.12521        11.750           0.563
  23176824.222    -6509501.296 5  -4842999.17821        11.500           0.469
 91  5 29 18 30 59.9990000  0  6G18G19G 2G11G16G 6
  22167078.433     6493463.982 6   5059831.49021        19.000           1.375
  20695386.167        5061.948 6      3942.85822        19.000           2.188
  21730068.558    -9319056.193 7  -7261592.93322        23.000           2.219
  22712499.722    -4488978.117 6  -3497900.41021        19.500           1.250
  23369455.159    -3626551.939 6  -2631383.50921        12.500           0.656
  23169541.808    -6547770.183 5  -4872819.07521        11.250           0.469
 91  5 29 18 31 14.9990000  0  6G18G19G 2G11G16G 6
  22174957.386     6534872.496 6   5092097.78321        18.750           1.281
  20696632.855       11626.494 7      9058.07622        20.250           2.156
  21722907.800    -9356693.394 7  -7290920.59122        23.500           2.219
  22711301.472    -4495271.881 6  -3502804.62621        18.750           1.094
  23368886.065    -3629546.501 6  -2633716.98221        12.750           0.563
  23162258.112    -6586020.634 5  -4902624.60621        11.000           0.563
 91  5 29 18 31 29.9990000  0  6G18G19G 2G11G16G 6
  22182853.112     6576361.440 6   5124426.75221        18.500           1.313
  20697893.901       18257.361 6     14224.96922        19.500           2.219
  21715759.995    -9394247.365 7  -7320183.40022        23.750           2.219
  22710134.347    -4501403.650 6  -3507582.62021        19.250           1.125
  23368340.815    -3632399.137 5  -2635939.83121        11.000           0.563
  23154989.784    -6624248.026 5  -4932412.14721        11.500           0.469
 91  5 29 18 31 44.9990000  0  6G18G19G 2G11G16G 6
  22190764.612     6617932.095 6   5156819.37421        18.250           1.250
  20699168.550       24955.725 7     19444.46422        20.250           2.125
  21708631.644    -9431716.857 7  -7349380.37822        23.750           2.156
  22708998.573    -4507372.376 6  -3512233.57921        19.000           1.000
  23367826.183    -3635108.523 5  -2638051.07221        11.500           0.438
  23147718.847    -6662451.127 5  -4962180.78621        11.500           0.531
 91  5 29 18 31 59.9990000  0  6G18G19G 2G11G16G 6
  22198690.433     6659580.060 6   5189272.25621        18.500           1.313
  20700458.315       31717.666 6     24713.48722        19.000           2.031
  21701516.972    -9469105.687 7  -7378514.50522        24.000           2.094
  22707891.831    -4513181.643 6  -3516760.28021        19.000           1.094
  23367344.628    -3637678.645 5  -2640053.78421        11.750           0.469
  23140450.323    -6700633.765 5  -4991933.46821        11.500           0.656
 91  5 29 18 32 14.9990000  0  6G18G19G 2G11G16G 6
  22206631.901     6701310.797 6   5221789.62621        18.750           1.344
  20701754.183       38548.950 7     30036.54722        20.250           2.125
  21694417.683    -9506408.368 7  -7407581.50622        22.750           2.250
  22706818.800    -4518825.911 6  -3521158.41021        19.250           1.031
  23366880.878    -3640104.141 6  -2641943.82621        12.250           0.563
  23133188.534    -6738790.490 5  -5021665.95621        11.250           0.625
 91  5 29 18 32 29.9990000  0  6G18G19G 2G11G16G 6
  22214586.745     6743119.104 6   5254367.44321        19.250           1.375
  20703066.956       45444.611 6     35409.77322        19.750           2.063
  21687335.065    -9543629.678 7  -7436585.09222        22.750           2.219
  22705774.159    -4524310.233 6  -3525431.90121        19.500           1.125
  23366444.706    -3642390.360 6  -2643725.32121        12.500           0.688
  23125935.847    -6776926.239 5  -5051382.08721        11.250           0.750
 91  5 29 18 32 44.9990000  0  6G18G19G 2G11G16G 6
  22222556.183     6785006.023 6   5287006.52121        19.250           1.250
  20704391.480       52406.121 7     40834.31022        20.000           2.094
  21680267.058    -9580768.091 7  -7465524.08122        23.000           2.313
  22704760.839    -4529633.146 6  -3529579.61821        18.750           1.125
  23366037.378    -3644535.882 6  -2645397.20221        12.000           0.500
  23118681.784    -6815039.586 5  -5081080.77221        11.500           0.719
 91  5 29 18 32 59.9990000  0  6G18G19G 2G11G16G 6
  22230542.878     6826973.162 6   5319708.10221        19.000           1.250
  20705731.628       59435.295 6     46311.57122        19.750           2.063
  21673218.659    -9617821.839 7  -7494397.09822        23.250           2.375
  22703780.667    -4534792.752 6  -3533600.08721        19.500           1.188
  23365650.870    -3646539.003 5  -2646958.10221        11.750           0.594
  23111428.089    -6853128.816 5  -5110760.64721        11.500           0.781
 91  5 29 18 33 14.9990000  0  6G18G19G 2G11G16G 6
  22238544.667     6869022.123 6   5352473.44521        18.750           1.125
  20707080.362       66534.058 7     51843.05722        20.000           2.031
  21666181.183    -9654788.961 7  -7523202.62322        22.500           2.219
  22702830.401    -4539786.988 6  -3537491.69521        19.500           1.156
  23365297.550    -3648397.930 5  -2648406.66221        11.500           0.500
  23104188.730    -6891191.884 6  -5140420.16221        12.000           0.531
 91  5 29 18 33 29.9990000  0  6G18G19G 2G11G16G 6
  22246558.745     6911151.906 6   5385301.75621        17.500           0.969
  20708445.230       73701.693 7     57428.21722        20.000           2.031
  21659162.565    -9691670.168 7  -7551941.20122        22.250           2.188
  22701911.519    -4544616.762 6  -3541255.15221        19.500           1.094
  23364975.644    -3650113.448 6  -2649743.45121        13.000           0.438
  23096955.972    -6929229.755 6  -5170060.05121        12.250           0.594
 91  5 29 18 33 44.9990000  0  6G18G19G 2G11G16G 6
  22254593.675     6953359.332 6   5418190.56821        18.250           1.125
  20709819.370       80935.254 6     63064.73822        19.750           2.031
  21652160.183    -9728468.438 7  -7580615.15022        22.250           2.156
  22701025.050    -4549285.006 7  -3544892.73921        20.000           1.156
  23364676.136    -3651688.731 6  -2650970.95621        13.000           0.438
  23089717.058    -6967245.269 5  -5199682.50421        11.500           0.719
 91  5 29 18 33 59.9990000  0  6G18G19G 2G11G16G 6
  22262639.183     6995644.169 6   5451139.71221        18.500           1.156
  20711210.597       88234.905 7     68752.76622        20.000           2.063
  21645175.823    -9765183.551 7  -7609224.30722        22.750           2.188
  22700165.987    -4553791.507 6  -3548404.29721        19.000           1.063
  23364403.206    -3653123.534 6  -2652089.00821        13.250           0.469
  23082485.886    -7005238.340 5  -5229287.46221        10.750           0.594
 91  5 29 18 34 14.9990000  0  6G18G19G 2G11G16G 6
  22270704.284     7038012.936 6   5484154.24321        19.250           1.125
  20712611.706       95607.372 6     74497.53022        19.750           2.156
  21638206.839    -9801808.750 7  -7637763.40022        24.250           2.125
  22699337.144    -4558129.579 6  -3551784.61221        18.500           1.156
  23364155.276    -3654411.636 5  -2653092.74021        11.250           0.500
  23075257.698    -7043202.280 5  -5258869.70421        11.250           0.656
 91  5 29 18 34 29.9990000  0  6G18G19G 2G11G16G 6
  22278781.464     7080456.541 6   5517227.09421        19.500           1.094
  20714030.526      103043.994 6     80292.28722        18.500           2.156
  21631252.284    -9838352.749 7  -7666239.22922        24.500           2.156
  22698546.698    -4562307.921 6  -3555040.45921        18.750           1.063
  23363931.909    -3655561.910 5  -2653989.10821        11.000           0.469
  23068039.292    -7081145.829 5  -5288436.08521        11.750           0.594
 91  5 29 18 34 44.9990000  0  6G18G19G 2G11G16G 6
  22286872.644     7122976.216 6   5550359.22021        19.750           1.125
  20715453.464      110545.894 6     86137.90322        19.500           2.156
  21624312.620    -9874814.143 7  -7694650.68522        23.250           2.250
  22697781.636    -4566325.063 6  -3558170.69721        19.250           1.094
  23363746.683    -3656572.709 6  -2654776.77621        12.000           0.563
  23060825.573    -7119067.645 6  -5317985.53521        12.250           0.625
 91  5 29 18 34 59.9990000  0  6G18G19G 2G11G16G 6
  22294977.769     7165572.846 6   5583551.31221        19.750           1.125
  20716898.073      118114.333 6     92035.37122        19.500           2.063
  21617389.667    -9911191.784 7  -7722996.88222        22.250           2.281
  22697047.355    -4570179.907 6  -3561174.47121        19.500           1.156
  23363580.964    -3657443.117 6  -2655455.06221        12.000           0.313
  23053613.394    -7156966.624 6  -5347517.16721        12.000           0.563
 91  5 29 18 35 14.9990000  0  6G18G19G 2G11G16G 6
  22303098.745     7208249.209 6   5616805.53721        19.000           1.219
  20718348.972      125752.625 7     97987.27822        20.250           2.125
  21610482.284    -9947482.431 7  -7751275.27622        21.250           2.406
  22696344.323    -4573869.331 6  -3564049.34721        19.250           0.969
  23363441.222    -3658170.265 5  -2656021.68521        11.250           0.469
  23046406.565    -7194839.695 6  -5377028.61321        12.500           0.563
 91  5 29 18 35 29.9990000  0  6G18G19G 2G11G16G 6
  22311234.714     7250999.435 6   5650117.29721        19.250           1.094
  20719819.526      133455.129 6    103989.21022        18.750           2.031
  21603593.472    -9983691.650 7  -7779490.22223        21.500           2.594
  22695672.956    -4577398.960 7  -3566799.70821        20.000           1.000
  23363334.862    -3658760.206 5  -2656481.41121        11.250           0.438
  23039205.042    -7232692.324 6  -5406524.14521        12.250           0.563
 91  5 29 18 35 44.9990000  0  6G18G19G 2G11G16G 6
  22319384.151     7293830.988 6   5683492.45121        18.750           1.219
  20721294.175      141229.422 6    110047.08922        19.750           1.969
  21596719.706   -10019811.750 7  -7807635.72123        22.000           2.563
  22695032.323    -4580761.127 7  -3569419.57321        20.000           1.094
  23363248.183    -3659205.241 5  -2656828.22821        11.500           0.438
  23032002.339    -7270517.021 5  -5435997.91121        11.750           0.656
 91  5 29 18 35 59.9990000  0  6G18G19G 2G11G16G 6
  22327548.534     7336736.416 6   5716925.14121        18.750           1.219
  20722786.480      149068.363 6    116155.33322        19.000           2.063
  21589862.784   -10055849.871 7  -7835717.35023        23.500           2.594
  22694425.519    -4583962.986 7  -3571914.52521        20.000           1.031
  23363181.151    -3659512.443 5  -2657067.66321        10.500           0.438
  23024810.628    -7308320.918 6  -5465455.45721        12.250           0.594
 91  5 29 18 36 14.9990000  0  6G18G19G 2G11G16G 6
  22335731.464     7379725.260 6   5750422.84321        19.000           1.094
  20724290.519      156982.010 6    122321.80322        19.250           2.094
  21583023.886   -10091795.942 7  -7863727.25822        24.500           2.375
  22693845.698    -4586994.522 6  -3574276.75921        19.250           1.031
  23363152.769    -3659672.059 5                        11.500
  23017625.058    -7346094.044 6  -5494889.03421        12.000           0.656
 91  5 29 18 36 29.9990000  0  6G18G19G 2G11G16G 6
  22343925.472     7422789.058 6   5783978.95821        19.000           1.125
  20725814.886      164961.933 6    128539.90622        17.750           2.031
  21576198.550   -10127658.399 7  -7891672.00723        24.250           2.531
  22693300.355    -4589864.056 6  -3576512.75421        19.500           0.906
  23363155.519    -3659692.806 6                        12.750
  23010443.230    -7383844.798 5  -5524305.16921        11.750           0.656
 91  5 29 18 36 44.9990000  0  6G18G19G 2G11G16G 6
  22352134.355     7465930.007 6   5817595.19321        19.000           1.219
  20727343.034      173010.672 6    134811.63922        19.250           1.969
  21569388.745   -10163434.590 7  -7919549.54422        23.000           2.438
  22692786.331    -4592569.172 6  -3578620.63421        19.500           0.969
  23363175.073    -3659572.415 6                        12.500
  23003262.269    -7421570.676 5  -5553701.93421        11.750           0.531
 91  5 29 18 36 59.9990000  0  6G18G19G 2G11G16G 6
  22360358.917     7509147.324 6   5851270.93521        19.250           1.000
  20728887.573      181127.931 6    141136.76222        19.000           2.031
  21562597.542   -10199124.995 7  -7947360.22623        22.250           2.531
  22692302.925    -4595110.384 6  -3580600.80321        19.500           1.094
  23363224.105    -3659311.334 5                        11.500
  22996087.847    -7459272.143 6  -5583079.68021        12.500           0.563
 91  5 29 18 37 14.9990000  0  6G18G19G 2G11G16G 6
  22368595.495     7552440.859 6   5885006.07221        18.500           1.188
  20730443.605      189314.066 7    147515.55322        20.000           1.906
  21555821.855   -10234729.103 7  -7975103.66123        22.250           2.500
  22691851.948    -4597487.239 6  -3582452.89821        19.500           1.063
  23363304.425    -3658909.067 5                        11.250
  22988920.355    -7496948.849 6  -5612438.11121        13.000           0.531
 91  5 29 18 37 29.9990000  0  6G18G19G 2G11G16G 6
  22376848.730     7595806.919 6   5918797.71421        18.500           1.156
  20732016.136      197565.381 6    153945.13522        19.000           1.906
  21549062.511   -10270250.678 7  -8002782.78923        22.250           2.531
  22691428.558    -4599703.454 6  -3584179.81721        19.750           1.063
  23363404.581    -3658369.697 5  -2656177.41921        11.250           0.500
  22981748.534    -7534604.579 6  -5641780.20321        12.750           0.563
 91  5 29 18 37 44.9990000  0  6G18G19G 2G11G16G 6
  22385117.948     7639254.849 6   5952653.14121        17.750           1.156
  20733598.433      205891.226 6    160432.79122        19.750           1.844
  21542320.542   -10305680.344 7  -8030390.29523        23.000           2.594
  22691039.440    -4601749.623 6  -3585774.23821        19.750           1.125
  23363531.183    -3657683.866 5  -2655643.05121        11.250           0.594
  22974593.573    -7572229.941 6  -5671098.63221        13.500           0.563
 91  5 29 18 37 59.9990000  0  6G18G19G 2G11G16G 6
  22393396.565     7682771.865 6   5986562.40021        17.000           1.188
  20735197.886      214279.103 6    166968.78322        19.250           1.938
  21535594.440   -10341030.439 7  -8057935.81023        23.250           2.563
  22690678.862    -4603638.247 6  -3587245.89821        19.500           1.125
  23363689.120    -3656864.342 5  -2655004.48821        11.500           0.563
  22967437.308    -7609837.333 6  -5700403.06721        14.000           0.531
 91  5 29 18 38 14.9990000  0  6G18G19G 2G11G16G 6
  22401695.847     7726366.495 6   6020532.14021        18.000           1.250
  20736803.628      222738.137 6    173560.21822        19.250           1.969
  21528882.784   -10376291.893 7  -8085412.24423        22.500           2.625
  22690351.847    -4605360.309 6  -3588587.77021        19.750           1.188
  23363877.370    -3655902.197 6  -2654254.81421        12.500           0.531
  22960284.667    -7647417.735 6  -5729686.48521        13.750           0.500
 91  5 29 18 38 29.9990000  0  6G18G19G 2G11G16G 6
  22410002.120     7770039.859 6   6054563.24321        17.500           1.250
  20738433.487      231269.698 6    180208.16822        17.500           1.969
  21522191.667   -10411463.482 7  -8112818.65623        23.000           2.594
  22690055.237    -4606914.451 6  -3589798.79521        19.750           1.125
  23364083.448    -3654796.324 6  -2653393.11721        12.000           0.469
  22953134.870    -7684969.914 6  -5758947.89221        13.750           0.500
 91  5 29 18 38 44.9990000  0  6G18G19G 2G11G16G 6
  22418328.370     7813785.673 6   6088650.78421        18.000           1.250
  20740063.769      239867.938 6    186908.08022        19.000           2.063
  21515514.222   -10446550.975 7  -8140159.53023        22.250           2.531
  22689790.620    -4608306.742 6  -3590883.69421        19.750           1.125
  23364317.878    -3653552.749 6  -2652424.12121        12.000           0.500
  22945999.058    -7722499.726 6  -5788191.86721        14.000           0.656
 91  5 29 18 38 59.9990000  0  6G18G19G 2G11G16G 6
  22426667.073     7857605.724 6   6122796.18621        18.000           1.000
  20741715.605      248534.610 6    193661.32722        17.500           2.031
  21508855.081   -10481552.392 7  -8167433.33923        22.500           2.531
  22689557.300    -4609535.185 6  -3591840.92821        19.000           1.125
  23364583.776    -3652169.478 5  -2651346.27121        11.750           0.469
  22938859.339    -7760005.293 6  -5817416.94621        14.000           0.594
 91  5 29 18 39 14.9990000  0  6G18G19G 2G11G16G 6
  22435020.503     7901502.241 6   6157001.17421        17.500           1.156
  20743375.605      257272.262 6    200469.86622        19.000           2.000
  21502210.440   -10516465.518 7  -8194638.35823        22.750           2.531
  22689354.151    -4610597.489 6  -3592668.71221        18.500           1.188
  23364874.417    -3650644.538 5  -2650158.08221        11.750           0.469
  22931728.073    -7797484.330 6  -5846621.35121        14.000           0.594
 91  5 29 18 39 29.9990000  0  6G18G19G 2G11G16G 6
  22443388.519     7945476.492 6   6191266.72021        17.250           1.094
  20745054.909      266082.518 6    207334.98522        18.250           1.969
  21495584.058   -10551288.413 7  -8221773.05623        23.250           2.594
  22689183.480    -4611491.932 6  -3593365.67921        19.000           1.125
  23365185.651    -3648976.581 5  -2648858.41521        11.000           0.500
  22924602.417    -7834934.992 6  -5875803.67121        14.250           0.594
 91  5 29 18 39 44.9990000  0  6G18G19G 2G11G16G 6
  22451769.980     7989527.583 6   6225592.15921        16.500           1.063
  20746743.612      274964.983 6    214256.36822        19.250           1.969
  21488972.378   -10586021.697 7  -8248837.92823        22.250           2.688
  22689045.276    -4612218.961 6  -3593932.19721        19.500           1.094
  23365538.011    -3647165.921 5  -2647447.53821        11.250           0.438
  22917483.245    -7872357.815 6  -5904964.28021        14.500           0.656
 91  5 29 18 39 59.9990000  0  6G18G19G 2G11G16G 6
  22460166.503     8033655.044 6   6259977.08521        15.750           1.125
  20748446.980      283919.133 6    221233.61322        18.000           2.063
  21482381.003   -10620665.720 7  -8275833.24223        22.750           2.750
  22688939.620    -4612779.041 6  -3594368.62721        19.750           1.125
  23365907.386    -3645213.118 6  -2645925.90821        12.250           0.500
  22910364.495    -7909753.413 6  -5934103.68221        14.000           0.625
 91  5 29 18 40 14.9990000  0  6G18G19G 2G11G16G 6
  22468578.667     8077855.113 6   6294418.59521        16.000           1.188
  20750162.964      292941.811 6    228264.24922        19.250           2.063
  21475803.565   -10655223.704 7  -8302761.52123        22.500           2.563
  22688864.159    -4613175.512 6  -3594677.57721        19.250           1.094
  23366306.894    -3643121.970 6  -2644296.47421        12.250           0.469
  22903250.784    -7947124.827 6  -5963224.23421        13.500           0.656
 91  5 29 18 40 29.9990000  0  6G18G19G 2G11G16G 6
  22477002.769     8122127.823 6   6328916.70021        16.000           1.219
  20751895.925      302033.162 6    235348.41122        18.500           2.063
  21469243.815   -10689695.468 7  -8329622.60123        22.250           2.625
  22688817.956    -4613408.246 6  -3594858.92621        19.250           1.094
  23366731.245    -3640892.037 6  -2642558.89421        12.250           0.438
  22896147.987    -7984472.031 6  -5992325.93721        13.750           0.594
 91  5 29 18 40 44.9990000  0  6G18G19G 2G11G16G 6
  22485443.159     8166468.576 6   6363467.83521        16.500           1.156
  20753636.558      311189.081 6    242482.86722        19.250           2.156
  21462700.558   -10724085.117 7  -8356419.70523        23.000           2.531
  22688807.003    -4613481.495 6                        19.500
  23367178.292    -3638528.232 5  -2640717.01121        11.000           0.406
  22889043.214    -8021799.222 6  -6021412.01821        13.000           0.625
 91  5 29 18 40 59.9990000  0  6G18G19G 2G11G16G 6
  22493892.519     8210879.089 6   6398073.32921        16.000           1.156
  20755392.284      320411.499 6    249669.14622        18.500           2.094
  21456173.847   -10758390.775 7  -8383151.36922        24.250           2.406
  22688824.823    -4613393.322 7                        20.250
  23367658.964    -3636028.431 5  -2638769.16721         9.750           0.406
  22881947.526    -8059104.490 6  -6050481.01021        13.750           0.563
 91  5 29 18 41 14.9990000  0  6G18G19G 2G11G16G 6
  22502356.081     8255362.184 6   6432735.37421        15.500           1.125
  20757160.526      329703.463 6    256909.62322        19.250           2.094
  21449661.800   -10792609.338 7  -8409815.16022        24.250           2.469
  22688875.753    -4613140.647 7                        20.250
  23368157.878    -3633389.788 5  -2636713.14021        10.250           0.406
  22874850.745    -8096384.721 6  -6079530.50921        13.750           0.406
 91  5 29 18 41 29.9990000  0  6G18G19G 2G11G16G 6
  22510830.667     8299908.577 6   6467446.74321        15.250           1.156
  20758942.042      339056.150 6    264197.41222        19.000           1.969
  21443165.261   -10826749.647 7  -8436417.98123        23.750           2.563
  22688950.362    -4612732.488 7                        20.250
  23368685.597    -3630621.394 5  -2634555.98121        10.500           0.531
  22867757.112    -8133648.880 6  -6108567.51421        12.500           0.438
 91  5 29 18 41 44.9990000  0  6G18G19G 2G11G16G 6
  22519324.964     8344523.563 6   6502211.55921        15.500           1.125
  20760731.714      348474.925 6    271536.69922        19.500           2.063
  21436684.776   -10860806.151 7  -8462955.49523        23.250           2.688
  22689060.605    -4612163.287 7  -3593888.84821        20.000           1.250
  23369236.222    -3627718.058 5  -2632293.68421        11.250           0.500
  22860671.331    -8170891.504 6  -6137587.72421        12.750           0.594
 91  5 29 18 41 59.9990000  0  6G18G19G 2G11G16G 6
  22527825.089     8389204.467 6   6537027.73821        15.500           1.031
  20762538.261      357957.520 6    278925.71422        18.500           2.000
  21430217.448   -10894781.166 7  -8489429.50223        23.250           2.781
  22689197.862    -4611435.567 6  -3593321.79821        19.750           1.250
  23369810.355    -3624682.412 5  -2629928.27821        10.750           0.438
  22853589.128    -8208114.967 6  -6166592.98521        12.750           0.563
 91  5 29 18 42 14.9990000  0  6G18G19G 2G11G16G 6
  22536340.370     8433947.168 6   6571892.07421        15.750           1.125
  20764353.628      367500.032 6    286361.41722        19.500           2.094
  21423767.651   -10928678.849 7  -8515843.24523        24.000           2.781
  22689362.206    -4610553.412 6  -3592634.41921        18.750           1.219
  23370411.464    -3621518.333 5  -2627462.78821        10.750           0.375
  22846507.042    -8245323.178 6  -6195586.37921        12.500           0.594
 91  5 29 18 42 29.9990000  0  6G18G19G 2G11G16G 6
  22544869.151     8478755.199 6   6606807.31021        15.750           1.094
  20766178.855      377106.660 6    293847.08422        18.250           2.063
  21417332.605   -10962495.000 7  -8542193.47223        24.500           2.719
  22689561.081    -4609512.656 6  -3591823.45021        19.000           1.281
  23371042.355    -3618221.894 5  -2624894.17921        10.750           0.344
  22839427.034    -8282512.090 6  -6224564.68321        12.750           0.531
 91  5 29 18 42 44.9990000  0  6G18G19G 2G11G16G 6
  22553405.839     8523626.160 6   6641771.58221        15.750           0.969
  20768020.636      386774.670 6    301380.58722        19.000           2.000
  21410913.097   -10996232.184 7  -8568482.16323        24.000           2.656
  22689791.659    -4608315.994 6  -3590890.99121        19.750           1.156
  23371690.089    -3614795.940 5  -2622224.65021        10.250           0.344
  22832356.722    -8319684.250 6  -6253529.98121        13.250           0.500
 91  5 29 18 42 59.9990000  0  6G18G19G 2G11G16G 6
  22561957.144     8568563.311 6   6676787.44221        16.000           1.063
  20769872.339      396507.950 6    308964.93822        19.000           2.063
  21404507.948   -11029886.672 7  -8594706.41523        23.750           2.750
  22690047.730    -4606959.582 7  -3589834.04321        20.000           1.219
  23372369.159    -3611236.937 5  -2619451.42821         9.750           0.313
  22825287.050    -8356835.952 6  -6282479.33721        12.750           0.563
 91  5 29 18 43 14.9990000  0  6G18G19G 2G11G16G 6
  22570520.136     8613561.639 6   6711850.97421        15.500           1.000
  20771735.784      406302.009 6    316596.65922        19.500           2.063
  21398118.745   -11063462.828 7  -8620869.62523        23.250           2.656
  22690336.667    -4605447.976 7  -3588656.17321        20.500           1.188
  23373073.675    -3607549.655 5  -2616578.27121        10.250           0.406
  22818217.667    -8393971.690 6  -6311416.27021        12.500           0.406
 91  5 29 18 43 29.9990000  0  6G18G19G 2G11G16G 6
  22579094.940     8658621.401 6   6746962.36721        16.000           1.000
  20773614.690      416157.250 6    324276.04622        18.000           2.094
  21391745.175   -11096960.054 7  -8646971.33423        23.750           2.719
  22690652.628    -4603780.816 7  -3587357.08921        20.500           1.219
  23373805.917    -3603733.472 5  -2613604.67621        10.500           0.344
  22811155.503    -8431091.056 6  -6340340.43421        13.250           0.406
 91  5 29 18 43 44.9990000  0  6G18G19G 2G11G16G 6
  22587682.425     8703746.438 6   6782124.62621        16.000           1.000
  20775499.034      426077.903 6    332006.40822        19.750           2.063
  21385387.823   -11130374.191 7  -8673008.29423        24.000           2.719
  22691002.206    -4601954.006 7  -3585933.59221        20.250           1.156
  23374548.776    -3599784.692 5  -2610527.74321        10.250           0.406
  22804097.120    -8468189.847 6  -6369248.54621        13.500           0.625
 91  5 29 18 43 59.9990000  0  6G18G19G 2G11G16G 6
  22596282.370     8748931.298 6   6817333.50221        16.000           1.031
  20777401.612      436058.844 7    339783.74222        20.000           2.094
  21379043.605   -11163710.494 7  -8698984.60823        24.000           2.594
  22691378.690    -4599972.904 7  -3584389.87421        20.250           1.188
  23375325.909    -3595708.575 5  -2607351.57521         9.750           0.344
  22797037.933    -8505273.217 6  -6398144.64321        13.000           0.438
 91  5 29 18 44 14.9990000  0  6G18G19G 2G11G16G 6
  22604894.878     8794181.306 6   6852593.12421        16.250           0.938
  20779309.636      446105.381 7    347612.19522        20.500           2.094
  21372715.409   -11196963.708 7  -8724896.18023        24.750           2.625
  22691785.558    -4597832.102 6  -3582721.71521        19.500           1.156
  23376130.355    -3591500.136 5  -2604072.32621        10.250           0.344
  22789987.331    -8542335.927 6  -6427024.67421        12.750           0.281
 91  5 29 18 44 29.9990000  0  6G18G19G 2G11G16G 6
  22613513.847     8839496.434 6   6887903.50021        15.000           0.969
  20781238.894      456217.982 6    355492.12722        19.000           2.156
  21366405.042   -11230133.240 7  -8750742.55523        25.500           2.500
  22692224.362    -4595531.226 6  -3580928.83021        19.750           1.188
  23376952.761    -3587158.932 5  -2600689.61021        10.250           0.375
  22782935.800    -8579377.462 6  -6455888.18021        13.250           0.469
 91  5 29 18 44 44.9990000  0  6G18G19G 2G11G16G 6
  22622148.542     8884873.852 6   6923262.40521        14.500           0.875
  20783171.925      466394.091 7    363421.53822        20.250           2.188
  21360106.558   -11263221.752 7  -8776525.79822        25.000           2.469
  22692692.409    -4593072.959 7  -3579013.29221        20.000           1.063
  23377799.995    -3582687.978 5  -2597205.81421        10.500           0.313
  22775893.925    -8616400.371 6  -6484737.17821        13.000           0.500
 91  5 29 18 44 59.9990000  0  6G18G19G 2G11G16G 6
  22630796.894     8930314.252 6   6958670.39221        15.250           0.844
  20785121.456      476634.769 7    371401.27022        20.250           2.156
  21353826.612   -11296228.172 7  -8802245.06623        24.750           2.781
  22693187.909    -4590456.318 6  -3576974.36521        19.250           1.125
  23378682.659    -3578086.431 5  -2593620.20821        11.000           0.406
  22768850.644    -8653403.746 6  -6513570.93721        13.000           0.531
 91  5 29 18 45 14.9990000  0  6G18G19G 2G11G16G 6
  22639455.417     8975813.000 6   6994123.85821        15.250           0.875
  20787079.565      486935.866 7    379428.08622        20.750           2.188
  21347558.495   -11329156.671 7  -8827903.61723        23.750           2.813
  22693713.784    -4587685.680 6  -3574815.42221        18.500           1.188
  23379582.800    -3573358.704 5  -2589936.29621        11.500           0.344
  22761813.972    -8690391.758 6  -6542392.74121        13.500           0.469
 91  5 29 18 45 29.9990000  0  6G18G19G 2G11G16G 6
  22648126.815     9021373.154 6   7029625.16321        15.750           0.781
  20789054.972      497300.353 7    387504.29722        20.250           2.094
  21341307.495   -11362004.191 7  -8853499.06023        23.250           2.813
  22694273.206    -4584757.921 6  -3572534.05621        19.250           1.219
  23380503.386    -3568502.007 5  -2586151.91221        11.000           0.469
  22754779.550    -8727361.450 6  -6571200.29421        13.250           0.594
 91  5 29 18 45 44.9990000  0  6G18G19G 2G11G16G 6
  22656806.753     9066991.025 6   7065171.46121        16.000           0.813
  20791038.769      507724.983 7    395627.35822        20.750           2.188
  21335072.128   -11394774.170 7  -8879034.08023        23.500           2.906
  22694861.276    -4581676.454 7  -3570132.92221        20.250           1.281
  23381453.222    -3563519.405 5  -2582269.40121        11.250           0.438
  22747744.011    -8764316.055 6  -6599996.03521        13.250           0.531
 91  5 29 18 45 59.9990000  0  6G18G19G 2G11G16G 6
  22665498.605     9112670.522 6   7100765.76021        14.750           0.719
  20793035.276      518213.970 7    403800.57922        20.250           2.156
  21328852.620   -11427462.074 7  -8904505.14723        24.250           2.906
  22695471.597    -4578437.194 6  -3567608.82621        19.000           1.156
  23382429.315    -3558407.289 5  -2578285.98021        11.500           0.469
  22740716.003    -8801251.246 6  -6628776.66421        14.000           0.469
 91  5 29 18 46 14.9990000  0  6G18G19G 2G11G16G 6
  22674202.722     9158404.203 6   7136402.26821        15.000           0.906
  20795038.964      528760.165 7    412018.37122        20.250           2.063
  21322644.714   -11460075.232 7  -8929917.97423        24.750           2.813
  22696118.159    -4575047.280 6  -3564967.34021        19.000           1.250
  23383422.651    -3553172.763 6  -2574207.17221        12.000           0.469
  22733687.956    -8838174.317 6  -6657547.86221        13.500           0.469
 91  5 29 18 46 29.9990000  0  6G18G19G 2G11G16G 6
  22682917.425     9204194.776 6   7172083.12621        15.500           0.688
  20797056.190      539366.721 6    420283.21122        19.750           2.156
  21316454.675   -11492610.457 7  -8955270.08223        24.750           2.875
  22696794.190    -4571503.741 6  -3562206.14121        19.750           1.156
  23384446.019    -3547813.041 6  -2570030.81921        12.250           0.500
  22726669.339    -8875082.162 6  -6686307.20521        14.250           0.500
 91  5 29 18 46 44.9990000  0  6G18G19G 2G11G16G 6
  22691642.230     9250047.190 6   7207812.17421        15.000           0.750
  20799087.612      550038.744 6    428599.05122        19.500           2.125
  21310281.144   -11525062.638 7  -8980557.47023        25.500           2.625
  22697499.636    -4567801.571 6  -3559321.32821        19.750           1.219
  23385483.683    -3542323.249 6  -2565753.11621        12.000           0.469
  22719650.089    -8911969.614 6  -6715050.64221        15.000           0.438
 91  5 29 18 46 59.9990000  0  6G18G19G 2G11G16G 6
  22700381.136     9295957.682 6   7243586.46921        15.250           0.813
  20801133.292      560772.674 6    436963.13822        18.250           2.063
  21304118.339   -11557435.334 7  -9005782.93423        25.000           2.594
  22698234.136    -4563944.353 6  -3556315.70621        19.750           1.125
  23386552.995    -3536706.915 5  -2561376.80221        11.500           0.406
  22712632.612    -8948840.208 6  -6743780.96221        14.750           0.469
 91  5 29 18 47 14.9990000  0  6G18G19G 2G11G16G 6
  22709125.933     9341927.611 6   7279407.07521        14.750           0.781
  20803184.105      571570.220 6    445376.78822        19.500           2.156
  21297972.823   -11589726.776 7  -9030945.08023        24.750           2.563
  22698997.175    -4559930.431 6  -3553187.97821        19.750           1.281
  23387650.300    -3530962.912 5  -2556900.99921        11.000           0.438
  22705621.378    -8985692.285 6  -6772496.82921        15.000           0.469
 91  5 29 18 47 29.9990000  0  6G18G19G 2G11G16G 6
  22717886.355     9387952.425 6   7315270.46321        15.000           0.844
  20805253.472      582427.218 6    453836.77522        19.000           2.125
  21291844.690   -11621941.316 7  -9056047.30123        25.750           2.625
  22699790.058    -4555764.109 6  -3549941.50221        19.500           1.219
  23388764.714    -3525095.366 5  -2552328.94221        11.000           0.375
  22698608.433    -9022530.039 6  -6801201.55321        15.000           0.563
 91  5 29 18 47 44.9990000  0  6G18G19G 2G11G16G 6
  22726654.870     9434036.987 6   7351180.39721        14.250           0.813
  20807331.565      593348.933 6    462347.19122        19.750           2.125
  21285729.909   -11654073.604 7  -9081085.43623        25.750           2.750
  22700612.800    -4551440.236 6  -3546572.26321        19.750           1.188
  23389905.323    -3519099.290 5  -2547656.71821        11.000           0.406
  22691602.339    -9059348.269 6  -6829891.05021        14.250           0.500
 91  5 29 18 47 59.9990000  0  6G18G19G 2G11G16G 6
  22735438.253     9480182.724 6   7387137.99021        15.500           0.813
  20809425.050      604337.013 6    470909.31322        18.500           2.031
  21279629.831   -11686121.994 7  -9106058.18923        25.500           2.813
  22701465.714    -4546957.256 6  -3543079.03321        19.250           1.156
  23391071.269    -3512973.180 5  -2542883.17221        11.250           0.438
  22684600.784    -9096145.296 6  -6858564.04821        15.000           0.469
 91  5 29 18 48 14.9990000  0  6G18G19G 2G11G16G 6
  22744226.831     9526383.896 6   7423138.80021        14.250           0.750
  20811521.925      615386.095 7    479518.97022        20.250           2.031
  21273546.495   -11718091.946 7  -9130969.82223        25.250           2.875
  22702347.183    -4542320.652 6  -3539466.08921        18.750           1.125
  23392263.761    -3506722.769 6  -2538012.78621        12.000           0.531
  22677602.261    -9132926.593 6  -6887224.76821        14.750           0.531
 91  5 29 18 48 29.9990000  0  6G18G19G 2G11G16G 6
  22753030.855     9572645.958 6   7459187.04421        14.000           0.719
  20813637.401      626501.820 6    488180.55922        19.250           2.031
  21267479.690   -11749977.790 7  -9155815.91123        25.000           2.906
  22703260.987    -4537524.861 6  -3535729.11321        19.000           1.063
  23393476.870    -3500342.606 6  -2533041.28221        12.250           0.531
  22670604.019    -9169686.551 6  -6915868.85621        15.000           0.438
 91  5 29 18 48 44.9990000  0  6G18G19G 2G11G16G 6
  22761844.526     9618964.508 6   7495279.30321        14.750           0.719
  20815765.581      637680.066 7    496890.86522        20.000           2.063
  21261426.315   -11781783.575 7  -9180599.61323        24.750           2.844
  22704198.128    -4532574.166 6  -3531871.43321        18.250           1.063
  23394718.636    -3493837.166 6  -2527972.15821        12.500           0.563
  22663611.511    -9206429.308 6  -6944499.54421        15.500           0.469
 91  5 29 18 48 59.9990000  0  6G18G19G 2G11G16G 6
  22770667.105     9665336.967 6   7531413.57021        13.500           0.781
  20817908.112      648918.586 6    505648.13522        18.250           2.063
  21255389.472   -11813511.715 7  -9205322.82323        25.250           2.656
  22705174.206    -4527470.988 6  -3527894.92921        19.250           1.094
  23395976.425    -3487209.105 5  -2522807.50721        11.500           0.438
  22656623.401    -9243157.044 6  -6973118.54121        15.500           0.469
 91  5 29 18 49 14.9990000  0  6G18G19G 2G11G16G 6
  22779502.339     9711763.503 6   7567589.95921        13.750           0.719
  20820053.440      660218.081 7    514452.92022        20.250           2.156
  21249364.776   -11845161.355 7  -9229984.86423        25.500           2.781
  22706175.753    -4522214.735 6  -3523799.14321        19.500           1.188
  23397259.003    -3480457.784 5  -2517546.78921        11.000           0.344
  22649640.597    -9279869.201 6  -7001725.38421        16.000           0.531
 91  5 29 18 49 29.9990000  0  6G18G19G 2G11G16G 6
  22788351.612     9758248.543 6   7603811.95421        14.000           0.719
  20822218.222      671582.938 6    523308.63322        19.500           2.125
  21243359.480   -11876728.034 7  -9254582.26223        25.750           2.813
  22707204.940    -4516800.971 6  -3519580.64121        19.000           1.188
  23398571.667    -3473579.094 5  -2512186.81521        10.750           0.281
  22642656.339    -9316561.204 6  -7030316.53121        15.500           0.563
 91  5 29 18 49 44.9990000  0  6G18G19G 2G11G16G 6
  22797208.206     9804790.998 6   7640078.69621        13.750           0.813
  20824393.800      683012.582 7    532214.83222        20.500           2.063
  21237368.620   -11908212.551 7  -9279115.63723        26.000           2.875
  22708263.769    -4511230.491 6  -3515240.00521        18.000           1.219
  23399902.089    -3466573.969 5  -2506728.31621        10.750           0.438
  22635676.323    -9353233.662 6  -7058892.44821        14.750           0.531
 91  5 29 18 49 59.9990000  0  6G18G19G 2G11G16G 6
  22806070.214     9851388.062 6   7676387.96521        13.500           0.750
  20826582.878      694504.467 6    541169.51322        19.000           2.063
  21231392.120   -11939617.216 7  -9303586.78923        26.250           3.094
  22709351.948    -4505505.884 6  -3510779.28021        18.250           1.156
  23401254.964    -3459444.769 5  -2501173.14121        11.000           0.344
  22628702.597    -9389889.154 6  -7087455.15721        15.250           0.625
 91  5 29 18 50 14.9990000  0  6G18G19G 2G11G16G 6
  22814950.815     9898039.794 6   7712739.83721        14.250           0.750
  20828778.284      706058.767 7    550172.85522        20.000           2.000
  21225432.753   -11970942.031 7  -9327995.71823        25.500           3.031
  22710473.159    -4499627.002 6  -3506198.32921        18.500           1.250
  23402637.706    -3452191.567 5  -2495521.35221        11.000           0.406
  22621731.230    -9426527.407 6  -7116004.41421        15.500           0.719
 91  5 29 18 50 29.9990000  0  6G18G19G 2G11G16G 6
  22823840.722     9944747.105 6   7749135.02821        14.750           0.781
  20830988.284      717676.874 6    559225.92222        19.000           2.125
  21219485.972   -12002185.731 7  -9352341.43623        25.500           2.969
  22711621.987    -4493592.643 6  -3501496.23921        18.750           1.219
  23404037.964    -3444813.252 5  -2489772.06821        11.000           0.406
  22614760.026    -9463147.258 6  -7144539.34921        14.750           0.750
 91  5 29 18 50 44.9990000  0  6G18G19G 2G11G16G 6
  22832740.136     9991508.194 6   7785572.13021        14.750           0.719
  20833211.464      729357.244 6    568327.49422        19.500           2.031
  21213557.737   -12033349.701 7  -9376625.03123        25.750           3.000
  22712794.839    -4487404.486 6  -3496674.30821        18.500           1.125
  23405468.065    -3437311.722 5  -2483926.78321        11.000           0.344
  22607795.097    -9499750.153 6  -7173061.05021        15.000           0.719
 91  5 29 18 50 59.9990000  0  6G18G19G 2G11G16G 6
  22841647.503    10038321.348 6   7822049.77321        14.500           0.906
  20835451.808      741098.674 6    577476.64122        18.000           2.156
  21207641.589   -12064435.162 7  -9400847.44523        26.000           2.938
  22714007.831    -4481063.922 6  -3491733.60921        19.500           1.188
  23406924.886    -3429688.448 5  -2477986.60221        11.000           0.469
  22600834.690    -9536337.478 6  -7201570.63021        15.000           0.750
 91  5 29 18 51 14.9990000  0  6G18G19G 2G11G16G 6
  22850566.276    10085193.492 6   7858573.39921        14.000           0.781
  20837694.206      752908.310 6    586678.94622        19.500           2.188
  21201740.136   -12095435.088 7  -9425003.22623        25.500           2.781
  22715241.355    -4474564.034 6  -3486668.77221        19.250           1.094
  23408396.511    -3421936.804 5  -2471946.41221        10.250           0.313
  22593876.847    -9572902.114 6  -7230062.52121        15.250           0.719
 91  5 29 18 51 29.9990000  0  6G18G19G 2G11G16G 6
  22859498.972    10132117.119 6   7895137.12621        14.500           0.875
  20839954.542      764779.211 6    595928.98522        18.250           2.219
  21195857.151   -12126356.665 7  -9449097.94323        25.500           2.750
  22716508.909    -4467911.840 6  -3481485.24321        19.500           1.125
  23409891.855    -3414063.857 5  -2465811.70821         9.750           0.344
  22586919.925    -9609450.989 6  -7258542.14021        15.500           0.656
 91  5 29 18 51 44.9990000  0  6G18G19G 2G11G16G 6
  22868436.753    10179093.744 6   7931742.19221        14.500           0.875
  20842223.581      776713.041 6    605228.05622        19.750           2.250
  21189988.612   -12157198.075 7  -9473130.19523        25.000           2.844
  22717802.815    -4461105.699 6  -3476181.76221        19.250           1.125
  23411413.831    -3406067.986 5  -2459581.19221        10.250           0.344
  22579970.847    -9645982.359 6  -7287008.12921        15.000           0.719
 91  5 29 18 51 59.9990000  0  6G18G19G 2G11G16G 6
  22877385.948    10226122.067 6   7968387.49921        14.000           0.813
  20844509.308      788708.681 6    614575.29222        19.500           2.250
  21184134.128   -12187960.217 7  -9497100.67423        24.250           2.750
  22719126.706    -4454146.866 6  -3470759.30021        19.250           1.156
  23412956.823    -3397950.604 5  -2453256.04021        10.000           0.406
  22573021.823    -9682497.269 6  -7315461.27221        15.500           0.719
 91  5 29 18 52 14.9990000  0  6G18G19G 2G11G16G 6
  22886345.331    10273202.284 6   8005073.25821        14.000           0.813
  20846801.136      800766.338 7    623970.85222        20.250           2.156
  21178295.644   -12218642.984 7  -9521009.30023        24.250           2.781
  22720479.323    -4447035.245 6  -3465217.78721        18.750           1.188
  23414531.081    -3389711.891 5  -2446836.27621        10.750           0.406
  22566073.894    -9718995.503 6  -7343901.43421        15.750           0.781
 91  5 29 18 52 29.9990000  0  6G18G19G 2G11G16G 6
  22895313.534    10320336.933 6   8041801.42921        14.000           0.656
  20849108.519      812888.970 6    633417.03622        19.500           2.094
  21172472.409   -12249243.536 7  -9544853.86623        24.250           2.719
  22721858.651    -4439768.142 6  -3459555.11821        18.250           1.250
  23416120.573    -3381349.048 5  -2440319.82221        11.250           0.406
  22559132.433    -9755474.308 6  -7372326.44721        15.250           0.781
 91  5 29 18 52 44.9990000  0  6G18G19G 2G11G16G 6
  22904294.831    10367528.548 6   8078574.01121        14.000           0.625
  20851425.792      825079.532 7    642916.15722        20.250           2.125
  21166663.487   -12279758.840 7  -9568632.00123        24.000           2.781
  22723274.386    -4432342.535 6  -3453768.93921        18.750           1.188
  23417733.573    -3372859.233 5  -2433704.43121        10.500           0.344
  22552193.190    -9791930.551 6  -7400733.87521        15.000           0.781
 91  5 29 18 52 59.9990000  0  6G18G19G 2G11G16G 6
  22913285.589    10414770.057 6   8115385.43421        13.750           0.781
  20853758.519      837331.381 6    652463.02622        19.500           2.125
  21160871.487   -12310195.575 7  -9592348.91223        24.750           2.813
  22724719.433    -4424765.306 6  -3447864.62021        19.750           1.125
  23419371.612    -3364249.520 5  -2426995.59921        10.250           0.375
  22545260.706    -9828370.989 6  -7429128.99121        14.500           0.750
 91  5 29 18 53 14.9990000  0  6G18G19G 2G11G16G 6
  22922285.698    10462061.476 6   8152235.76121        13.500           0.719
  20856100.362      849644.978 6    662058.02222        19.750           2.125
  21155096.323   -12340553.379 7  -9616004.32723        25.000           2.906
  22726190.464    -4417036.254 7  -3441841.98321        20.000           1.188
  23421039.753    -3355520.018 5  -2420193.43721        10.750           0.469
  22538331.073    -9864795.195 6  -7457511.47121        14.750           0.844
 91  5 29 18 53 29.9990000  0  6G18G19G 2G11G16G 6
  22931291.886    10509406.981 6   8189128.23221        12.750           0.594
  20858458.355      862024.692 6    671704.53422        19.500           2.219
  21149334.089   -12370827.890 7  -9639594.83023        25.000           2.813
  22727689.878    -4409150.963 6  -3435697.61421        19.500           1.063
  23422719.698    -3346666.163 5  -2413294.36621        10.500           0.500
  22531403.980    -9901198.843 6  -7485877.92121        14.750           0.781
 91  5 29 18 53 44.9990000  0  6G18G19G 2G11G16G 6
  22940309.917    10556803.958 6   8226060.85121        12.000           0.656
  20860823.886      874468.430 6    681400.93822        19.500           2.188
  21143588.105   -12401021.375 7  -9663122.20123        25.000           2.906
  22729217.605    -4401111.857 6  -3429433.39121        19.500           1.094
  23424430.714    -3337690.397 5  -2406300.32721        11.500           0.469
  22524478.167    -9937584.083 6  -7514230.01421        15.000           0.813
 91  5 29 18 53 59.9990000  0  6G18G19G 2G11G16G 6
  22949339.198    10604253.721 6   8263034.54521        12.500           0.531
  20863207.378      886977.599 6    691148.31822        18.750           2.219
  21137859.011   -12431132.316 7  -9686585.25023        25.500           2.938
  22730776.401    -4392917.623 6  -3423048.28521        18.750           1.156
  23426155.667    -3328591.820 5  -2399210.56321        10.750           0.469
  22517558.222    -9973949.328 6  -7542566.55221        15.500           0.781
 91  5 29 18 54 14.9990000  0  6G18G19G 2G11G16G 6
  22958379.440    10651750.624 6   8300045.00521        12.500           0.656
  20865595.480      899546.721 6    700942.42322        19.500           2.250
  21132143.972   -12461166.254 7  -9709988.29423        25.500           2.969
  22732365.214    -4384573.779 6  -3416546.60821        18.750           1.188
  23427900.683    -3319375.642 5  -2392029.15421         9.250           0.500
  22510639.909   -10010300.216 6  -7570891.90921        15.000           0.938
 91  5 29 18 54 29.9990000  0  6G18G19G 2G11G16G 6
  22967425.667    10699292.331 5   8337090.36321        11.500           0.656
  20867999.526      912173.791 6    710781.67622        18.750           2.313
  21126444.292   -12491125.068 7  -9733332.80523        26.250           3.000
  22733983.034    -4376082.437 6  -3409929.99021        19.250           1.156
  23429689.472    -3310044.260 5  -2384758.00321         9.750           0.438
  22503723.401   -10046638.559 6  -7599207.46621        15.000           0.844
 91  5 29 18 54 44.9990000  0  6G18G19G 2G11G16G 6
  22976485.183    10746881.787 6   8374172.92121        13.000           0.656
  20870415.495      924861.806 6    720668.42722        19.000           2.125
  21120757.925   -12521005.608 7  -9756616.32323        25.750           3.094
  22735623.519    -4367440.632 6  -3403196.12121        19.250           1.094
  23431482.222    -3300595.002 5  -2377394.99721         9.000           0.500
  22496816.034   -10082961.349 6  -7627510.91021        15.250           0.938
 91  5 29 18 54 59.9990000  0  6G18G19G 2G11G16G 6
  22985548.847    10794520.804 6   8411294.09321        13.000           0.625
  20872840.151      937613.113 6    730604.49122        18.250           2.313
  21115087.659   -12550805.661 7  -9779837.11923        26.500           3.031
  22737300.042    -4358646.231 6  -3396343.35621        18.750           1.000
  23433312.073    -3291025.782 5  -2369938.51821        10.500           0.406
  22489905.019   -10119266.270 6  -7655800.43121        14.750           0.938
 91  5 29 18 55 14.9990000  0  6G18G19G 2G11G16G 6
  22994626.198    10842211.587 6   8448455.60521        13.000           0.625
  20875280.151      950430.558 6    740592.08822        19.000           2.281
  21109430.355   -12580522.436 7  -9802993.03123        25.750           3.063
  22739002.097    -4349696.653 6  -3389369.67121        18.750           1.000
  23435153.269    -3281334.182 5  -2362386.64821        10.000           0.563
  22483001.355   -10155550.489 6  -7684073.82321        15.250           0.969
 91  5 29 18 55 29.9990000  0  6G18G19G 2G11G16G 6
  23003711.667    10889951.195 6   8485655.16321        14.000           0.594
  20877732.050      963311.416 6    750629.10122        19.000           2.250
  21103792.862   -12610158.776 7  -9826086.26523        25.750           2.938
  22740735.503    -4340594.883 6  -3382277.41121        18.750           1.125
  23437022.058    -3271523.522 5  -2354742.05821        10.500           0.531
  22476096.300   -10191817.053 6  -7712333.46921        14.500           0.969
 91  5 29 18 55 44.9990000  0  6G18G19G 2G11G16G 6
  23012805.526    10937741.362 6   8522894.12421        14.250           0.531
  20880195.901      976257.479 6    760716.92222        19.500           2.344
  21098167.323   -12639712.916 7  -9849115.45323        25.500           2.938
  22742496.112    -4331339.202 6  -3375065.19221        19.000           1.250
  23438912.042    -3261591.994 5  -2347003.25721        10.000           0.406
  22469201.862   -10228063.874 6  -7740577.70021        14.500           0.938
 91  5 29 18 55 59.9990000  0  6G18G19G 2G11G16G 6
  23021906.558    10985579.198 6   8560170.24321        12.500           0.625
  20882676.214      989266.212 6    770853.57822        19.000           2.313
  21092558.714   -12669187.404 7  -9872082.56123        25.250           2.906
  22744287.089    -4321932.210 6  -3367735.08621        19.250           1.094
  23440827.675    -3251542.047 5  -2339172.16421        11.000           0.500
  22462308.714   -10264293.536 6  -7768808.58221        15.000           0.906
 91  5 29 18 56 14.9990000  0  6G18G19G 2G11G16G 6
  23031021.105    11033468.568 6   8597486.47921        13.750           0.719
  20885157.347     1002341.962 7    781042.45122        20.250           2.188
  21086965.597   -12698577.896 7  -9894984.22723        24.750           3.063
  22746106.730    -4312369.672 6  -3360283.76521        19.250           1.063
  23442761.284    -3241369.587 5  -2331245.59621        10.750           0.594
  22455416.706   -10300501.670 6  -7797022.69021        14.750           0.875
 91  5 29 18 56 29.9990000  0  6G18G19G 2G11G16G 6
  23040143.628    11081407.931 6   8634841.70821        13.500           0.719
  20887660.284     1015483.355 6    791282.48222        19.500           2.250
  21081385.995   -12727885.605 7  -9917821.38123        25.250           3.094
  22747953.011    -4302653.052 6  -3352712.38221        18.500           1.156
  23444714.089    -3231076.185 5  -2323224.83421         9.500           0.594
  22448530.659   -10336689.497 6  -7825220.97721        14.500           0.969
 91  5 29 18 56 44.9990000  0  6G18G19G 2G11G16G 6
  23049274.800    11129395.610 6   8672234.57021        13.500           0.656
  20890173.972     1028689.014 7    801572.58022        20.500           2.219
  21075828.597   -12757112.078 7  -9940595.23323        25.500           3.250
  22749830.714    -4292784.035 6  -3345022.24621        18.500           1.188
  23446692.605    -3220663.642 5  -2315111.22721         8.500           0.719
  22441647.800   -10372858.545 6  -7853404.64421        14.500           0.906
 91  5 29 18 56 59.9990000  0  6G18G19G 2G11G16G 6
  23058413.339    11177428.481 6   8709662.63721        12.250           0.563
  20892702.550     1041956.208 6    811910.63722        19.500           2.281
  21070278.714   -12786260.100 7  -9963307.95523        25.750           3.125
  22751735.175    -4282765.588 6  -3337215.67821        17.750           1.156
  23448696.862    -3210135.464 5  -2306907.52021         8.000           0.500
  22434768.987   -10409011.644 6  -7881575.85521        14.000           0.906
 91  5 29 18 57 14.9990000  0  6G18G19G 2G11G16G 6
  23067564.448    11225508.527 6   8747127.46721        12.750           0.625
  20895234.683     1055287.160 7    822298.36922        20.500           2.281
  21064748.065   -12815327.394 7  -9985957.77623        25.500           2.969
  22753674.589    -4272595.532 6  -3329290.96021        19.250           1.250
  23450724.620    -3199489.433 5  -2298611.97221         8.750           0.594
  22427891.401   -10445146.484 6  -7909732.84521        14.000           1.094
 91  5 29 18 57 29.9990000  0  6G18G19G 2G11G16G 6
  23076720.940    11273637.038 5   8784630.07521        11.500           0.625
  20897785.433     1068683.470 7    832737.03122        20.250           2.156
  21059233.581   -12844312.540 7 -10008543.58323        26.000           2.938
  22755639.472    -4262272.397 6  -3321246.97621        18.500           1.188
  23452771.511    -3188724.205 5  -2290223.56321         8.750           0.750
  22421017.628   -10481261.482 6  -7937874.38021        14.750           0.969
 91  5 29 18 57 44.9990000  0  6G18G19G 2G11G16G 6
  23085892.401    11321816.337 6   8822172.22821        12.250           0.656
  20900347.753     1082147.942 7    843228.80722        20.750           2.188
  21053733.315   -12873212.657 7 -10031063.13723        26.000           2.813
  22757628.175    -4251793.562 6  -3313081.65821        17.500           1.188
  23454842.823    -3177837.525 5  -2281740.48821         9.750           0.594
  22414152.112   -10517353.907 6  -7965998.31621        14.750           0.906
 91  5 29 18 57 59.9990000  0  6G18G19G 2G11G16G 6
  23095069.464    11370042.311 6   8859750.76721        12.750           0.594
  20902921.683     1095676.690 6    853770.67122        19.500           2.188
  21048249.222   -12902031.713 7 -10053519.53223        26.000           2.906
  22759656.237    -4241163.169 6  -3304798.25221        18.250           1.219
  23456945.987    -3166833.096 5  -2273165.65821        10.250           0.594
  22407286.870   -10553427.578 6  -7994107.65321        15.000           1.031
 91  5 29 18 58 14.9990000  0  6G18G19G 2G11G16G 6
  23104253.730    11418315.383 6   8897366.03521        12.750           0.594
  20905507.222     1109270.532 6    864363.25722        19.500           2.125
  21042782.464   -12930768.981 7 -10075912.19123        26.750           3.031
  22761705.956    -4230380.623 6  -3296396.28021        18.000           1.125
  23459057.573    -3155710.457 5  -2264498.74121        10.000           0.531
  22400426.026   -10589481.773 6  -8022201.81521        14.500           0.844
 91  5 29 18 58 29.9990000  0  6G18G19G 2G11G16G 6
  23113453.394    11466633.275 6   8935016.20321        13.750           0.594
  20908105.456     1122927.234 6    875004.81722        19.250           2.188
  21037328.190   -12959426.440 7 -10098242.66023        26.750           3.094
  22763790.222    -4219448.203 6  -3287877.52421        18.500           1.125
  23461200.026    -3144471.804 5  -2255741.39521        10.000           0.531
  22393566.190   -10625518.564 6  -8050282.41621        13.750           0.781
 91  5 29 18 58 44.9990000  0  6G18G19G 2G11G16G 6
  23122656.105    11515001.573 6   8972705.64721        13.500           0.750
  20910717.862     1136653.077 6    885700.26522        19.500           2.125
  21031891.362   -12987998.110 7 -10120506.27623        27.250           3.094
  22765897.433    -4208359.848 6  -3279237.26621        18.750           1.188
  23463359.933    -3133111.667 5  -2246889.39221         9.750           0.594
  22386714.605   -10661531.767 6  -8078344.63421        12.750           0.969
 91  5 29 18 58 59.9990000  0  6G18G19G 2G11G16G 6
  23131867.323    11563416.729 6   9010431.58321        12.000           0.625
  20913343.761     1150444.581 7    896446.87122        20.000           2.250
  21026469.714   -13016487.695 7 -10142705.93223        27.250           3.000
  22768037.058    -4197119.442 6  -3270478.52321        18.750           1.000
  23465543.511    -3121633.966 5  -2237945.79921        10.500           0.625
  22379865.956   -10697524.877 6  -8106391.18121        13.000           0.875
 91  5 29 18 59 14.9990000  0  6G18G19G 2G11G16G 6
  23141087.933    11611878.978 6   9048194.23721        12.250           0.469
  20915978.534     1164302.182 6    907244.98622        19.500           2.125
  21021064.198   -13044894.422 7 -10164841.02423        27.250           3.000
  22770207.034    -4185726.477 6  -3261600.89221        19.000           1.156
  23467748.855    -3110038.116 5  -2228910.12621        10.250           0.719
  22373021.448   -10733497.384 6  -8134421.67821        14.250           0.844
 91  5 29 18 59 29.9990000  0  6G18G19G 2G11G16G 6
  23150320.058    11660384.741 6   9085990.79021        12.250           0.688
  20918631.917     1178222.913 6    918092.28922        18.000           2.219
  21015674.026   -13073221.305 7 -10186913.91023        27.250           3.000
  22772402.565    -4174184.132 6  -3252606.87421        19.250           1.094
  23469980.917    -3098327.451 5  -2219785.00321        11.000           0.625
  22366180.355   -10769452.242 6  -8162438.43121        14.500           0.875
 91  5 29 18 59 44.9990000  0  6G18G19G 2G11G16G 6
  23159557.042    11708935.349 5   9123822.29121        11.250           0.594
  20921289.901     1192208.425 6    928990.06922        19.250           2.219
  21010299.894   -13101466.949 7 -10208923.48323        27.000           3.063
  22774630.667    -4162491.025 6  -3243495.36921        19.250           1.094
  23472226.058    -3086500.969 5  -2210569.60721        10.250           0.844
  22359342.073   -10805387.920 6  -8190440.23521        14.750           0.875
 91  5 29 18 59 59.9990000  0  6G18G19G 2G11G16G 6
  23168804.644    11757530.307 6   9161688.33121        12.000           0.563
  20923965.190     1206258.416 6    939938.09522        18.500           2.250
  21004938.683   -13129631.674 7 -10230870.00323        26.500           3.063
  22776881.144    -4150647.592 6                        19.250
  23474498.565    -3074559.058 5                        10.250
  22352507.792   -10841304.699 6  -8218427.30221        15.000           0.906
 91  5 29 19  0 14.9990000  0  6G18G19G 2G11G16G 6
  23178063.433    11806170.604 6   9199589.72321        13.000           0.531
  20926649.206     1220374.142 6    950937.34022        19.000           2.219
  20999593.870   -13157714.071 7 -10252752.37023        26.250           3.063
  22779163.940    -4138652.567 6                        19.000
  23476794.714    -3062500.296 5                        10.250
  22345674.792   -10877201.153 6  -8246398.55321        15.000           0.875
 91  5 29 19  0 29.9990000  0  6G18G19G 2G11G16G 6
  23187329.339    11854855.460 6   9237525.84821        13.250           0.625
  20929352.573     1234555.106 6    961987.42522        18.000           2.156
  20994267.636   -13185714.569 7 -10274570.91723        26.500           3.125
  22781473.745    -4126506.663 6                        18.500
  23479110.073    -3050325.750 5                        10.000
  22338847.175   -10913077.787 6  -8274354.35221        15.000           0.875
 91  5 29 19  0 44.9990000  0  6G18G19G 2G11G16G 6
  23196599.464    11903585.307 5   9275497.02121        11.250           0.625
  20932061.058     1248801.876 6    973088.78322        19.250           2.125
  20988955.034   -13213632.787 7 -10296325.35723        27.000           3.000
  22783815.894    -4114209.600 6                        18.750
  23481452.136    -3038035.434 5                        10.250
  22332028.136   -10948934.077 6  -8302294.29221        15.500           0.781
 91  5 29 19  0 59.9990000  0  6G18G19G 2G11G16G 6
  23205882.370    11952358.964 6   9313502.31121        12.000           0.594
  20934784.339     1263114.157 6    984241.19122        18.500           2.250
  20983660.230   -13241469.073 7 -10318015.96123        26.750           3.125
  22786183.651    -4101761.906 6                        19.000
  23483816.636    -3025629.688 5                        10.750
  22325205.300   -10984770.367 6  -8330218.63721        15.750           0.969
 91  5 29 19  1 14.9990000  0  6G18G19G 2G11G16G 6
  23215172.511    12001178.546 6   9351543.43721        12.250           0.594
  20937519.495     1277493.998 6    995446.24022        19.500           2.250
  20978377.644   -13269221.173 7 -10339640.95523        26.250           3.156
  22788584.542    -4089161.577 6                        19.250
  23486194.573    -3013106.509 5                         9.750
  22318390.753   -11020584.537 6  -8358125.75721        15.750           0.969
 91  5 29 19  1 29.9990000  0  6G18G19G 2G11G16G 6
  23224469.128    12050040.943 5   9389617.90321        11.500           0.531
  20940274.339     1291938.535 6   1006701.70022        18.000           2.094
  20973111.620   -13296892.094 7 -10361202.69923        26.000           3.250
  22791009.808    -4076411.670 6  -3176420.64821        19.250           1.156
  23488603.464    -3000469.124 5  -2143532.26421         9.500           0.500
  22311579.355   -11056379.416 6  -8386017.85421        16.000           0.813
 91  5 29 19  1 44.9990000  0  6G18G19G 2G11G16G 6
  23233778.831    12098946.980 6   9427726.35521        12.000           0.531
  20943028.019     1306449.114 6   1018008.62522        19.500           2.156
  20967860.417   -13324480.823 7 -10382700.39023        25.500           3.281
  22793465.940    -4063511.163 6  -3166368.30521        19.250           1.125
  23491023.683    -2987716.854 5  -2133595.49321         9.250           0.625
  22304770.894   -11092153.736 6  -8413893.93121        15.750           0.875
 91  5 29 19  1 59.9990000  0  6G18G19G 2G11G16G 6
  23243088.917    12147889.670 6   9465863.37621        12.000           0.563
  20945803.972     1321018.836 6   1029361.63022        18.750           2.219
  20962625.175   -13351994.039 7 -10404139.23923        25.750           3.250
  22795945.605    -4050467.033 6  -3156204.05921        19.250           1.125
  23493477.433    -2974856.574 5  -2123574.54921         9.750           0.563
  22297964.190   -11127914.212 6  -8441759.21521        15.750           0.906
 91  5 29 19  2 14.9990000  0  6G18G19G 2G11G16G 6
  23252409.933    12196875.511 5   9504034.01621        11.750           0.531
  20948586.659     1335654.516 6   1040766.03522        19.500           2.156
  20957402.933   -13379424.889 7 -10425513.91523        25.250           3.094
  22798457.245    -4037272.661 6  -3145922.73921        19.000           1.094
  23495940.144    -2961881.928 5  -2113464.50521         9.500           0.656
  22291165.722   -11163654.080 6  -8469608.43621        15.750           0.969
 91  5 29 19  2 29.9990000  0  6G18G19G 2G11G16G 6
  23261741.456    12245902.236 5   9542236.51621        11.750           0.500
  20951387.120     1350354.326 6   1052220.40822        18.500           2.063
  20952198.870   -13406775.167 7 -10446825.80723        25.500           3.000
  22800993.769    -4023930.019 6  -3135525.87821        18.250           1.156
  23498433.050    -2948794.815 5  -2103266.80921        10.000           0.625
  22284367.644   -11199375.052 6  -8497442.92421        16.500           0.813
 91  5 29 19  2 44.9990000  0  6G18G19G 2G11G16G 6
  23271081.128    12294968.791 5   9580470.04521        11.750           0.500
  20954194.120     1365117.554 6   1063724.20222        19.250           2.094
  20947011.026   -13434045.975 7 -10468075.76723        25.500           3.188
  22803560.620    -4010440.156 6  -3125014.31121        18.250           1.125
  23500944.503    -2935596.757 5  -2092982.68721         9.750           0.688
  22277574.003   -11235078.068 6  -8525263.43621        16.750           0.875
 91  5 29 19  2 59.9990000  0  6G18G19G 2G11G16G 6
  23280422.175    12344074.433 6   9618734.04321        12.250           0.375
  20957017.776     1379943.835 6   1075277.12722        18.500           2.094
  20941836.081   -13461237.767 7 -10489264.15923        26.250           3.188
  22806155.878    -3996803.577 6  -3114388.42321        18.750           1.156
  23503477.206    -2922288.119 5  -2082612.37221         8.750           0.500
  22270783.003   -11270763.500 6  -8553070.23721        16.250           0.938
 91  5 29 19  3 14.9990000  0  6G18G19G 2G11G16G 6
  23289773.503    12393220.659 5   9657029.67621        11.500           0.531
  20959846.112     1394834.770 6   1086880.43222        19.000           2.000
  20936678.401   -13488348.541 7 -10510389.42723        26.250           3.219
  22808783.019    -3983018.759 6  -3103647.01321        19.000           1.188
  23506036.042    -2908867.389 5  -2072154.73221         8.750           0.375
  22263995.433   -11306429.503 6  -8580861.89621        17.000           0.906
 91  5 29 19  3 29.9990000  0  6G18G19G 2G11G16G 6
  23299137.050    12442410.339 5   9695359.15721        11.500           0.406
  20962698.964     1409793.641 6   1098536.67622        17.500           2.125
  20931534.558   -13515375.214 7 -10531449.15323        26.750           3.281
  22811430.862    -3969082.600 6  -3092787.69221        18.000           1.031
  23508610.276    -2895331.654 5  -2061607.47521         9.250           0.469
  22257211.698   -11342072.827 6  -8608635.89821        16.750           0.781
 91  5 29 19  3 44.9990000  0  6G18G19G 2G11G16G 6
  23308500.870    12491640.037 5   9733719.81721        10.500           0.469
  20965554.636     1424817.434 6   1110243.50422        19.250           2.063
  20926407.386   -13542320.997 7 -10552445.84823        27.250           3.219
  22814111.620    -3954998.602 6  -3081813.15221        18.250           0.969
  23511200.683    -2881684.336 5  -2050973.25521         8.750           0.500
  22250432.644   -11377696.698 6  -8636394.73121        16.250           0.875
 91  5 29 19  3 59.9990000  0  6G18G19G 2G11G16G 6
  23317874.948    12540912.048 5   9772113.45721         9.750           0.500
  20968429.026     1439908.623 6   1122002.84922        17.250           2.063
  20921296.206   -13569183.302 8 -10573377.50223        28.250           3.219
  22816820.144    -3940764.348 6  -3070721.54321        18.750           1.063
  23513823.487    -2867923.276 5  -2040250.41321         9.250           0.406
  22243660.956   -11413298.421 6  -8664136.30821        17.000           0.938
 91  5 29 19  4 14.9990000  0  6G18G19G 2G11G16G 6
  23327260.065    12590221.834 5   9810536.52121        10.000           0.469
  20971310.292     1455062.921 6   1133811.37022        18.750           2.156
  20916200.370   -13595966.353 8 -10594247.39623        28.000           3.188
  22819557.847    -3926384.275 6  -3059516.30721        18.750           0.969
  23516459.370    -2854052.940 5  -2029442.41921         9.500           0.469
  22236888.878   -11448882.268 6  -8691863.94521        17.500           0.844
 91  5 29 19  4 29.9990000  0  6G18G19G 2G11G16G 6
  23336650.448    12639566.577 5   9848986.80921         9.750           0.531
  20974205.808     1470277.792 6   1145667.08522        18.250           2.125
  20911117.628   -13622672.752 7 -10615057.56423        27.500           3.156
  22822322.144    -3911861.133 6  -3048199.59421        19.000           1.094
  23519124.206    -2840076.182 5  -2018551.49121        11.000           0.469
  22230117.855   -11484450.769 6  -8719579.63821        17.250           0.906
 91  5 29 19  4 44.9990000  0  6G18G19G 2G11G16G 6
  23346048.151    12688950.088 5   9887467.32621         9.750           0.469
  20977114.050     1485557.401 6   1157573.25322        19.250           2.000
  20906049.245   -13649298.452 7 -10635804.84423        26.750           3.281
  22825113.948    -3897190.978 6  -3036768.30721        19.250           1.000
  23521805.112    -2825989.228 5  -2007574.68421        10.250           0.406
  22223354.308   -11519999.754 6  -8747280.12321        17.500           0.969
 91  5 29 19  4 59.9990000  0  6G18G19G 2G11G16G 6
  23355454.300    12738372.729 5   9925978.33421         9.000           0.563
  20980036.042     1500902.595 6   1169530.52622        18.250           2.188
  20900999.331   -13675842.500 7 -10656488.50223        27.500           3.344
  22827931.409    -3882373.097 6  -3025221.91721        18.750           1.031
  23524504.909    -2811791.486 5  -1996511.60621         9.500           0.406
  22216594.753   -11555528.272 6  -8774964.64221        18.250           0.969
 91  5 29 19  5 14.9990000  0  6G18G19G 2G11G16G 6
  23364866.519    12787836.421 5   9964521.30621        10.000           0.594
  20982963.800     1516315.583 6   1181540.61822        18.500           2.156
  20895963.589   -13702302.842 7 -10677106.94023        27.500           3.250
  22830781.480    -3867405.532 6  -3013558.90121        18.750           0.938
  23527225.815    -2797480.947 5  -1985360.60121         9.500           0.438
  22209837.847   -11591034.199 6  -8802631.56721        19.000           0.969
 91  5 29 19  5 29.9990000  0  6G18G19G 2G11G16G 6
  23374291.745    12837336.446 5  10003092.59821        10.250           0.469
  20985912.894     1531792.034 6   1193600.16522        18.250           2.094
  20890943.394   -13728683.893 7 -10697663.59023        26.750           3.250
  22833658.706    -3852292.908 6  -3001782.84221        18.000           1.063
  23529973.347    -2783062.432 5  -1974125.46821         9.750           0.438
  22203084.917   -11626521.837 6  -8830284.26621        19.000           0.906
 91  5 29 19  5 44.9990000  0  6G18G19G 2G11G16G 6
  23383715.347    12886876.225 5  10041694.87521         9.250           0.531
  20988869.386     1547335.442 6   1205711.88522        18.750           2.125
  20885937.370   -13754982.129 7 -10718155.70723        26.500           3.188
  22836560.175    -3837031.915 6  -2989891.17021        17.750           1.125
  23532736.987    -2768533.025 5  -1962803.92421        10.500           0.469
  22196336.683   -11661987.744 6  -8857920.00921        19.500           0.969
 91  5 29 19  5 59.9990000  0  6G18G19G 2G11G16G 6
  23393152.925    12936455.094 5  10080327.60921         9.500           0.438
  20991842.073     1562945.808 6   1217875.78122        18.250           2.063
  20880950.019   -13781197.666 7 -10738583.38223        26.750           3.250
  22839493.065    -3821622.743 6  -2977884.04721        18.000           1.000
  23535525.456    -2753892.599 5  -1951395.84821        11.500           0.531
  22189589.698   -11697431.887 6  -8885538.79521        19.000           0.844
 91  5 29 19  6 14.9990000  0  6G18G19G 2G11G16G 6
  23402595.089    12986073.826 5  10118991.40921        10.250           0.531
  20994824.175     1578623.866 6                        18.750
  20875978.347   -13807329.986 7 -10758946.21323        27.000           3.344
  22842452.089    -3806064.793 6                        18.500
  23538330.901    -2739140.665 5  -1939900.90521        10.500           0.438
  22182850.065   -11732853.328 6  -8913139.90821        18.500           0.906
 91  5 29 19  6 29.9990000  0  6G18G19G 2G11G16G 6
  23412043.112    13035732.709 5  10157686.48521        10.250           0.469
  20997822.659     1594370.279 6                        18.000
  20871019.651   -13833378.138 7 -10779243.45523        27.000           3.250
  22845438.503    -3790357.698 6                        18.000
  23541159.448    -2724276.939 5  -1928318.86021        10.250           0.406
  22176112.886   -11768251.500 6  -8940722.86121        19.250           0.813
 91  5 29 19  6 44.9990000  0  6G18G19G 2G11G16G 6
  23421501.526    13085434.653 5  10196415.12421         9.500           0.375
  21000829.651     1610188.120 6                        19.000
  20866078.995   -13859339.231 7 -10799472.86623        27.000           3.281
  22848457.167    -3774498.577 6                        18.500
  23544011.159    -2709298.833 5  -1916647.68021         9.750           0.469
  22169384.058   -11803623.304 6  -8968285.27321        19.500           0.813
 91  5 29 19  6 59.9990000  0  6G18G19G 2G11G16G 6
  23430970.706    13135176.795 5  10235175.08521        10.750           0.375
  21003855.284     1626075.007 6   1267067.27122        18.000           2.125
  20861157.089   -13885215.386 7 -10819636.08923        27.500           3.219
  22851505.159    -3758489.935 6  -2928689.68721        18.750           1.031
  23546882.292    -2694209.012 5  -1904889.42321        10.000           0.438
  22162658.464   -11838970.940 6  -8995828.87121        19.000           0.875
 91  5 29 19  7 14.9990000  0  6G18G19G 2G11G16G 6
  23440439.495    13184959.464 5  10273966.62621         9.750           0.438
  21006889.769     1642031.611 6   1279500.95622        19.000           2.188
  20856248.440   -13911006.269 7 -10839732.86223        26.750           3.250
  22854581.808    -3742331.304 6  -2916098.55221        19.250           1.031
  23549778.276    -2679006.795 5  -1893043.59721         9.500           0.438
  22155934.698   -11874293.852 6  -9023353.19821        18.500           0.938
 91  5 29 19  7 29.9990000  0  6G18G19G 2G11G16G 6
  23449920.292    13234781.951 5  10312789.17821        10.250           0.438
  21009940.081     1658057.452 6   1291988.59522        18.500           2.031
  20851357.222   -13936712.233 7 -10859763.46823        27.000           3.188
  22857681.815    -3726023.432 6  -2903391.14221        18.250           1.094
  23552684.886    -2663693.145 5  -1881110.96221        10.000           0.344
  22149216.605   -11909592.375 6  -9050858.52921        18.000           0.719
 91  5 29 19  7 44.9990000  0  6G18G19G 2G11G16G 6
  23459410.050    13284639.718 5  10351639.22621        10.500           0.375
  21013001.362     1674148.602 6   1304527.12622        19.500           2.031
  20846480.433   -13962337.488 7 -10879731.18223        26.500           3.188
  22860816.065    -3709570.626 6  -2890570.78221        18.500           1.156
  23555618.956    -2648272.313 5  -1869094.79421        10.250           0.281
  22142505.472   -11944870.597 6  -9078348.02321        17.750           0.875
 91  5 29 19  7 59.9990000  0  6G18G19G 2G11G16G 6
  23468903.042    13334535.409 5  10390518.83521        10.500           0.438
  21016078.409     1690307.896 6   1317118.74922        18.500           2.063
  20841619.745   -13987879.190 7 -10899633.79023        26.750           3.156
  22863974.800    -3692970.311 6  -2877635.48721        19.000           1.000
  23558574.784    -2632741.827 5  -1856993.16921        10.000           0.344
  22135796.339   -11980125.733 6  -9105819.54021        18.000           1.000
 91  5 29 19  8 14.9990000  0  6G18G19G 2G11G16G 6
  23478406.894    13384471.010 5  10429429.54321        11.000           0.375
  21019164.940     1706537.503 6   1329765.17422        19.000           2.156
  20836776.425   -14013335.131 7 -10919469.57923        26.500           3.188
  22867161.362    -3676220.485 6  -2864583.70621        18.250           1.156
  23561553.144    -2617099.989 5  -1844804.79221        10.250           0.344
  22129092.237   -12015355.533 6  -9133271.30021        18.250           1.031
 91  5 29 19  8 29.9990000  0  6G18G19G 2G11G16G 6
  23487917.690    13434443.849 5  10468369.28021        11.000           0.406
  21022268.370     1722835.156 6   1342464.61722        17.500           2.250
  20831948.456   -14038707.717 7 -10939240.41223        26.750           3.219
  22870375.972    -3659323.704 6  -2851417.39821        18.000           0.938
  23564553.511    -2601349.344 5  -1832531.62921        10.750           0.281
  22122391.019   -12050562.186 6  -9160705.03321        18.000           1.094
 91  5 29 19  8 44.9990000  0  6G18G19G 2G11G16G 6
  23497429.878    13484450.321 5  10507335.19421        10.500           0.313
  21025380.128     1739197.666 6   1355214.59622        18.750           2.188
  20827133.730   -14064000.159 7 -10958948.78423        26.250           3.313
  22873618.175    -3642283.305 6  -2838139.16721        18.750           0.875
  23567572.175    -2585493.472 5  -1820176.48321        11.000           0.313
  22115694.628   -12085748.861 6  -9188123.18921        17.250           1.094
 91  5 29 19  8 59.9990000  0  6G18G19G 2G11G16G 6
  23506955.651    13534495.323 5  10546331.15521        10.500           0.344
  21028508.480     1755629.931 6   1368018.92622        18.000           2.219
  20822337.956   -14089207.363 7 -10978590.74623        26.500           3.313
  22876889.605    -3625094.447 6  -2824745.26221        18.750           0.906
  23570611.128    -2569527.752 5  -1807735.73221        10.750           0.313
  22109004.909   -12120910.487 6  -9215521.84121        17.000           1.000
 91  5 29 19  9 14.9990000  0  6G18G19G 2G11G16G 6
  23516484.331    13584577.218 5  10585355.84821         9.250           0.219
  21031644.136     1772130.779 6   1380876.70822        18.500           2.219
  20817556.386   -14114330.709 7 -10998167.36523        26.500           3.188
  22880190.190    -3607758.606 6  -2811236.82421        18.750           0.906
  23573666.605    -2553453.558 5  -1795210.45421        10.750           0.281
  22102319.448   -12156048.306 6  -9242901.93621        17.250           1.094
 91  5 29 19  9 29.9990000  0  6G18G19G 2G11G16G 6
  23526019.401    13634691.683 5  10624405.92521         9.250           0.375
  21034804.003     1788696.389 6   1393784.94422        18.000           2.313
  20812790.784   -14139374.110 7 -11017681.68723        26.500           3.250
  22883515.644    -3590280.008 6  -2797617.15321        18.250           0.969
  23576746.214    -2537274.935 5  -1782603.79021        11.250           0.344
  22095636.847   -12191166.179 6  -9270266.48921        17.000           1.031
 91  5 29 19  9 44.9990000  0  6G18G19G 2G11G16G 6
  23535561.487    13684835.038 5  10663478.53121         9.000           0.469
  21037963.136     1805323.204 6   1406740.86922        19.250           2.313
  20808040.003   -14164341.197 7 -11037136.55123        27.000           3.344
  22886871.401    -3572662.414 6  -2783889.16021        18.500           1.000
  23579840.948    -2520995.622 5  -1769918.66821        10.500           0.344
  22088955.792   -12226267.665 6  -9297618.27921        16.750           1.031
 91  5 29 19  9 59.9990000  0  6G18G19G 2G11G16G 6
  23545110.745    13735013.164 5  10702578.19021         8.500           0.375
  21041142.659     1822017.363 6   1419749.27522        18.500           2.250
  20803302.886   -14189225.753 7 -11056527.09123        27.000           3.375
  22890248.636    -3554899.675 6  -2770048.09021        18.750           1.063
  23582957.839    -2504610.188 5  -1757150.84621         9.000           0.375
  22082281.683   -12261346.415 6  -9324952.34521        17.250           1.094
 91  5 29 19 10 14.9990000  0  6G18G19G 2G11G16G 6
  23554667.558    13785228.563 5  10741706.89221         8.750           0.219
  21044330.370     1838781.687 6   1432812.35722        19.250           2.219
  20798587.206   -14214025.045 7 -11075851.20223        27.500           3.313
  22893657.050    -3536989.288 6  -2756091.96221        18.250           0.969
  23586092.183    -2488115.963 5  -1744298.26921         8.750           0.313
  22075612.589   -12296399.663 6  -9352266.54421        17.500           1.125
 91  5 29 19 10 29.9990000  0  6G18G19G 2G11G16G 6
  23564232.597    13835481.965 5  10780865.23221         9.500           0.406
  21047532.901     1855617.392 6   1445931.06022        18.500           2.219
  20793882.776   -14238737.867 8 -11095107.92423        28.000           3.219
  22897096.065    -3518930.370 6  -2742020.09121        18.750           1.000
  23589265.331    -2471512.097 5  -1731360.29621         8.250           0.313
  22068942.878   -12331426.161 6  -9379559.90321        16.250           1.156
 91  5 29 19 10 44.9990000  0  6G18G19G 2G11G16G 6
  23573801.042    13885767.079 5  10820048.28521         9.500           0.344
  21050749.487     1872518.494 6   1459100.72222        19.250           2.250
  20789195.159   -14263370.464 7 -11114302.13823        27.750           3.313
  22900559.597    -3500729.167 6  -2727837.34921        19.000           1.031
  23592442.698    -2454804.902 5  -1718341.74721         8.750           0.156
  22062284.425   -12366431.958 6  -9406837.11021        16.250           1.063
 91  5 29 19 10 59.9990000  0  6G18G19G 2G11G16G 6
  23583376.214    13936086.961 5  10859258.43121         9.000           0.250
  21053978.276     1889488.591 6   1472324.15022        18.500           2.156
  20784524.901   -14287919.222 8 -11133431.01923        28.250           3.281
  22904047.995    -3482382.240 6  -2713541.06721        19.000           0.969
  23595640.722    -2437991.053 5  -1705240.14021         9.000           0.156
  22055626.417   -12401413.390 6  -9434095.35821        15.750           1.031
 91  5 29 19 11 14.9990000  0  6G18G19G 2G11G16G 6
  23592956.425    13986442.706 5  10898496.50221         9.500           0.375
  21057220.222     1906528.729 6   1485602.14922        19.500           2.188
  20779867.776   -14312383.010 7 -11152493.69523        27.500           3.188
  22907569.597    -3463888.762 7  -2699130.58221        20.000           0.969
  23598852.472    -2421070.065 5  -1692055.04021         8.500           0.219
  22048972.761   -12436369.266 6  -9461333.68121        15.250           1.094
 91  5 29 19 11 29.9990000  0  6G18G19G 2G11G16G 6
  23602545.675    14036830.087 5  10937759.22221         9.750           0.313
  21060476.808     1923634.839 7                        20.000
  20775229.550   -14336765.839 8 -11171493.28623        28.000           3.219
  22911112.284    -3445253.049 6  -2684609.26321        18.750           1.000
  23602093.409    -2404046.260 5                         7.750
  22042323.425   -12471303.652 6  -9488555.26321        15.250           1.094
 91  5 29 19 11 44.9990000  0  6G18G19G 2G11G16G 6
  23612137.237    14087245.895 5  10977044.13021         8.750           0.344
  21063743.167     1940803.856 6                        19.500
  20770603.370   -14361070.803 7 -11190432.20623        27.500           3.188
  22914687.401    -3426478.236 6  -2669979.55621        19.000           1.000
  23605358.269    -2386922.769 5                         8.500
  22035679.675   -12506219.409 6  -9515762.33221        15.250           1.094
 91  5 29 19 11 59.9990000  0  6G18G19G 2G11G16G 6
  23621737.378    14137695.552 5  11016355.38121         9.000           0.313
  21067028.073     1958042.043 6                        18.500
  20765994.151   -14385291.723 7 -11209305.62923        27.750           3.188
  22918287.323    -3407558.603 6  -2655236.99721        18.750           0.938
  23608637.464    -2369693.813 5                         8.000
  22029043.245   -12541110.447 6  -9542950.13121        15.500           1.094
 91  5 29 19 12 14.9990000  0  6G18G19G 2G11G16G 6
  23631344.698    14188177.049 5  11055691.44321         9.000           0.344
  21070315.925     1975347.647 6                        19.500
  20761400.948   -14409430.503 8 -11228115.04323        28.000           3.156
  22921915.401    -3388496.127 6  -2640383.13921        18.750           0.969
  23611934.089    -2352361.431 5                         7.750
  22022405.565   -12575978.586 6  -9570120.08221        15.500           1.063
 91  5 29 19 12 29.9990000  0  6G18G19G 2G11G16G 6
  23640960.417    14238694.372 5  11095055.44521         9.500           0.406
  21073625.464     1992724.778 6                        18.500
  20756822.855   -14433482.925 8 -11246857.17923        28.250           2.969
  22925569.808    -3369286.681 6  -2625414.76421        19.000           0.906
  23615242.995    -2334921.398 3                         6.000
  22015777.253   -12610819.354 6  -9597268.71321        15.250           1.094
 91  5 29 19 12 44.9990000  0  6G18G19G 2G11G16G 6
  23650579.597    14289244.191 5  11134444.73921         9.750           0.406
  21076945.870     2010170.626 6   1566361.89422        19.250           2.156
  20752262.112   -14457451.965 8 -11265534.33923        28.250           3.031
  22929249.206    -3349933.500 6  -2610334.38721        18.500           0.938
  23618582.417    -2317377.456 4                         6.250
  22009153.394   -12645635.766 6  -9624398.35321        15.750           1.031
 91  5 29 19 12 59.9990000  0  6G18G19G 2G11G16G 6
  23660207.089    14339828.188 5  11173860.68821         9.750           0.406
  21080280.292     2027686.925 6   1580010.93322        17.750           2.219
  20747715.964   -14481335.797 7 -11284145.09823        27.500           3.156
  22932961.737    -3330435.032 6  -2595140.78621        18.750           0.969
  23621954.206    -2299728.036 4  -1652311.80421         6.500           0.313
  22002531.144   -12680425.869 6  -9651507.50721        16.750           1.156
 91  5 29 19 13 14.9990000  0  6G18G19G 2G11G16G 6
  23669840.534    14390445.323 5  11213302.42621         9.750           0.406
  21083623.425     2045272.967 6   1593714.32222        19.000           2.188
  20743187.073   -14505135.238 7 -11302690.09223        27.500           3.188
  22936703.151    -3310792.140 6  -2579834.65621        19.000           0.906
  23625332.136    -2281973.958 4  -1638477.52421         6.750           0.219
  21995915.151   -12715190.334 6  -9678596.68821        16.500           1.063
 91  5 29 19 13 29.9990000  0  6G18G19G 2G11G16G 6
  23679476.987    14441092.035 5  11252767.25921         9.500           0.313
  21086984.987     2062925.566 6   1607469.55722        18.000           2.188
  20738675.792   -14528853.625 8 -11321171.94023        28.250           3.094
  22940464.206    -3291008.388 6  -2564418.75621        19.000           0.938
  23628728.073    -2264118.936 4  -1624564.58621         7.250           0.219
  21989304.269   -12749932.364 6  -9705668.38021        16.500           1.125
 91  5 29 19 13 44.9990000  0  6G18G19G 2G11G16G 6
  23689120.300    14491764.346 5  11292252.01021         9.250           0.344
  21090353.784     2080641.090 6   1621273.83922        18.750           2.094
  20734176.847   -14552494.690 8 -11339593.53523        28.500           3.156
  22944256.815    -3271087.685 6  -2548896.14821        18.250           0.875
  23632144.995    -2246167.083 5  -1610576.18021         8.250           0.125
  21982698.230   -12784655.724 6  -9732725.52121        17.250           1.250
 91  5 29 19 13 59.9990000  0  6G18G19G 2G11G16G 6
  23698769.581    14542464.757 5  11331758.66221        10.250           0.406
  21093743.300     2098422.447 6   1635129.40922        17.000           2.156
  20729690.331   -14576055.349 7 -11357952.48423        27.750           3.125
  22948073.612    -3251027.374 6  -2533264.74921        18.000           0.813
  23635575.128    -2228115.838 5  -1596510.35721         8.000           0.219
  21976092.144   -12819357.256 6  -9759765.66421        17.500           1.156
 91  5 29 19 14 14.9990000  0  6G18G19G 2G11G16G 6
  23708422.558    14593195.388 5  11371288.86221         9.750           0.438
  21097133.480     2116272.132 6   1649038.23422        18.000           2.125
  20725225.003   -14599533.412 7 -11376247.06123        27.750           3.219
  22951920.815    -3230825.218 6  -2517522.83421        18.000           0.875
  23639028.769    -2209962.884 5  -1582365.26521         8.750           0.250
  21969496.784   -12854034.504 6  -9786786.87721        18.250           1.156
 91  5 29 19 14 29.9990000  0  6G18G19G 2G11G16G 6
  23718082.433    14643954.707 5  11410841.39221        10.000           0.469
  21100545.480     2134188.477 6   1662998.99422        17.500           2.156
  20720773.378   -14622930.547 8 -11394478.58323        28.250           3.250
  22955788.870    -3210483.061 6  -2501671.81721        17.500           0.906
  23642508.526    -2191710.117 5  -1568142.43221         8.500           0.281
  21962902.222   -12888689.098 6  -9813790.43221        18.500           1.281
 91  5 29 19 14 44.9990000  0  6G18G19G 2G11G16G 6
  23727748.136    14694745.065 5  11450418.12821         9.750           0.469
  21103965.628     2152174.549 6   1677014.08522        18.500           2.250
  20716337.034   -14646243.644 7 -11412644.62323        27.500           3.281
  22959688.097    -3189998.221 6  -2485709.64021        17.500           0.969
  23645993.956    -2173354.913 5  -1553839.75821         8.000           0.438
  21956314.050   -12923317.929 6  -9840773.92821        18.500           1.156
 91  5 29 19 14 59.9990000  0  6G18G19G 2G11G16G 6
  23737419.409    14745562.936 5  11490016.26721         9.500           0.438
  21107405.183     2170227.160 6   1691081.02922        17.500           2.219
  20711915.831   -14669475.907 8 -11430747.66923        28.250           3.313
  22963610.792    -3169374.139 6  -2469638.94821        17.500           0.906
  23649508.925    -2154900.757 5  -1539459.97321         8.000           0.406
  21949724.714   -12957924.129 6  -9867739.78421        17.500           1.188
 91  5 29 19 15 14.9990000  0  6G18G19G 2G11G16G 6
  23747094.308    14796408.506 5  11529636.01421        10.500           0.375
  21110849.300     2188347.032 6   1705200.37722        18.250           2.063
  20707511.081   -14692626.788 8 -11448787.30823        28.000           3.125
  22967561.690    -3148610.434 6  -2453459.45921        17.500           0.781
  23653036.206    -2136347.714 4  -1525003.14221         6.500           0.438
  21943144.339   -12992506.984 6  -9894687.44421        18.500           1.250
 91  5 29 19 15 29.9990000  0  6G18G19G 2G11G16G 6
  23756773.433    14847284.050 5  11569279.15621         9.250           0.344
  21114314.581     2206536.153 6   1719373.69022        18.250           2.031
  20703120.425   -14715694.223 8 -11466761.90823        28.500           3.281
  22971542.784    -3127705.233 6  -2437169.72421        17.500           0.875
  23656588.081    -2117693.536 4  -1510467.50121         6.250           0.375
  21936569.589   -13027064.384 6  -9921615.27021        18.500           1.313
 91  5 29 19 15 44.9990000  0  6G18G19G 2G11G16G 6
  23766461.917    14898190.029 5  11608945.97321         8.500           0.594
  21117785.667     2224795.404 6   1733601.64922        18.000           1.969
  20698747.089   -14738677.349 8 -11484670.82423        28.500           3.250
  22975547.706    -3106657.879 6  -2420769.20421        18.500           0.906
  23660156.706    -2098937.787 4  -1495852.72821         6.500           0.313
  21930000.230   -13061595.243 6  -9948522.41221        19.250           1.219
 91  5 29 19 15 59.9990000  0  6G18G19G 2G11G16G 6
  23776158.542    14949126.654 5  11648636.66921         8.500           0.313
  21121278.198     2243125.446 6   1747884.76822        16.250           1.906
  20694391.073   -14761575.559 8 -11502513.56723        29.500           3.094
  22979580.815    -3085467.900 6  -2404257.55621        17.250           0.844
  23663747.050    -2080080.262 5  -1481158.62921         7.500           0.219
  21923434.667   -13096099.037 6  -9975408.47021        19.500           1.156
 91  5 29 19 16 14.9990000  0  6G18G19G 2G11G16G 6
  23785853.347    15000089.132 5  11688347.52021         8.250           0.344
  21124769.628     2261521.589 6   1762219.39722        16.750           2.094
  20690046.972   -14784393.547 8 -11520293.80323        28.500           3.313
  22983640.034    -3064140.271 6  -2387638.64521        17.750           0.813
  23667358.573    -2061125.718 5  -1466388.92821         9.250           0.219
  21916870.339   -13130580.270 6 -10002276.94521        19.000           1.281
 91  5 29 19 16 29.9990000  0  6G18G19G 2G11G16G 6
  23795554.683    15051075.931 5  11728077.30421         8.750           0.281
  21128290.901     2279982.717 6   1776604.66022        15.500           2.031
  20685722.300   -14807132.374 8 -11538012.35923        29.000           3.281
  22987721.894    -3042676.337 6  -2370913.52021        16.750           0.875
  23670974.253    -2042075.706 5  -1451544.85421         8.500           0.375
  21910313.597   -13165040.036 6 -10029128.68721        19.000           1.313
 91  5 29 19 16 44.9990000  0  6G18G19G 2G11G16G 6
  23805268.151    15102091.901 5  11767829.84221         8.750           0.313
  21131813.964     2298514.145 6   1791044.71122        17.000           2.031
  20681411.011   -14829787.115 8 -11555665.39023        29.000           3.281
  22991833.636    -3021071.166 6  -2354078.33421        17.000           0.906
  23674621.683    -2022925.337 5  -1436622.60121         7.750           0.438
  21903761.706   -13199473.118 6 -10055959.64121        19.250           1.281
 91  5 29 19 16 59.9990000  0  6G18G19G 2G11G16G 6
  23814974.315    15153133.337 4  11807602.22121         7.000           0.125
  21135354.870     2317112.577 6   1805536.97122        16.500           2.063
  20677114.870   -14852361.026 8 -11573255.44823        29.250           3.281
  22995969.284    -2999328.334 6  -2337135.88821        16.500           0.969
  23678290.409    -2003678.448 5  -1421625.08621         9.000           0.406
  21897214.808   -13233882.712 6 -10082772.30621        19.500           1.281
 91  5 29 19 17 14.9990000  0  6G18G19G 2G11G16G 6
  23824694.495    15204203.613 5  11847397.08621         7.500           0.219
  21138904.597     2335781.113 6   1820083.85822        17.000           1.969
  20672834.183   -14874850.795 8 -11590779.92623        28.500           3.219
  23000135.706    -2977444.676 6  -2320083.71021        17.000           0.875
  23681963.151    -1984331.627 5  -1406549.72721         8.750           0.438
  21890670.112   -13268265.343 6 -10109563.94521        19.500           1.250
 91  5 29 19 17 29.9990000  0  6G18G19G 2G11G16G 6
  23834420.378    15255302.039 5  11887213.84121         8.250           0.344
  21142471.776     2354519.840 6   1834685.43522        16.000           2.000
  20668570.745   -14897256.705 8 -11608239.05723        28.500           3.313
  23004328.925    -2955420.568 6  -2302922.09421        17.000           0.969
  23685669.472    -1964885.695 5  -1391397.12121         8.500           0.438
  21884131.026   -13302621.188 6 -10136334.71721        19.500           1.188
 91  5 29 19 17 44.9990000  0  6G18G19G 2G11G16G 6
  23844145.440    15306420.940 5  11927046.56621         8.250           0.156
  21146049.276     2373321.474 6   1849336.03822        17.000           2.094
  20664321.862   -14919585.995 8 -11625638.49823        29.000           3.219
  23008543.933    -2933263.697 6  -2285657.02721        17.500           0.938
  23689390.378    -1945348.474 5  -1376173.38521         8.750           0.375
  21877597.534   -13336957.492 6 -10163090.25821        19.000           1.063
 91  5 29 19 17 59.9990000  0  6G18G19G 2G11G16G 6
  23853876.550    15357568.761 5  11966901.83821         8.250           0.219
  21149643.206     2392194.627 6   1864042.36222        16.500           2.125
  20660089.636   -14941830.112 8 -11642971.56023        29.250           3.188
  23012783.948    -2910965.650 6  -2268281.94921        16.750           0.906
  23693128.409    -1925711.318 5  -1360871.79821         8.750           0.438
  21871069.245   -13371265.588 6 -10189823.83121        18.250           1.125
 91  5 29 19 18 14.9990000  0  6G18G19G 2G11G16G 6
  23863615.425    15408742.775 5  12006777.52421         8.250           0.250
  21153245.480     2411136.878 6   1878802.52522        17.250           2.094
  20655872.315   -14963991.511 8 -11660240.17323        29.500           3.156
  23017055.925    -2888529.038 6  -2250798.89421        16.500           0.906
  23696877.065    -1905977.113 5  -1345494.57121         8.500           0.281
  21864547.792   -13405547.652 6 -10216537.10421        18.750           1.156
 91  5 29 19 18 29.9990000  0  6G18G19G 2G11G16G 6
  23873360.683    15459940.431 5  12046671.63121         9.000           0.344
  21156862.698     2430145.872 6   1893614.70522        16.500           2.125
  20651669.612   -14986072.805 8 -11677446.36723        29.750           3.219
  23021350.815    -2865956.773 6  -2233210.12221        16.500           0.844
  23700650.745    -1886148.458 5  -1330043.75921         7.750           0.344
  21858024.675   -13439806.224 6 -10243232.07921        18.250           1.281
 91  5 29 19 18 44.9990000  0  6G18G19G 2G11G16G 6
  23883107.917    15511166.497 5  12086587.84621        10.000           0.219
  21160492.581     2449226.711 6   1908482.86322        17.000           1.969
  20647485.151   -15008068.649 8 -11694585.97523        29.500           3.156
  23025670.034    -2843243.780 6  -2215511.70721        16.500           0.969
  23704443.980    -1866220.742 5  -1314515.76921         8.000           0.438
  21851514.245   -13474035.961 6 -10269904.57821        18.500           1.156
 91  5 29 19 18 59.9990000  0  6G18G19G 2G11G16G 6
  23892862.714    15562416.839 5  12126523.03121        10.250           0.313
  21164138.339     2468375.479 6   1923403.95622        17.250           2.063
  20643312.284   -15029983.084 8 -11711662.14823        28.250           3.125
  23030023.690    -2820394.282 6  -2197706.92021        17.750           0.750
  23708258.112    -1846197.777 5  -1298913.54621         7.500           0.375
  21845004.073   -13508240.766 6 -10296557.66421        18.750           1.156
 91  5 29 19 19 14.9990000  0  6G18G19G 2G11G16G 6
  23902620.261    15613693.929 5  12166479.05221         9.500           0.438
  21167798.339     2487595.214 6   1938380.34522        17.750           2.094
  20639159.714   -15051813.104 8 -11728672.53923        28.250           3.281
  23034395.659    -2797405.485 6  -2179793.59621        17.500           0.875
  23712082.261    -1826077.389 5  -1283235.39321         8.250           0.469
  21838501.565   -13542417.592 6 -10323188.94021        18.750           1.281
 91  5 29 19 19 29.9990000  0  6G18G19G 2G11G16G 6
  23912380.862    15664993.885 5  12206452.83721         9.250           0.281
  21171466.355     2506882.408 6   1953409.29622        17.000           2.094
  20635021.222   -15073562.089 8 -11745619.78823        28.750           3.156
  23038797.175    -2774281.094 6  -2161774.60021        17.250           0.719
  23715930.565    -1805862.994 5  -1267483.98521         9.250           0.438
  21831999.815   -13576569.775 6 -10349801.01021        18.250           1.125
 91  5 29 19 19 44.9990000  0  6G18G19G 2G11G16G 6
  23922150.308    15716321.616 5  12246448.27521         8.250           0.281
  21175148.800     2526242.237 6   1968494.85322        17.500           2.094
  20630897.042   -15095225.246 8 -11762500.16223        28.250           3.094
  23043222.198    -2751016.382 6  -2143646.26021        17.750           0.750
  23719798.917    -1785550.139 5  -1251655.88121         9.500           0.375
  21825510.065   -13610692.304 6 -10376389.97021        18.500           1.125
 91  5 29 19 19 59.9990000  0  6G18G19G 2G11G16G 6
  23931920.761    15767670.973 5  12286460.52921         7.750           0.438
  21178848.526     2545668.584 6   1983632.23322        17.000           2.094
  20626792.886   -15116808.491 8 -11779318.26523        28.750           3.125
  23047678.355    -2727617.629 6  -2125413.46021        17.750           0.781
  23723679.456    -1765145.228 5  -1235756.04221         9.500           0.313
  21819018.839   -13644791.009 6 -10402960.37321        18.500           1.125
 91  5 29 19 20 14.9990000  0  6G18G19G 2G11G16G 6
  23941699.433    15819042.768 5  12326490.31221         8.250           0.438
  21182556.253     2565162.623 6   1998822.36722        17.250           2.031
  20622700.050   -15138310.732 8 -11796073.24623        28.500           3.250
  23052153.308    -2704083.938 6  -2107075.53621        17.500           0.844
  23727581.089    -1744647.433 5  -1219783.80921         9.000           0.188
  21812533.355   -13678864.664 6 -10429511.25821        18.750           1.156
 91  5 29 19 20 29.9990000  0  6G18G19G 2G11G16G 6
  23951474.105    15870437.159 4  12366537.71821         6.750           0.281
  21186280.761     2584724.808 6   2014065.60422        17.500           2.094
  20618622.628   -15159731.442 7 -11812764.70123        27.750           3.313
  23056661.136    -2680415.028 6  -2088632.24721        17.500           0.875
  23731498.097    -1724056.524 5  -1203739.03621         8.500           0.219
  21806053.886   -13712912.673 6 -10456042.15421        18.750           1.125
 91  5 29 19 20 44.9990000  0  6G18G19G 2G11G16G 6
  23961259.894    15921854.139 3  12406602.69221         5.750           0.500
  21190015.472     2604355.684 6   2029362.36022        18.000           2.031
  20614562.573   -15181070.146 8 -11829392.25523        28.250           3.156
  23061186.737    -2656610.730 6  -2070083.47121        16.500           0.906
  23735437.128    -1703372.336 5  -1187621.53821         8.000           0.219
  21799582.839   -13746934.526 6 -10482552.66921        19.000           1.125
 91  5 29 19 20 59.9980000  0  6G18G19G 2G11G16G 6
  23971050.678    15973290.675 4  12446682.94121         7.250           0.375
  21193764.381     2624054.453 6   2044712.02622        16.250           2.063
  20610519.654   -15202325.180 8 -11845954.59923        29.000           3.125
  23065740.740    -2632672.453 6  -2051430.28221        17.000           0.938
  23739387.131    -1682596.012 4  -1171432.32621         7.000           0.281
  21793113.006   -13780927.446 6 -10509040.63321        19.000           1.063
 91  5 29 19 21 14.9980000  0  6G18G19G 2G11G16G 6
  23980841.772    16024755.497 4  12486785.24021         6.250           0.406
  21197526.787     2643825.801 6   2060118.23422        18.000           1.938
  20606488.107   -15223497.332 8 -11862452.37423        28.000           3.219
  23070324.709    -2608595.206 6  -2032668.80921        17.250           0.906
  23743355.381    -1661723.244 4  -1155167.91921         7.250           0.250
  21786650.076   -13814893.709 6 -10535507.83021        18.750           1.188
 91  5 29 19 21 29.9980000  0  6G18G19G 2G11G16G 6
  23990639.623    16076240.028 4  12526902.82921         6.500           0.344
  21201300.436     2663663.697 6   2075576.30722        17.500           1.969
  20602476.920   -15244589.934 8 -11878888.16223        28.000           3.031
  23074931.537    -2584385.675 6  -2013804.25721        17.500           0.938
  23747350.342    -1640760.397 5  -1138833.34621         8.000           0.219
  21780192.561   -13848835.907 6 -10561956.26221        19.000           1.000
 91  5 29 19 21 44.9980000  0  6G18G19G 2G11G16G 6
  24000439.522    16127746.752 4  12567037.74121         7.250           0.281
  21205086.959     2683571.207 6   2091088.62422        18.000           2.063
  20598477.365   -15265600.053 7 -11895259.66523        27.250           3.250
  23079562.857    -2560041.151 6  -1994834.51921        16.750           0.781
  23751356.881    -1619704.856 5  -1122426.52621         9.500           0.344
  21773736.943   -13882750.859 6 -10588383.48621        19.500           1.031
 91  5 29 19 21 59.9980000  0  6G18G19G 2G11G16G 6
  24010249.537    16179277.887 4  12607191.72121         7.250           0.438
  21208892.326     2703550.481 6   2106656.85222        16.750           2.000
  20594495.975   -15286525.568 7 -11911565.25323        27.750           3.094
  23084222.139    -2535559.466 6  -1975757.89921        16.750           0.813
  23755382.397    -1598554.528 5  -1105945.79921         9.000           0.250
  21767288.943   -13916636.251 6 -10614787.66921        19.000           1.125
 91  5 29 19 22 14.9980000  0  6G18G19G 2G11G16G 6
  24020058.936    16230830.996 4  12647362.77421         6.750           0.375
  21212704.662     2723599.254 6   2122279.24422        17.750           1.906
  20590527.686   -15307368.605 7 -11927806.57323        27.250           3.000
  23088910.006    -2510943.146 6  -1956576.37021        16.750           0.719
  23759428.139    -1577312.241 5  -1089393.46021        10.250           0.313
  21760844.881   -13950494.129 6 -10641170.41421        19.000           1.250
 91  5 29 19 22 29.9980000  0  5G19G 2G11G16G 6
  21216534.576     2743718.305 6   2137956.39222        18.250           1.906
  20586579.131   -15328128.563 8 -11943983.15323        28.500           3.063
  23093620.381    -2486191.690 6  -1937289.53921        16.750           0.719
  23763481.053    -1555977.193 5  -1072768.82521         9.000           0.250
  21754409.162   -13984323.713 6 -10667531.10621        19.250           1.188
 91  5 29 19 22 44.9980000  0  5G19G 2G11G16G 6
  21220376.045     2763905.466 6   2153686.61622        18.500           1.938
  20582641.850   -15348807.672 7 -11960096.73223        27.750           3.031
  23098353.865    -2461307.702 6  -1917899.42321        16.750           0.781
  23767560.092    -1534552.019 5  -1056073.97721         9.000           0.250
  21747974.311   -14018127.194 6 -10693871.46621        19.250           1.344
 91  5 29 19 22 59.9980000  0  5G19G 2G11G16G 6
  21224232.982     2784163.318 6   2169471.92722        18.250           1.906
  20578722.693   -15369403.244 8 -11976145.21923        28.000           3.094
  23103111.475    -2436288.859 6  -1898404.24921        16.250           0.750
  23771653.201    -1513034.755 5  -1039307.35721         8.000           0.344
  21741548.529   -14051901.848 6 -10720189.35421        19.500           1.281
 91  5 29 19 23 14.9980000  0  5G19G 2G11G16G 6
  21228099.982     2804487.581 6   2185308.97822        18.500           1.969
  20574820.131   -15389919.791 8 -11992132.12923        29.000           3.188
  23107900.475    -2411139.822 6  -1878807.62521        16.250           0.844
  23775770.607    -1491430.038 5  -1022472.61021         8.000           0.406
  21735125.443   -14085651.937 6 -10746488.10521        19.500           1.156
 91  5 29 19 23 29.9980000  0  5G19G 2G11G16G 6
  21231979.139     2824877.002 6   2201196.81122        17.750           1.938
  20570930.014   -15410358.488 8 -12008058.38023        28.500           3.250
  23112707.928    -2385862.052 6  -1859110.68721        16.500           0.875
  23779892.514    -1469739.637 5  -1005571.08721         8.500           0.375
  21728708.389   -14119378.786 6 -10772768.76121        19.500           1.125
 91  5 29 19 23 44.9980000  0  5G19G 2G11G16G 6
  21235871.443     2845339.867 6   2217141.87522        18.250           2.000
  20567057.061   -15430711.137 8 -12023917.57423        28.500           3.156
  23117542.623    -2360447.475 6  -1839307.15621        16.750           0.719
  23784039.865    -1447955.459 5   -988596.52621         9.250           0.438
  21722295.693   -14153073.807 6 -10799024.61021        19.000           1.219
 91  5 29 19 23 59.9980000  0  5G19G 2G11G16G 6
  21239778.920     2865874.509 6   2233142.86322        18.250           2.031
  20563199.943   -15450979.477 8 -12039711.07523        28.000           3.125
  23122411.654    -2334898.126 6  -1819398.58521        17.750           0.750
  23788207.217    -1426079.342 5   -971550.27721         9.750           0.344
  21715889.459   -14186738.586 6 -10825256.88021        19.000           1.344
 91  5 29 19 24 14.9980000  0  5G19G 2G11G16G 6
  21243700.592     2886479.103 6   2249198.36322        18.000           1.938
  20559359.232   -15471165.498 8 -12055440.42723        28.500           3.125
  23127294.459    -2309216.061 6  -1799386.59821        16.250           0.875
  23792382.014    -1404113.656 5   -954434.24521         9.500           0.250
  21709487.451   -14220375.016 6 -10851467.06721        18.750           1.469
 91  5 29 19 24 29.9980000  0  5G19G 2G11G16G 6
  21247641.217     2907153.455 6   2265308.21422        17.250           1.938
  20555532.607   -15491269.405 8 -12071105.79623        28.250           3.063
  23132207.701    -2283401.810 6  -1779271.61121        16.250           0.906
  23796579.459    -1382058.726 5   -937248.67921         9.500           0.313
  21703092.240   -14253983.177 6 -10877655.21921        19.250           1.281
 91  5 29 19 24 44.9980000  0  5G19G 2G11G16G 6
  21251583.607     2927899.185 6   2281473.68722        17.750           1.938
  20551724.037   -15511289.360 8 -12086705.76023        29.000           3.125
  23137145.443    -2257453.939 6  -1759052.52421        16.000           0.844
  23800790.623    -1359913.315 5   -919992.59121         8.750           0.375
  21696703.717   -14287561.191 6 -10903819.89621        18.500           1.344
 91  5 29 19 24 59.9980000  0  5G19G 2G11G16G 6
  21255545.709     2948711.886 6   2297691.34822        17.250           1.844
  20547928.857   -15531230.042 8 -12102243.93523        29.000           3.125
  23142107.647    -2231377.231 6  -1738733.03221        16.500           0.844
  23805018.982    -1337682.393 5   -902669.89521         8.000           0.313
  21690319.389   -14321113.646 6 -10929964.65021        19.500           1.469
 91  5 29 19 25 14.9980000  0  5G19G 2G11G16G 6
  21259517.647     2969595.287 6   2313964.09322        17.750           1.875
  20544151.006   -15551087.931 8 -12117717.59923        29.500           3.219
  23147094.357    -2205168.425 6  -1718310.62121        16.500           0.750
  23809273.186    -1315362.868 5   -885278.13821         8.250           0.188
  21683940.365   -14354636.878 6 -10956086.62821        18.750           1.219
 91  5 29 19 25 29.9980000  0  5G19G 2G11G16G 6
  21263508.232     2990542.768 6   2330286.77822        16.750           1.938
  20540385.740   -15570869.689 8 -12133131.94223        29.500           3.219
  23152106.295    -2178834.288 6  -1697790.54421        16.250           0.844
  23813534.037    -1292961.424 5   -867822.56421         8.750           0.219
  21677564.357   -14388137.123 6 -10982190.70621        19.500           1.344
 91  5 29 19 25 44.9980000  0  5G19G 2G11G16G 6
  21267503.342     3011560.527 6   2346664.22222        17.750           1.906
  20536637.725   -15590569.002 8 -12148482.04823        29.750           3.094
  23157144.732    -2152368.842 6  -1677168.14321        16.250           0.719
  23817810.631    -1270471.927 5   -850298.37021         8.500           0.281
  21671194.764   -14421608.101 6 -11008271.97721        18.750           1.313
 91  5 29 19 25 59.9980000  0  5G19G 2G11G16G 6
  21271517.279     3032647.600 6   2363095.66922        17.500           1.781
  20532904.717   -15610186.927 8 -12163768.73523        29.750           3.094
  23162199.318    -2125773.425 6  -1656444.47221        15.250           0.563
  23822106.443    -1247895.904 5   -832706.74521         8.250           0.281
  21664831.061   -14455050.879 6 -11034331.27721        18.750           1.344
 91  5 29 19 26 14.9980000  0  4G19G 2G11G 6
  21275542.006     3053804.511 6   2379581.54922        17.750           1.813
  20529185.443   -15629722.738 8 -12178991.43623        29.250           3.031
  23167288.834    -2099047.591 6  -1635619.16021        16.500           0.688
  21658471.381   -14488464.352 6 -11060367.72921        18.750           1.406
 91  5 29 19 26 29.9980000  0  4G19G 2G11G 6
  21279584.006     3075030.244 6   2396121.04422        16.250           1.750
  20525485.576   -15649177.775 8 -12194151.19323        29.750           3.125
  23172399.264    -2072192.894 6  -1614693.43621        16.500           0.656
  21652117.772   -14521849.891 6 -11086382.43221        18.750           1.344
 91  5 29 19 26 44.9980000  0  4G19G 2G11G 6
  21283634.607     3096325.847 6   2412714.98522        18.000           1.813
  20521798.022   -15668551.015 8 -12209247.20423        29.250           3.156
  23177535.381    -2045208.496 6  -1593666.65221        16.500           0.750
  21645770.693   -14555206.432 6 -11112374.51221        19.000           1.375
 91  5 29 19 26 59.9980000  0  4G19G 2G11G 6
  21287699.428     3117690.704 6   2429362.89922        17.250           1.906
  20518125.834   -15687843.139 8 -12224280.01823        29.500           3.188
  23182695.686    -2018095.401 6  -1572539.58221        15.750           0.781
  21639427.920   -14588534.364 6 -11138344.31421        19.000           1.344
 91  5 29 19 27 14.9980000  0  4G19G 2G11G 6
  21291777.084     3139125.387 6   2446065.21822        18.000           1.844
  20514470.318   -15707053.599 8 -12239249.19423        29.000           3.156
  23187877.795    -1990853.301 6  -1551312.00121        15.750           0.750
  21633092.209   -14621833.066 7 -11164291.35121        20.000           1.250
 91  5 29 19 27 29.9980000  0  4G19G 2G11G 6
  21295874.334     3160630.205 6   2462822.19022        17.250           1.781
  20510830.701   -15726182.044 8 -12254154.46823        29.250           3.063
  23193088.397    -1963482.246 6  -1529983.93321        15.750           0.750
  21626760.936   -14655102.104 6 -11190215.26421        18.750           1.375
 91  5 29 19 27 44.9980000  0  4G19G 2G11G 6
  21299977.107     3182207.435 6   2479635.58022        18.000           1.781
  20507205.147   -15745226.274 8 -12268994.11023        29.000           3.063
  23198320.279    -1935980.254 6  -1508553.82921        15.250           0.875
  21620437.639   -14688339.146 6 -11216114.23821        19.500           1.438
 91  5 29 19 27 59.9980000  0  4G19G 2G11G 6
  21304097.490     3203856.762 6   2496505.15022        17.000           1.813
  20503599.131   -15764186.660 8 -12283768.42623        29.250           3.094
  23203576.881    -1908347.934 6  -1487022.18421        15.250           0.844
  21614119.615   -14721544.261 7 -11241988.34021        20.250           1.406
 91  5 29 19 28 14.9980000  0  4G19G 2G11G 6
  21308231.740     3225577.257 6   2513430.18422        18.000           1.688
  20500006.889   -15783064.315 8 -12298478.28123        29.000           3.125
  23208860.365    -1880586.489 6  -1465389.92821        15.500           0.781
  21607805.342   -14754718.413 6 -11267838.31421        19.750           1.406
 91  5 29 19 28 29.9980000  0  4G19G 2G11G 6
  21312380.678     3247368.816 6   2530410.58822        16.250           1.719
  20496428.498   -15801859.521 8 -12313123.88623        28.750           3.156
  23214166.748    -1852696.295 6  -1443657.33621        15.750           0.844
  21601498.678   -14787861.631 7 -11293664.18321        20.250           1.438
 91  5 29 19 28 44.9980000  0  4G19G 2G11G 6
  21316538.178     3269229.677 6   2547444.98622        18.000           1.750
  20492867.365   -15820573.987 8 -12327706.57923        28.500           3.125
  23219499.248    -1824679.494 6  -1421826.08921        16.000           0.813
  21595196.998   -14820975.615 6 -11319467.27721        19.750           1.344
 91  5 29 19 28 59.9980000  0  4G19G 2G11G 6
  21320712.678     3291158.887 6   2564532.64922        16.250           1.781
  20489320.928   -15839208.657 8 -12342227.09123        28.500           3.219
  23224856.022    -1796537.312 6  -1399897.15221        16.250           0.781
  21588901.959   -14854061.058 7 -11345248.13621        20.000           1.375
 91  5 29 19 29 14.9980000  0  4G19G 2G11G 6
  21324895.787     3313157.069 6   2581674.06622        17.250           1.719
  20485792.029   -15857763.003 8 -12356685.01623        29.500           3.094
  23230231.248    -1768269.461 6  -1377870.28821        16.000           0.625
  21582611.865   -14887117.498 6 -11371006.38721        19.750           1.438
 91  5 29 19 29 29.9980000  0  4G19G 2G11G 6
  21329095.357     3335224.174 6   2598869.17822        16.750           1.719
  20482275.787   -15876237.057 8 -12371080.38223        29.250           3.125
  23235635.967    -1739876.310 6  -1355745.77721        16.000           0.750
  21576326.631   -14920144.868 6 -11396741.98921        19.500           1.375
 91  5 29 19 29 44.9980000  0  4G19G 2G11G 6
  21333307.678     3357362.740 6   2616119.97722        17.250           1.813
  20478775.826   -15894628.200 8 -12385411.12923        28.750           3.219
  23241061.943    -1711355.575 6  -1333521.85621        15.750           0.719
  21570048.014   -14953140.296 7 -11422452.69821        20.500           1.344
 91  5 29 19 29 59.9980000  0  4G19G 2G11G 6
  21337533.131     3379569.237 6   2633423.70822        16.750           1.781
  20475290.404   -15912940.129 8 -12399680.15423        28.250           3.188
  23246514.084    -1682710.895 6  -1311201.34521        15.750           0.656
  21563774.912   -14986107.275 7 -11448141.24822        21.000           1.500
 91  5 29 19 30 14.9980000  0  4G19G 2G11G 6
  21341772.029     3401849.856 6   2650785.19822        17.000           1.719
  20471823.131   -15931166.755 8 -12413882.71123        28.500           3.125
  23251991.404    -1653936.454 6  -1288779.73621        15.250           0.719
  21557509.022   -15019039.498 7 -11473802.70521        21.000           1.438
 91  5 29 19 30 29.9980000  0  4G19G 2G11G 6
  21346030.561     3424200.603 6   2668201.33122        17.250           1.750
  20468369.615   -15949311.930 8 -12428021.79823        28.250           3.094
  23257490.256    -1625036.651 6  -1266260.44621        14.750           0.719
  21551246.412   -15051940.829 7 -11499440.09921        21.000           1.469
 91  5 29 19 30 44.9980000  0  4G19G 2G11G 6
  21350292.107     3446616.579 6   2685668.29722        17.750           1.781
  20464932.045   -15967380.620 8 -12442101.29423        28.000           3.125
  23263010.717    -1596016.587 6  -1243647.43821        14.750           0.688
  21544990.850   -15084816.137 7 -11525057.20922        21.500           1.563
 91  5 29 19 30 59.9980000  0  4G19G 2G11G 6
  21354573.897     3469103.425 6   2703190.48022        17.250           1.781
  20461507.920   -15985367.232 7 -12456116.82623        27.500           3.188
  23268557.014    -1566871.032 6  -1220936.64221        15.250           0.688
  21538742.045   -15117659.595 7 -11550649.50222        22.000           1.563
 91  5 29 19 31 14.9980000  0  4G19G 2G11G 6
  21358864.318     3491658.188 6   2720765.59122        17.750           1.688
  20458101.725   -16003275.037 7 -12470070.94923        27.750           3.250
  23274125.350    -1537603.321 6  -1198130.65921        15.250           0.781
  21532496.615   -15150474.240 7 -11576219.34022        21.500           1.563
 91  5 29 19 31 29.9980000  0  4G19G 2G11G 6
  21363170.959     3514285.399 6   2738397.15022        17.000           1.813
  20454709.506   -16021099.468 8 -12483960.10823        28.500           3.125
  23279720.732    -1508209.195 6  -1175226.15321        15.250           0.719
  21526259.951   -15183255.550 7 -11601763.21022        21.500           1.594
 91  5 29 19 31 44.9980000  0  4G19G 2G11G 6
  21367488.490     3536985.773 6   2756085.72022        17.500           1.719
  20451332.459   -16038839.745 8 -12497783.69923        28.000           3.219
  23285340.037    -1478688.084 6  -1152222.72021        15.500           0.719
  21520028.420   -15216002.357 7 -11627280.18922        21.750           1.656
 91  5 29 19 31 59.9980000  0  4G19G 2G11G 6
  21371823.248     3559749.226 6   2773823.44622        17.000           1.750
  20447970.623   -16056506.059 8 -12511549.65023        28.000           3.031
  23290978.412    -1449050.515 6  -1129128.55721        15.500           0.781
  21513800.412   -15248724.913 7 -11652778.27122        21.750           1.563
 91  5 29 19 32 14.9980000  0  4G19G 2G11G 6
  21376166.467     3582586.574 6   2791618.74922        17.750           1.750
  20444625.975   -16074087.766 8 -12525249.68023        28.000           3.063
  23296640.225    -1419285.939 6  -1105935.40021        14.750           0.750
  21507579.787   -15281412.332 7 -11678248.98821        22.000           1.469
 91  5 29 19 32 29.9980000  0  4G19G 2G11G 6
  21380525.990     3605488.558 6   2809464.41922        17.500           1.750
  20441294.850   -16091593.987 8 -12538890.88623        28.750           3.000
  23302334.318    -1389403.876 6  -1082650.70421        15.250           0.719
  21501364.990   -15314073.391 7 -11703699.14722        22.000           1.500
 91  5 29 19 32 44.9980000  0  4G19G 2G11G 6
  21384896.100     3628460.948 6   2827364.95522        17.750           1.844
  20437979.279   -16109018.970 8 -12552468.79123        28.500           3.281
  23308041.272    -1359398.948 6  -1059270.28121        15.000           0.719
  21495155.068   -15346702.511 7 -11729124.42522        21.500           1.563
 91  5 29 19 32 59.9980000  0  4G19G 2G11G 6
  21389279.451     3651504.469 6   2845320.91122        16.750           1.781
  20434678.053   -16126362.241 8 -12565983.01923        29.000           3.219
  23313771.873    -1329270.828 6  -1035793.85721        14.250           0.688
  21488952.498   -15379298.840 7 -11754524.14621        21.500           1.469
 91  5 29 19 33 14.9980000  0  4G19G 2G11G 6
  21393679.670     3674617.509 6   2863331.03722        17.500           1.781
  20431393.178   -16143625.364 8 -12579434.79323        28.750           3.125
  23319529.115    -1299021.277 6  -1012222.81421        14.500           0.656
  21482755.232   -15411863.887 7 -11779899.48522        21.500           1.500
 91  5 29 19 33 29.9980000  0  4G19G 2G11G 6
  21398093.412     3697801.837 6   2881396.71722        16.000           1.719
  20428123.568   -16160806.671 8 -12592822.81823        28.750           3.031
  23325311.607    -1268648.953 6   -988556.10321        15.250           0.813
  21476565.240   -15444395.701 7 -11805248.93222        21.750           1.500
 91  5 29 19 33 44.9980000  0  4G19G 2G11G 6
  21402517.576     3721058.420 6   2899518.69622        17.500           1.688
  20424869.982   -16177905.452 8 -12606146.54523        28.750           3.094
  23331114.318    -1238153.209 6   -964793.22421        14.500           0.688
  21470381.459   -15476893.308 7 -11830571.73522        22.000           1.531
 91  5 29 19 33 59.9980000  0  4G19G 2G11G 6
  21406954.561     3744377.910 6   2917689.69722        16.500           1.719
  20421630.061   -16194931.054 8 -12619413.24023        28.500           3.188
  23336935.443    -1207543.695 6   -940941.68221        14.500           0.625
  21464202.342   -15509365.853 7 -11855875.00122        21.500           1.531
 91  5 29 19 34 14.9980000  0  4G19G 2G11G 6
  21411404.904     3767764.166 6   2935912.72122        17.500           1.750
  20418404.193   -16211879.368 8 -12632619.71023        28.250           3.156
  23342785.748    -1176816.664 6   -916998.57921        15.500           0.688
  21458027.623   -15541809.199 7 -11881155.51321        21.250           1.469
 91  5 29 19 34 29.9980000  0  4G19G 2G11G 6
  21415871.990     3791221.062 6   2954190.78922        15.750           1.594
  20415195.576   -16228746.740 8 -12645763.10823        28.500           3.094
  23348654.959    -1145968.784 6   -892961.30721        15.000           0.625
  21451858.506   -15574219.507 7 -11906410.28722        21.750           1.656
 91  5 29 19 34 44.9980000  0  4G19G 2G11G 6
  21420344.631     3814749.909 6   2972524.92622        17.250           1.813
  20412001.623   -16245531.931 8 -12658842.47923        28.750           3.313
  23354546.834    -1114999.051 6   -868829.08621        14.500           0.688
  21445698.272   -15606595.520 7 -11931638.32822        21.500           1.688
 91  5 29 19 34 59.9980000  0  4G19G 2G11G 6
  21424836.670     3838346.053 6   2990911.49922        16.750           1.719
  20408821.568   -16262239.562 8 -12671861.41723        28.750           3.156
  23360462.561    -1083912.351 6   -844605.72221        14.250           0.719
  21439544.545   -15638941.584 7 -11956843.03922        21.750           1.656
 91  5 29 19 35 14.9980000  0  4G19G 2G11G 6
  21429339.029     3862004.426 6   3009346.55722        17.500           1.688
  20405656.951   -16278874.717 8 -12684823.87523        28.250           3.281
  23366398.397    -1052714.021 6   -820295.36321        14.250           0.688
  21433393.506   -15671262.515 7 -11982028.16722        20.750           1.563
 91  5 29 19 35 29.9980000  0  4G19G 2G11G 6
  21433856.639     3885734.782 6   3027837.71522        16.750           1.688
  20402507.076   -16295427.526 8 -12697722.16023        28.000           3.313
  23372362.764    -1021394.617 6   -795890.66221        15.000           0.500
  21427249.342   -15703548.618 7 -12007186.15622        21.000           1.625
 91  5 29 19 35 44.9980000  0  4G19G 2G11G 6
  21438382.295     3909532.989 6   3046381.73722        17.000           1.594
  20399370.459   -16311902.257 7 -12710559.60123        27.750           3.313
  23378342.623     -989958.599 6   -771395.09621        14.500           0.531
  21421110.756   -15735803.860 7 -12032320.10222        21.000           1.563
 91  5 29 19 35 59.9980000  0  4G19G 2G11G 6
  21442926.209     3933401.503 6   3064980.54222        16.750           1.688
  20396251.318   -16328296.824 8 -12723334.58323        28.250           3.250
  23384345.897     -958403.992 6   -746807.12221        14.500           0.438
  21414979.857   -15768025.867 7 -12057428.13622        21.000           1.594
 91  5 29 19 36 14.9980000  0  4G19G 2G11G 6
  21447481.865     3957340.241 6   3083634.07722        17.750           1.750
  20393146.311   -16344611.262 8 -12736047.13023        28.000           3.281
  23390372.764     -926731.210 6   -722127.06321        15.000           0.594
  21408854.951   -15800214.548 7 -12082510.21622        21.250           1.625
 91  5 29 19 36 29.9980000  0  4G19G 2G11G 6
  21452049.014     3981348.478 6   3102341.75922        17.500           1.688
  20390057.428   -16360846.142 8 -12748697.68623        28.500           3.219
  23396421.576     -894941.121 6   -697355.60021        15.500           0.781
  21402735.990   -15832370.388 7 -12107566.70222        21.750           1.500
 91  5 29 19 36 44.9980000  0  4G19G 2G11G 6
  21456628.654     4005425.457 6   3121103.00322        17.500           1.656
  20386984.623   -16377002.407 8 -12761286.97923        28.250           3.188
  23402497.287     -863034.881 6   -672493.66621        15.750           0.750
  21396623.889   -15864494.012 7 -12132598.07822        22.000           1.656
 91  5 29 19 36 59.9980000  0  4G19G 2G11G 6
  21461227.436     4029569.766 6   3139916.72322        16.000           1.688
  20383922.303   -16393081.605 7 -12773816.22023        27.750           3.156
  23408587.670     -831014.268 6   -647542.57921        16.500           0.719
  21390513.857   -15896586.763 7 -12157605.40622        21.500           1.656
 91  5 29 19 37 14.9980000  0  4G19G 2G11G 6
  21465831.428     4053782.648 6   3158783.87522        17.250           1.719
  20380879.006   -16409082.497 8 -12786284.44023        28.250           3.188
  23414703.709     -798878.322 6   -622501.62221        16.250           0.656
  21384415.115   -15928647.248 7 -12182587.59122        22.000           1.563
 91  5 29 19 37 29.9980000  0  4G19G 2G11G 6
  21470452.639     4078060.263 6   3177701.46022        16.500           1.781
  20377848.279   -16425008.940 8 -12798694.65423        28.750           3.156
  23420840.068     -766631.078 6   -597373.94721        16.250           0.594
  21378318.576   -15960679.189 7 -12207547.53522        22.250           1.656
 91  5 29 19 37 44.9980000  0  4G19G 2G11G 6
  21475087.725     4102409.833 6   3196675.12322        17.500           1.688
  20374833.912   -16440853.809 8 -12811041.30723        28.250           3.063
  23426998.467     -734265.644 6   -572154.16121        15.750           0.625
  21372231.373   -15992675.200 7 -12232479.48222        22.500           1.625
 91  5 29 19 37 59.9980000  0  4G19G 2G11G 6
  21479737.248     4126824.545 6   3215699.54022        16.500           1.688
  20371830.748   -16456623.851 8 -12823329.65023        28.000           3.156
  23433177.514     -701789.229 6   -546847.89421        14.500           0.594
  21366148.178   -16024642.132 7 -12257388.76522        21.750           1.688
 91  5 29 19 38 14.9980000  0  4G19G 2G11G 6
  21484389.568     4151305.411 6   3234775.50622        16.750           1.656
  20368845.139   -16472318.060 8 -12835558.89523        28.500           3.125
  23439381.022     -669201.092 6   -521454.57221        14.500           0.625
  21360068.295   -16056578.698 7 -12282274.38622        21.250           1.625
 91  5 29 19 38 29.9980000  0  4G19G 2G11G 6
  21489061.561     4175850.882 6   3253901.81422        16.750           1.594
  20365870.709   -16487938.046 8 -12847730.30923        28.500           3.156
  23445604.811     -636502.996 6   -495975.58821        13.750           0.500
  21354000.154   -16088486.125 7 -12307137.31022        22.250           1.625
 91  5 29 19 38 44.9980000  0  4G19G 2G11G 6
  21493745.443     4200465.272 6   3273081.82722        17.000           1.719
  20362915.568   -16503479.474 8 -12859840.50623        28.750           3.156
  23451846.123     -603691.153 6   -470407.97221        14.500           0.719
  21347931.787   -16120360.208 7 -12331974.24622        22.250           1.625
 91  5 29 19 38 59.9980000  0  4G19G 2G11G 6
  21498445.975     4225142.693 6   3292310.95822        15.500           1.625
  20359971.061   -16518948.327 8 -12871894.15723        28.750           3.188
  23458110.732     -570771.637 6   -444756.43621        14.750           0.500
  21341872.889   -16152206.697 7 -12356789.68822        22.000           1.656
 91  5 29 19 39 14.9980000  0  4G19G 2G11G 6
  21503151.022     4249887.247 6   3311592.39322        18.000           1.688
  20357041.865   -16534340.709 8 -12883888.21023        29.000           3.250
  23464400.037     -537740.755 6   -419018.12821        15.750           0.563
  21335817.311   -16184021.211 7 -12381580.20722        21.250           1.719
 91  5 29 19 39 29.9980000  0  4G19G 2G11G 6
  21507871.897     4274694.887 6   3330922.99422        16.500           1.656
  20354129.107   -16549660.565 8 -12895825.75923        30.000           3.188
  23470699.928     -504602.716 6   -393196.29221        15.250           0.531
  21329768.787   -16215807.914 7 -12406349.05222        21.250           1.719
 91  5 29 19 39 44.9980000  0  4G19G 2G11G 6
  21512602.068     4299565.423 6   3350302.59622        17.000           1.531
  20351225.865   -16564908.210 8 -12907707.04223        29.500           3.344
  23477027.592     -471358.231 6   -367291.51821        14.750           0.500
  21323727.279   -16247566.617 7 -12431096.08822        21.250           1.688
 91  5 29 19 39 59.9980000  0  4G19G 2G11G 6
  21517351.709     4324506.574 6   3369737.23322        16.750           1.563
  20348340.037   -16580076.140 8 -12919526.20123        30.500           3.438
  23483373.350     -438000.079 6   -341298.19421        14.250           0.563
  21317690.842   -16279289.783 7 -12455815.42322        22.000           1.625
 91  5 29 19 40 14.9980000  0  4G19G 2G11G 6
  21522106.475     4349515.599 6   3389224.75322        17.000           1.500
  20345469.459   -16595167.165 8 -12931285.43923        30.750           3.344
  23489744.272     -404531.184 6   -315218.56721        13.750           0.500
  21311658.928   -16310979.916 7 -12480509.02022        21.500           1.750
 91  5 29 19 40 29.9980000  0  4G19G 2G11G 6
  21526880.561     4374582.071 6   3408757.02922        17.000           1.531
  20342607.654   -16610191.477 8 -12942992.69723        29.500           3.250
  23496135.139     -370962.200 6   -289060.96821        13.750           0.563
  21305631.623   -16342647.059 7 -12505184.70522        21.500           1.656
 91  5 29 19 40 44.9980000  0  4G19G 2G11G 6
  21531660.311     4399709.282 6   3428336.64722        17.500           1.500
  20339763.459   -16625146.025 8 -12954645.58323        29.500           3.031
  23502543.576     -337290.221 6   -262823.13221        13.500           0.531
  21299611.053   -16374288.046 7 -12529840.00822        20.750           1.594
 91  5 29 19 40 59.9980000  0  4G19G 2G11G 6
  21536457.857     4424900.108 6   3447965.83121        15.500           1.438
  20336930.131   -16640027.815 8 -12966241.78223        29.250           3.000
  23508968.068     -303512.605 6   -236502.95821        13.250           0.750
  21293596.623   -16405899.815 7 -12554472.54622        21.500           1.719
 91  5 29 19 41 14.9980000  0  4G19G 2G11G 6
  21541260.678     4450159.457 6   3467648.40121        17.250           1.469
  20334113.365   -16654832.213 8 -12977777.67523        29.500           3.188
  23515418.725     -269624.899 6   -210097.00621        13.500           0.656
  21287585.162   -16437477.354 7 -12579078.41122        21.000           1.813
 91  5 29 19 41 29.9980000  0  4G19G 2G11G 6
  21546083.115     4475480.708 6   3487379.20621        15.750           1.406
  20331311.811   -16669565.738 8 -12989258.34223        29.500           3.219
  23521886.740     -235633.968 6   -183610.61221        13.750           0.719
  21281584.193   -16469027.074 7 -12603662.59522        21.250           1.781
 91  5 29 19 41 44.9980000  0  4G19G 2G11G 6
  21550909.475     4500863.964 6   3507158.32721        16.750           1.406
  20328520.701   -16684228.341 8 -13000683.74823        29.000           3.156
  23528374.826     -201540.137 6   -157044.03821        14.500           0.531
  21275585.045   -16500548.687 7 -12628224.88422        20.750           1.813
 91  5 29 19 41 59.9980000  0  4G19G 2G11G 6
  21555752.842     4526309.647 6   3526986.08822        15.750           1.500
  20325743.303   -16698819.637 8 -13012053.58623        29.250           3.156
  23534878.701     -167343.175 6   -130397.11221        14.250           0.625
  21269592.553   -16532041.521 7 -12652764.74422        21.250           1.813
 91  5 29 19 42 14.9980000  0  4G19G 2G11G 6
  21560605.350     4551817.700 6   3546862.45721        17.000           1.469
  20322979.490   -16713339.518 8 -13023367.78023        28.750           3.031
  23541407.678     -133043.428 6   -103670.06821        14.750           0.625
  21263605.772   -16563505.603 7 -12677282.19822        21.250           1.875
 91  5 29 19 42 29.9980000  0  4G19G 2G11G 6
  21565476.264     4577390.959 6   3566789.63421        16.500           1.469
  20320230.514   -16727785.460 8 -13034624.35223        29.500           3.094
  23547955.748      -98638.468 6    -76861.03521        14.500           0.656
  21257622.514   -16594937.940 7 -12701774.92422        21.000           1.781
 91  5 29 19 42 44.9980000  0  4G19G 2G11G 6
  21570351.201     4603028.758 6   3586767.10021        16.500           1.438
  20317495.607   -16742158.114 8 -13045823.82423        29.500           3.031
  23554522.811      -64129.165 6    -49970.72121        14.500           0.688
  21251648.545   -16626339.158 7 -12726243.39322        20.750           1.656
 91  5 29 19 42 59.9980000  0  4G19G 2G11G 6
  21575240.842     4628732.521 6   3606795.96522        15.750           1.500
  20314775.123   -16756456.247 8 -13056965.22023        30.000           2.969
  23561109.451      -29514.551 6    -22998.33521        14.000           0.625
  21245678.014   -16657707.619 7 -12750686.33622        21.000           1.750
 91  5 29 19 43 14.9980000  0  4G19G 2G11G 6
  21580146.529     4654501.146 6   3626875.37722        16.500           1.531
  20312070.107   -16770680.935 8 -13068049.39123        30.000           3.156
  23567715.381        5204.015 6      4055.03921        13.500           0.688
  21239714.865   -16689044.296 7 -12775104.51622        21.500           1.719
 91  5 29 19 43 29.9980000  0  4G19G 2G11G 6
  21585063.654     4680330.171 6   3647001.84522        16.000           1.594
  20309374.662   -16784836.711 8 -13079079.86623        29.500           3.063
  23574345.850       40021.538 6     31185.50421        13.250           0.625
  21233757.662   -16720353.486 7 -12799501.28322        22.000           1.656
 91  5 29 19 43 44.9980000  0  4G19G 2G11G 6
  21589990.873     4706221.117 6   3667176.56821        17.000           1.438
  20306695.357   -16798921.920 8 -13090055.35123        29.750           3.063
  23580985.248       74939.439 6     58394.19821        12.750           0.563
  21227803.662   -16751633.599 7 -12823875.38922        22.000           1.688
 91  5 29 19 43 59.9980000  0  4G19G 2G11G 6
  21594930.600     4732176.983 6   3687401.87622        15.500           1.531
  20304026.092   -16812933.562 8 -13100973.51623        29.000           3.188
  23587650.529      109960.393 6     85683.20821        13.500           0.625
  21221860.522   -16782881.176 7 -12848224.14022        22.500           1.750
 91  5 29 19 44 14.9980000  0  4G19G 2G11G 6
  21599878.232     4758200.538 6   3707679.93021        16.000           1.438
  20301374.764   -16826869.081 8 -13111832.36423        29.250           3.281
  23594335.436      145086.756 6    113054.36221        14.250           0.625
  21215919.545   -16814093.625 7 -12872545.52422        22.000           1.844
 91  5 29 19 44 29.9980000  0  4G19G 2G11G 6
  21604844.647     4784284.706 6   3728005.20321        15.750           1.375
  20298737.170   -16840735.564 8 -13122637.41423        29.000           3.188
  23601037.592      180311.284 6    140502.01121        15.000           0.563
  21209985.154   -16845277.730 7 -12896844.81222        21.500           1.906
 91  5 29 19 44 44.9980000  0  4G19G 2G11G 6
  21609816.553     4810426.229 6   3748375.19121        15.500           1.438
  20296112.834   -16854536.545 8 -13133391.42523        29.500           3.281
  23607760.170      215630.220 6    168023.21521        15.750           0.563
  21204055.920   -16876436.679 7 -12921124.49522        22.250           1.875
 91  5 29 19 44 59.9980000  0  4G19G 2G11G 6
  21614805.045     4836628.846 6   3768792.76422        14.750           1.531
  20293497.162   -16868268.130 8 -13144091.35723        29.250           3.188
  23614497.311      251046.932 6    195620.61721        15.250           0.563
  21198132.022   -16907566.553 7 -12945381.53322        22.250           1.813
 91  5 29 19 45 14.9980000  0  4G19G 2G11G 6
  21619801.568     4862899.264 6   3789263.17321        15.250           1.406
  20290900.537   -16881923.627 8 -13154732.00823        30.000           3.281
  23621259.693      286567.752 6    223299.13221        15.500           0.625
  21192213.889   -16938660.456 7 -12969610.53822        22.000           1.875
 91  5 29 19 45 29.9980000  0  4G19G 2G11G 6
  21624813.248     4889233.815 6   3809783.56721        15.000           1.375
  20288314.623   -16895506.768 8 -13165316.26923        29.750           3.219
  23628035.162      322188.735 6    251055.70021        14.500           0.563
  21186302.240   -16969722.027 7 -12993814.35522        21.750           1.813
 91  5 29 19 45 44.9980000  0  4G19G 2G11G 6
  21629835.342     4915621.136 6   3830345.07421        15.250           1.344
  20285742.717   -16909028.908 8 -13175853.00523        30.500           3.219
  23634834.928      357898.346 6    278881.32821        13.750           0.625
  21180399.123   -17000762.364 7 -13018001.61722        22.250           1.781
 91  5 29 19 45 59.9980000  0  4G19G 2G11G 6
  21634873.537     4942074.120 6   3850957.73821        14.500           1.375
  20283182.982   -16922477.310 8 -13186332.27823        30.000           3.156
  23641646.522      393709.008 6    306785.68921        13.250           0.625
  21174496.951   -17031768.576 7 -13042162.28722        22.250           1.813
 91  5 29 19 46 14.9980000  0  4G19G 2G11G 6
  21639915.342     4968586.655 6   3871616.81521        16.000           1.406
  20280638.162   -16935858.020 8 -13196758.80623        30.250           3.219
  23648481.686      429614.271 6    334763.76621        12.750           0.500
  21168602.272   -17062746.446 7 -13066300.87622        22.250           1.781
 91  5 29 19 46 29.9980000  0  4G19G 2G11G 6
  21644972.318     4995163.441 6   3892325.96221        15.000           1.375
  20278105.514   -16949166.320 8 -13207128.91123        31.000           3.125
  23655327.709      465618.599 6    362819.03721        12.250           0.594
  21162713.506   -17093691.116 7 -13090413.59822        22.250           1.813
 91  5 29 19 46 44.9980000  0  4G19G 2G11G 6
  21650042.811     5021801.857 6   3913083.11321        16.250           1.313
  20275585.287   -16962405.066 8 -13217444.82023        30.250           3.125
  23662203.139      501719.059 6    390949.20521        12.250           0.656
  21156831.615   -17124604.976 7 -13114502.30822        23.000           1.813
 91  5 29 19 46 59.9980000  0  4G19G 2G11G 6
  21655127.342     5048504.288 6   3933890.15621        15.250           1.344
  20273079.045   -16975571.966 8 -13227704.74123        30.750           3.188
  23669087.568      537917.588 6    419155.79821        12.500           0.438
  21150954.865   -17155485.598 7 -13138565.12422        23.000           1.906
 91  5 29 19 47 14.9980000  0  4G19G 2G11G 6
  21660214.522     5075267.259 6   3954744.36621        15.750           1.344
  20270587.561   -16988670.446 8 -13237911.35023        31.750           3.156
  23675997.303      574210.534 6    447435.94921        12.250           0.438
  21145081.443   -17186336.287 7 -13162604.62322        22.250           1.875
 91  5 29 19 47 29.9980000  0  4G19G 2G11G 6
  21665321.990     5102094.281 6   3975648.48921        16.000           1.344
  20268107.873   -17001696.946 8 -13248061.87023        31.000           3.344
  23682918.147      610600.978 6    475792.10421        12.750           0.406
  21139218.850   -17217153.365 7 -13186617.92522        22.000           1.906
 91  5 29 19 47 44.9980000  0  4G19G 2G11G 6
  21670438.639     5128984.688 6   3996602.00421        16.750           1.313
  20265641.107   -17014652.218 8 -13258156.87623        30.250           3.281
  23689865.865      647087.904 6    504223.45721        13.000           0.438
  21133359.693   -17247937.340 7 -13210605.42722        21.750           1.938
 91  5 29 19 47 59.9980000  0  4G19G 2G11G 6
  21675569.225     5155934.370 6   4017601.71321        15.750           1.344
  20263190.623   -17027540.495 8 -13268199.68623        31.000           3.031
  23696820.678      683666.899 6    532726.50521        12.250           0.406
  21127508.318   -17278692.226 7 -13234570.26022        22.000           1.969
 91  5 29 19 48 14.9980000  0  4G19G 2G11G 6
  21680706.951     5182946.089 6   4038649.75221        16.500           1.406
  20260750.990   -17040358.929 8 -13278188.08223        30.750           3.063
  23703801.467      720340.381 6    561303.21321        12.500           0.531
  21121661.967   -17309414.948 7 -13258510.03222        21.500           1.938
 91  5 29 19 48 29.9980000  0  4G19G 2G11G 6
  21685859.514     5210022.987 6   4059748.58421        16.000           1.375
  20258325.662   -17053104.390 8 -13288119.61523        29.500           3.156
  23710801.029      757111.187 6    589955.74321        12.500           0.469
  21115821.740   -17340102.317 7 -13282422.26122        22.750           2.063
 91  5 29 19 48 44.9980000  0  4G19G 2G11G 6
  21691023.467     5237160.129 6   4080894.37321        16.500           1.344
  20255912.482   -17065782.023 8 -13297998.28823        28.750           3.313
  23717814.498      793974.107 6    618680.03821        12.500           0.531
  21109990.342   -17370758.997 7 -13306310.58222        22.750           2.000
 91  5 29 19 48 59.9980000  0  4G19G 2G11G 6
  21696199.350     5264358.979 6   4102088.22521        16.500           1.344
  20253512.264   -17078390.266 8 -13307822.89123        29.000           3.313
  23724846.990      830930.334 6    647477.04521        12.000           0.531
  21104164.428   -17401383.369 7 -13330173.71322        23.250           1.969
 91  5 29 19 49 14.9980000  0  4G19G 2G11G 6
  21701384.975     5291622.326 6   4123332.35121        16.250           1.250
  20251128.232   -17090926.270 8 -13317591.20123        29.750           3.063
  23731891.764      867982.215 5    676348.58921        11.500           0.625
  21098340.717   -17431972.502 7 -13354009.39522        23.000           1.938
 91  5 29 19 49 29.9980000  0  4G19G 2G11G 6
  21706591.818     5318952.878 6   4144628.84421        15.000           1.281
  20248756.287   -17103387.646 8 -13327301.36523        29.500           3.125
  23738966.686      905131.945 6    705296.37821        12.250           0.469
  21092524.678   -17462523.664 7 -13377815.48822        22.750           1.938
 91  5 29 19 49 44.9980000  0  4G19G 2G11G 6
  21711799.326     5346344.067 6   4165972.57521        15.750           1.313
  20246400.232   -17115781.071 8 -13336958.58523        30.250           3.156
  23746050.967      942372.728 6    734315.13021        12.250           0.625
  21086719.678   -17493043.163 7 -13401596.90822        22.500           2.000
 91  5 29 19 49 59.9980000  0  4G19G 2G11G 6
  21717025.295     5373800.312 6   4187367.00821        15.750           1.281
  20244053.053   -17128101.973 8 -13346559.29223        29.750           3.250
  23753157.647      979708.797 6    763408.12521        12.750           0.563
  21080919.303   -17523526.234 7 -13425349.93822        22.250           1.875
 91  5 29 19 50 14.9980000  0  4G19G 2G11G 6
  21722261.592     5401317.477 6   4208808.92121        15.500           1.250
  20241721.912   -17140354.591 8 -13356106.78123        29.500           3.219
  23760284.756     1017135.554 6    792571.80121        13.000           0.469
  21075125.295   -17553977.070 7 -13449077.84822        22.750           1.938
 91  5 29 19 50 29.9980000  0  4G19G 2G11G 6
  21727514.209     5428899.674 6   4230301.49121        14.750           1.250
  20239403.764   -17152534.850 8 -13365597.88523        29.250           3.344
  23767425.936     1054656.801 6    821809.09321        13.500           0.531
  21069335.365   -17584391.234 7 -13472777.19322        22.250           1.875
 91  5 29 19 50 44.9980000  0  4G19G 2G11G 6
  21732769.920     5456545.144 6   4251843.36521        15.500           1.281
  20237100.404   -17164644.395 8 -13375033.89123        29.500           3.250
  23774579.490     1092270.511 6    851118.43221        13.500           0.594
  21063555.061   -17614770.370 7 -13496449.23322        22.250           1.875
 91  5 29 19 50 59.9980000  0  4G19G 2G11G 6
  21738046.592     5484249.861 6   4273431.40821        15.000           1.219
  20234808.568   -17176687.205 8 -13384417.90423        29.500           3.063
  23781751.115     1129972.597 6    880496.63121        12.750           0.500
  21057778.029   -17645118.052 7 -13520096.77022        22.000           1.844
 91  5 29 19 51 14.9980000  0  4G19G 2G11G 6
  21743326.131     5512017.246 6   4295068.30121        15.500           1.344
  20232529.592   -17188660.040 8 -13393747.38723        29.000           3.125
  23788944.998     1167765.919 6    909945.91721        13.250           0.500
  21052011.975   -17675430.811 7 -13543717.09322        22.500           1.875
 91  5 29 19 51 29.9980000  0  4G19G 2G11G 6
  21748627.607     5539848.084 6   4316754.62521        14.500           1.250
  20230265.740   -17200562.126 8 -13403021.73823        29.250           3.063
  23796154.045     1205650.876 6    939466.60521        13.250           0.625
  21046249.201   -17705707.834 7 -13567309.57122        22.500           1.844
 91  5 29 19 51 44.9980000  0  4G19G 2G11G 6
  21753928.936     5567737.170 6   4338486.33921        15.250           1.313
  20228012.561   -17212398.960 8 -13412245.24723        29.250           3.125
  23803377.115     1243621.927 6    969054.36621        12.750           0.500
  21040493.951   -17735954.189 7 -13590878.15022        22.750           1.969
 91  5 29 19 51 59.9980000  0  4G19G 2G11G 6
  21759250.592     5595692.113 6   4360269.37621        14.500           1.281
  20225773.842   -17224162.929 8 -13421411.97223        29.250           3.250
  23810620.967     1281686.346 6    998714.90821        12.250           0.625
  21034746.529   -17766162.171 7 -13614416.83022        23.000           1.938
 91  5 29 19 52 14.9980000  0  4G19G 2G11G 6
  21764581.381     5623709.006 6   4382100.68221        15.750           1.281
  20223549.123   -17235857.861 8 -13430524.90823        29.750           3.156
  23817884.889     1319839.874 6   1028444.88221        12.250           0.594
  21029002.131   -17796335.347 7 -13637928.38622        22.250           1.844
 91  5 29 19 52 29.9980000  0  4G19G 2G11G 6
  21769926.264     5651789.206 6   4403981.30621        14.500           1.313
  20221335.615   -17247482.387 8 -13439582.98423        30.000           3.125
  23825160.912     1358083.640 5   1058245.18021        11.500           0.500
  21023268.404   -17826472.278 7 -13661411.71122        22.500           1.938
 91  5 29 19 52 44.9980000  0  4G19G 2G11G 6
  21775280.045     5679934.600 6   4425912.74021        15.500           1.250
  20219138.092   -17259034.700 8 -13448584.78723        29.750           3.219
  23832457.482     1396419.011 6   1088116.84721        12.000           0.594
  21017542.787   -17856570.793 7 -13684865.08422        23.000           2.063
 91  5 29 19 52 59.9980000  0  4G19G 2G11G 6
  21780650.170     5708146.232 6   4447895.78921        15.000           1.281
  20216953.967   -17270513.908 8 -13457529.62723        29.750           3.250
  23839771.826     1434846.664 6   1118060.43221        12.500           0.531
  21011822.178   -17886629.835 7 -13708287.71122        23.000           2.000
 91  5 29 19 53 14.9980000  0  4G19G 2G11G 6
  21786025.631     5736419.142 6   4469926.58421        15.000           1.188
  20214781.701   -17281924.927 8 -13466421.32923        30.000           3.250
  23847103.178     1473361.563 6   1148071.99321        13.250           0.625
  21006107.576   -17916654.059 7 -13731683.21722        22.250           2.031
 91  5 29 19 53 29.9980000  0  4G19G 2G11G 6
  21791429.545     5764762.661 6   4492012.40121        14.000           1.281
  20212624.951   -17293258.379 8 -13475252.58823        30.000           3.250
  23854448.740     1511972.591 6   1178158.46121        12.000           0.531
  21000403.537   -17946633.842 7 -13755044.06022        22.500           2.063
 91  5 29 19 53 44.9980000  0  4G19G 2G11G 6
  21796830.381     5793170.563 6   4514148.38321        15.750           1.250
  20210481.959   -17304520.669 8 -13484028.40223        30.250           3.219
  23861813.647     1550673.279 6   1208314.77021        12.250           0.594
  20994702.740   -17976575.295 7 -13778375.05522        22.000           2.094
 91  5 29 19 53 59.9980000  0  4G19G 2G11G 6
  21802250.584     5821636.953 6   4536329.94521        14.500           1.219
  20208352.482   -17315717.592 8 -13492753.27623        31.000           3.156
  23869189.990     1589457.449 5   1238536.15621        11.750           0.563
  20989013.334   -18006484.034 7 -13801680.56422        22.500           2.000
 91  5 29 19 54 14.9980000  0  4G19G 2G11G 6
  21807675.092     5850162.974 6   4558557.96521        16.250           1.219
  20206233.936   -17326847.920 8 -13501426.25523        30.500           3.281
  23876586.740     1628325.818 5   1268823.14821        11.000           0.438
  20983330.498   -18036358.764 7 -13824959.56322        22.250           2.094
 91  5 29 19 54 29.9980000  0  4G19G 2G11G 6
  21813117.904     5878753.130 6   4580835.96221        15.250           1.219
  20204128.397   -17337907.257 8 -13510043.91823        30.250           3.375
  23884005.857     1667282.698 6   1299179.10021        12.000           0.406
  20977653.529   -18066194.890 7 -13848208.47522        22.500           2.188
 91  5 29 19 54 44.9980000  0  4G19G 2G11G 6
  21818565.537     5907403.961 6   4603161.24821        15.000           1.281
  20202037.529   -17348898.956 8 -13518608.87723        30.250           3.469
  23891426.740     1706324.201 5   1329600.99221        11.250           0.438
  20971980.412   -18095995.637 7 -13871429.83322        22.750           2.094
 91  5 29 19 54 59.9980000  0  4G19G 2G11G 6
  21824033.467     5936122.098 6   4625538.96621        14.750           1.188
  20199960.982   -17359816.803 8 -13527116.28624        31.000           3.500
  23898880.482     1745456.563 5   1360093.72221        11.250           0.313
  20966317.389   -18125754.092 7 -13894618.23322        22.750           2.125
 91  5 29 19 55 14.9980000  0  4G19G 2G11G 6
  21829507.897     5964900.494 6   4647963.63021        15.750           1.344
  20197894.943   -17370667.845 8 -13535571.64823        30.000           3.469
  23906342.662     1784672.407 5   1390651.49321        10.750           0.313
  20960663.326   -18155477.269 7 -13917779.14622        23.000           2.094
 91  5 29 19 55 29.9980000  0  4G19G 2G11G 6
  21834998.881     5993739.320 6   4670435.39421        15.000           1.250
  20195842.467   -17381451.869 8 -13543974.77924        29.500           3.500
  23913818.936     1823971.590 5   1421274.16121        10.250           0.438
  20955012.326   -18185164.686 7 -13940912.19122        23.000           2.031
 91  5 29 19 55 44.9980000  0  4G19G 2G11G 6
  21840497.818     6022641.592 6   4692956.59421        16.250           1.188
  20193805.936   -17392165.942 8 -13552323.40623        30.250           3.469
  23921310.076     1863356.722 5   1451963.83221         9.500           0.469
  20949370.014   -18214813.251 7 -13964014.96022        23.250           2.156
 91  5 29 19 55 59.9980000  0  4G19G 2G11G 6
  21846009.615     6051609.631 6   4715529.04021        15.500           1.219
  20191778.357   -17402807.794 8 -13560615.75524        30.000           3.500
  23928823.990     1902829.806 5   1482722.02821         9.250           0.344
  20943737.600   -18244420.457 7 -13987085.49822        23.750           2.094
 91  5 29 19 56 14.9980000  0  4G19G 2G11G 6
  21851533.990     6080641.164 6   4738150.97421        15.750           1.094
  20189766.443   -17413379.647 8 -13568853.56523        29.750           3.344
  23936352.959     1942388.306 5   1513546.76621         9.500           0.406
  20938110.537   -18273988.263 7 -14010125.34222        23.750           2.125
 91  5 29 19 56 29.9980000  0  4G19G 2G11G 6
  21857072.279     6109737.701 6   4760823.56021        15.250           1.188
  20187770.272   -17423879.957 8 -13577035.62423        29.750           3.438
  23943891.600     1982033.441 5   1544439.02721         9.750           0.469
  20932491.873   -18303515.023 7 -14033133.20122        24.250           2.219
 91  5 29 19 56 44.9980000  0  4G19G 2G11G 6
  21862619.787     6138896.775 6   4783544.87021        15.250           1.156
  20185782.990   -17434311.319 8 -13585163.95823        29.250           3.375
  23951456.576     2021762.272 5   1575396.50721        10.750           0.500
  20926880.818   -18333003.114 7 -14056110.92622        24.250           2.031
 91  5 29 19 56 59.9980000  0  4G19G 2G11G 6
  21868183.272     6168115.932 6   4806312.99721        14.500           1.281
  20183812.490   -17444676.277 8 -13593240.53623        29.750           3.438
  23959033.654     2061572.068 5   1606417.07221        11.250           0.438
  20921274.686   -18362454.654 7 -14079060.17722        23.750           2.063
 91  5 29 19 57 14.9980000  0  4G19G 2G11G 6
  21873751.076     6197393.962 6   4829126.99821        15.000           1.094
  20181852.334   -17454975.868 8 -13601266.19623        29.250           3.406
  23966623.740     2101461.480 6   1637499.67821        12.250           0.438
  20915678.654   -18391870.562 7 -14101981.66122        25.000           2.125
 91  5 29 19 57 29.9980000  0  4G19G 2G11G 6
  21879335.381     6226736.313 6   4851991.11721        14.250           1.125
  20179905.693   -17465204.773 8 -13609236.77323        30.000           3.375
  23974233.115     2141435.478 6   1668648.21921        12.750           0.375
  20910090.170   -18421245.288 7 -14124871.04822        24.250           2.125
 91  5 29 19 57 44.9980000  0  4G19G 2G11G 6
  21884929.428     6256141.639 6   4874904.30521        14.750           1.063
  20177972.686   -17475364.419 8 -13617153.37623        29.500           3.375
  23981853.662     2181492.382 6   1699861.32021        12.250           0.531
  20904505.498   -18450580.024 7 -14147729.27522        24.500           2.094
 91  5 29 19 57 59.9980000  0  4G19G 2G11G 6
  21890537.068     6285606.108 6   4897863.58121        14.250           1.125
  20176050.561   -17485458.587 8 -13625018.96223        29.250           3.281
  23989490.240     2221628.101 6   1731135.87021        12.500           0.438
  20898931.975   -18479878.251 7 -14170559.06522        24.500           2.094
 91  5 29 19 58 14.9980000  0  4G19G 2G11G 6
  21896156.014     6315133.505 6   4920871.90021        14.750           1.156
  20174144.764   -17495483.594 8 -13632830.65123        29.500           3.406
  23997144.584     2261846.148 6   1762474.56121        12.750           0.500
  20893362.920   -18509136.044 7 -14193357.34022        23.750           2.344
 91  5 29 19 58 29.9980000  0  4G19G 2G11G 6
  21901789.209     6344724.502 6   4943929.76521        13.750           1.188
  20172249.061   -17505438.789 8 -13640587.94923        29.500           3.406
  24004813.889     2302146.853 6   1793877.66621        12.750           0.438
  20887802.373   -18538352.514 7 -14216123.41222        23.500           2.250
 91  5 29 19 58 44.9980000  0  4G19G 2G11G 6
  21907431.584     6374382.123 6   4967039.55021        15.250           1.094
  20170367.272   -17515320.990 8 -13648288.36923        28.750           3.406
  24012497.951     2342532.912 5   1825347.26321        11.750           0.500
  20882250.928   -18567524.548 7 -14238854.85622        24.000           2.281
 91  5 29 19 58 59.9980000  0  3G19G 2G 6
  21913088.975     6404098.513 6   4990195.12421        14.250           1.063
  20168499.881   -17525138.401 8 -13655938.29924        29.500           3.563
  20876708.412   -18596659.733 7 -14261557.59822        24.000           2.344
 91  5 29 19 59 14.9980000  0  3G19G 2G 6
  21918752.920     6433880.448 6   5013401.76521        14.750           1.156
  20166647.998   -17534884.271 8 -13663532.48224        30.000           3.625
  20871174.420   -18625751.237 7 -14284226.29722        25.000           2.313
 91  5 29 19 59 29.9980000  0  3G19G 2G 6
  21924436.404     6463725.530 6   5036657.61021        13.500           1.000
  20164805.514   -17544560.738 8 -13671072.58424        30.500           3.625
  20865643.428   -18654801.037 7 -14306862.50222        24.000           2.406
 91  5 29 19 59 44.9980000  0  3G19G 2G 6
  21930124.490     6493632.026 6   5059961.31521        14.750           1.000
  20162975.600   -17554169.565 8 -13678559.98424        30.250           3.625
  20860123.186   -18683810.712 7 -14329467.43222        23.750           2.313
 91  5 29 19 59 59.9980000  0  3G19G 2G 6
  21935827.662     6523601.083 6   5083313.77721        14.000           1.125
  20161160.873   -17563709.575 8 -13685993.75823        30.250           3.469
  20854608.725   -18712778.822 7 -14352039.97322        24.000           2.313
 91  5 29 20  0 14.9980000  0  3G19G 2G 6
  21941540.404     6553632.482 6   5106714.80521        14.250           1.000
  20159356.959   -17573181.463 8 -13693374.44824        29.750           3.500
  20849105.568   -18741705.624 7 -14374580.33522        23.750           2.375
 91  5 29 20  0 29.9980000  0  3G19G 2G 6
  21947269.404     6583723.074 6   5130161.98021        14.000           1.000
  20157568.678   -17582588.297 8 -13700704.44424        30.250           3.531
  20843608.561   -18770593.942 7 -14397090.70322        23.750           2.313
 91  5 29 20  0 44.9980000  0  3G19G 2G 6
  21953005.490     6613878.531 6   5153659.68721        14.000           0.969
  20155790.459   -17591924.293 8 -13707979.24623        30.000           3.406
  20838119.225   -18799437.807 7 -14419566.43722        23.500           2.313
 91  5 29 20  0 59.9980000  0  3G19G 2G 6
  21958757.982     6644099.062 6   5177208.09421        14.500           1.031
  20154027.936   -17601189.308 8 -13715198.74523        30.250           3.438
  20832641.326   -18828236.923 7 -14442007.30322        23.500           2.281
 91  5 29 20  1 14.9980000  0  3G19G 2G 6
  21964516.592     6674379.728 6   5200803.37421        13.750           1.063
  20152278.240   -17610388.062 8 -13722366.60223        30.250           3.406
  20827167.654   -18856995.836 7 -14464416.84222        24.000           2.344
 91  5 29 20  1 29.9980000  0  3G19G 2G 6
  21970290.639     6704720.725 6   5224445.64521        14.250           1.031
  20150539.982   -17619520.656 8 -13729482.90823        30.250           3.438
  20821701.272   -18885714.176 7 -14486794.75922        23.500           2.281
 91  5 29 20  1 44.9980000  0  3G19G 2G 6
  21976077.240     6735121.792 6   5248134.73321        14.000           1.188
  20148813.889   -17628587.290 8 -13736547.81524        30.000           3.500
  20816247.186   -18914392.159 7 -14509141.23522        24.250           2.188
 91  5 29 20  1 59.9980000  0  3G19G 2G 6
  21981878.654     6765586.952 6   5271873.76521        13.500           1.063
  20147102.943   -17637583.945 8 -13743558.19523        30.250           3.375
  20810798.959   -18943025.422 7 -14531452.86822        24.250           2.250
 91  5 29 20  2 14.9980000  0  3G19G 2G 6
  21987685.373     6796116.105 6   5295662.66521        14.000           1.063
  20145403.857   -17646510.827 8 -13750514.20424        30.000           3.531
  20805355.725   -18971613.875 7 -14553729.57822        23.750           2.313
 91  5 29 20  2 29.9980000  0  3G19G 2G 6
  21993507.186     6826704.996 6   5319498.09821        14.000           1.156
  20143718.287   -17655372.306 8 -13757419.24623        29.750           3.406
  20799925.139   -19000161.506 7 -14575974.47722        24.250           2.250
 91  5 29 20  2 44.9980000  0  3G19G 2G 6
  21999336.857     6857357.198 6   5343382.87621        14.000           1.156
  20142043.967   -17664164.757 8 -13764270.50423        30.000           3.344
  20794498.701   -19028664.541 7 -14598184.62822        23.750           2.219
 91  5 29 20  2 59.9980000  0  3G19G 2G 6
  22005188.654     6888075.068 6   5367318.83021        13.250           1.188
  20140385.772   -17672885.727 8 -13771066.06323        30.250           3.344
  20789085.647   -19057120.374 7 -14620357.99622        24.000           2.313
 91  5 29 20  3 14.9980000  0  3G19G 2G 6
  22011043.092     6918855.065 6   5391303.18321        14.000           1.000
  20138737.397   -17681538.835 8 -13777808.74823        29.750           3.438
  20783680.482   -19085532.298 7 -14642497.15622        24.750           2.406
 91  5 29 20  3 29.9980000  0  3G19G 2G 6
  22016911.232     6949697.911 6   5415336.51921        13.500           1.031
  20137105.131   -17690123.286 8 -13784497.92723        30.000           3.375
  20778280.857   -19113899.395 7 -14664601.38422        24.500           2.438
 91  5 29 20  3 44.9980000  0  3G19G 2G 6
  22022790.311     6980602.340 6   5439417.84221        14.000           1.125
  20135483.498   -17698640.666 8 -13791134.84523        29.250           3.375
  20772891.514   -19142222.904 7 -14686671.63623        24.750           2.500
 91  5 29 20  3 59.9980000  0  3G19G 2G 6
  22028689.428     7011568.369 6   5463547.15721        13.250           1.156
  20133875.998   -17707090.877 8 -13797719.42123        30.000           3.469
  20767507.436   -19170502.450 7 -14708707.63822        24.500           2.406
 91  5 29 20  4 14.9980000  0  3G19G 2G 6
  22034589.982     7042596.068 6   5487724.52321        14.250           1.063
  20132281.482   -17715473.844 8 -13804251.60023        29.500           3.344
  20762135.701   -19198737.702 7 -14730709.12422        24.750           2.344
 91  5 29 20  4 29.9980000  0  3G19G 2G 6
  22040504.732     7073686.831 6   5511951.04521        13.250           1.094
  20130699.295   -17723788.260 8 -13810730.36623        30.000           3.313
  20756772.326   -19226926.973 7 -14752674.78122        25.000           2.406
 91  5 29 20  4 44.9980000  0  3G19G 2G 6
  22046433.068     7104840.934 6   5536226.90921        14.250           0.906
  20129129.904   -17732033.608 8 -13817155.31023        30.250           3.188
  20751416.787   -19255069.698 7 -14774604.17322        24.500           2.250
 91  5 29 20  4 59.9980000  0  3G19G 2G 6
  22052376.334     7136056.642 6   5560550.78221        13.500           1.031
  20127572.928   -17740211.634 8 -13823527.80723        30.250           3.188
  20746069.951   -19283167.360 7 -14796498.45222        24.250           2.375
 91  5 29 20  5 14.9980000  0  3G19G 2G 6
  22058325.568     7167334.564 6   5584923.12421        14.250           1.031
  20126028.748   -17748321.837 8 -13829847.44623        29.500           3.281
  20740731.764   -19311219.235 7 -14818357.05322        24.250           2.406
 91  5 29 20  5 29.9980000  0  3G19G 2G 6
  22064291.350     7198671.891 6   5609341.76021        14.000           1.063
  20124498.170   -17756367.171 8 -13836116.53323        29.500           3.219
  20735401.990   -19339227.885 7 -14840181.96422        24.500           2.469
 91  5 29 20  5 44.9980000  0  3G19G 2G 6
  22070264.959     7230073.603 6   5633810.56621        13.750           1.031
  20122981.811   -17764342.433 8 -13842331.02523        30.000           3.156
  20730081.123   -19367188.194 7 -14861969.21322        24.500           2.438
 91  5 29 20  5 59.9980000  0  3G19G 2G 6
  22076255.709     7261537.741 6   5658328.02321        12.000           1.000
  20121477.037   -17772249.690 8 -13848492.52223        30.000           3.281
  20724771.217   -19395101.822 7 -14883720.08323        25.250           2.563
 91  5 29 20  6 14.9980000  0  3G19G 2G 6
  22082253.264     7293065.481 6   5682895.02821        13.250           0.906
  20119984.990   -17780087.870 8 -13854600.19723        30.000           3.250
  20719466.779   -19422967.295 7 -14905433.43322        24.500           2.469
 91  5 29 20  6 29.9980000  0  3G19G 2G 6
  22088265.967     7324651.426 6   5707507.40221        12.500           1.000
  20118506.459   -17787862.488 8 -13860658.34023        30.250           3.250
  20714173.529   -19450789.938 7 -14927113.40622        24.500           2.438
 91  5 29 20  6 44.9980000  0  3G19G 2G 6
  22094284.397     7356299.880 6   5732168.47821        13.750           1.031
  20117038.686   -17795569.230 8 -13866663.59623        30.250           3.156
  20708887.068   -19478565.192 7 -14948756.45322        24.500           2.469
 91  5 29 20  6 59.9980000  0  3G19G 2G 6
  22100321.717     7388007.137 6   5756875.36921        12.750           0.906
  20115584.412   -17803211.857 8 -13872618.89223        30.250           3.156
  20703609.084   -19506296.472 7 -14970365.23723        24.500           2.563
 91  5 29 20  7 14.9980000  0  3G19G 2G 6
  22106364.193     7419773.020 6   5781627.94021        13.500           0.969
  20114142.482   -17810790.468 8 -13878524.29923        29.750           3.188
  20698341.475   -19533983.766 7 -14991939.74122        24.750           2.469
 91  5 29 20  7 29.9980000  0  3G19G 2G 6
  22112422.592     7451598.217 6   5806426.73821        13.000           1.000
  20112712.787   -17818304.310 8 -13884379.24023        29.750           3.156
  20693080.022   -19561625.970 7 -15013479.11923        24.750           2.594
 91  5 29 20  7 44.9980000  0  3G19G 2G 6
  22118489.326     7483485.921 6   5831274.23221        13.750           0.969
  20111297.443   -17825750.114 8 -13890181.16423        30.000           3.188
  20687828.740   -19589219.809 7 -15034980.80522        24.750           2.438
 91  5 29 20  7 59.9980000  0  3G19G 2G 6
  22124566.201     7515433.050 6   5856168.05521        12.750           0.906
  20109892.193   -17833131.073 8 -13895932.56023        30.250           3.188
  20682587.326   -19616767.966 7 -15056446.89922        25.250           2.375
 91  5 29 20  8 14.9980000  0  3G19G 2G 6
  22130660.607     7547449.166 6   5881115.60521        14.000           0.969
  20108498.436   -17840437.619 8 -13901625.97123        29.750           3.219
  20677355.443   -19644260.747 7 -15077869.84423        25.000           2.531
 91  5 29 20  8 29.9980000  0  3G19G 2G 6
  22136764.193     7579524.146 6   5906109.04321        12.750           1.063
  20107123.959   -17847679.976 8 -13907269.36423        30.250           3.125
  20672132.834   -19671708.041 7 -15099257.33723        25.000           2.531
 91  5 29 20  8 44.9980000  0  3G19G 2G 6
  22142880.600     7611657.487 6   5931147.93721        13.500           1.031
  20105757.279   -17854858.813 8 -13912863.26523        30.500           3.250
  20666918.881   -19699110.081 7 -15120609.57423        24.500           2.688
 91  5 29 20  8 59.9980000  0  3G19G 2G 6
  22149008.561     7643850.640 6   5956233.45221        13.000           0.875
  20104403.529   -17861972.536 8 -13918406.42523        31.250           3.156
  20661713.740   -19726465.098 7 -15141925.16323        24.250           2.656
 91  5 29 20  9 14.9980000  0  3G19G 2G 6
  22155144.561     7676107.031 6   5981368.23921        13.250           1.031
  20103062.193   -17869017.774 8 -13923896.22023        30.500           3.344
  20656515.553   -19753769.541 7 -15163201.34723        24.250           2.500
 91  5 29 20  9 29.9980000  0  3G19G 2G 6
  22161293.467     7708423.733 6   6006550.02421        13.000           0.938
  20101735.318   -17875997.378 8 -13929334.87323        31.000           3.344
  20651329.225   -19781026.019 7 -15184440.15922        24.000           2.469
 91  5 29 20  9 44.9980000  0  3G19G 2G 6
  22167457.420     7740805.712 6   6031782.67021        13.000           0.906
  20100421.443   -17882906.347 8 -13934718.48723        30.750           3.250
  20646152.709   -19808229.369 7 -15205637.56323        24.750           2.563
 91  5 29 20  9 59.9980000  0  3G19G 2G 6
  22173626.459     7773249.280 6   6057063.31421        12.500           0.906
  20099117.506   -17889748.518 8 -13940050.05523        30.750           3.344
  20640985.670   -19835383.119 7 -15226796.32423        24.500           2.688
 91  5 29 20 10 14.9980000  0  3G19G 2G 6
  22179815.389     7805750.313 6   6082388.73221        13.000           0.906
  20097825.389   -17896527.930 8 -13945332.71123        29.750           3.375
  20635828.623   -19862491.130 7 -15247919.44123        24.750           2.594
 91  5 29 20 10 29.9980000  0  3G19G 2G 6
  22186013.670     7838311.206 6   6107760.79521        13.250           0.875
  20096549.404   -17903242.507 8 -13950564.84923        30.000           3.344
  20630679.623   -19889550.844 7 -15269004.92623        24.750           2.625
 91  5 29 20 10 44.9980000  0  4G15G19G 2G 6
  23686903.209          -0.98015                         9.250
  22192216.779     7870929.907 6   6133177.90021        13.000           0.906
  20095285.076   -17909893.945 8 -13955747.78923        31.250           3.406
  20625539.772   -19916563.835 7 -15290054.00423        25.000           2.688
 91  5 29 20 10 59.9980000  0  4G15G19G 2G 6
  23681155.303      -30160.019 5                         8.750
  22198437.576     7903605.996 6   6158639.73121        12.250           0.875
  20094030.514   -17916482.792 8 -13960881.95723        30.750           3.344
  20620407.389   -19943530.216 7 -15311066.76223        25.000           2.656
 91  5 29 20 11 14.9980000  0  4G15G19G 2G 6
  23675436.576      -60223.977 5        -0.11731         8.750           0.406
  22204665.607     7936345.814 6   6184151.22721        13.000           0.875
  20092788.686   -17923002.712 8 -13965962.41623        30.750           3.344
  20615286.076   -19970443.600 7 -15332038.22923        24.750           2.688
 91  5 29 20 11 29.9980000  0  4G15G19G 2G 6
  23669736.170      -90190.607 5    -23350.72621         9.500           0.406
  22210909.850     7969151.340 6   6209713.90521        12.750           0.750
  20091561.068   -17929451.775 8 -13970987.66123        31.250           3.250
  20610174.217   -19997301.603 7 -15352966.53123        24.000           2.625
 91  5 29 20 11 44.9980000  0  4G15G19G 2G 6
  23664052.748     -120066.431 5    -46630.55421         9.750           0.406
  22217164.561     8002015.572 6   6235322.33021        13.000           0.844
  20090347.897   -17935836.930 8 -13975963.10623        31.500           3.281
  20605073.826   -20024110.996 7 -15373856.96223        23.750           2.625
 91  5 29 20 11 59.9980000  0  4G15G19G 2G 6
  23658375.498     -149854.540 5    -69842.03721         8.750           0.375
  22223431.022     8034935.060 6   6260973.82521        12.000           0.781
  20089143.857   -17942161.589 8 -13980891.41223        31.250           3.438
  20599980.123   -20050875.021 7 -15394712.04223        24.000           2.563
 91  5 29 20 12 14.9980000  0  4G15G19G 2G 6
  23652725.045     -179549.486 5    -92980.93821         8.500           0.438
  22229700.795     8067914.726 6   6286672.20521        12.500           0.875
  20087952.240   -17948420.872 8 -13985768.78023        31.250           3.375
  20594897.350   -20077588.436 7 -15415527.68123        24.000           2.531
 91  5 29 20 12 29.9980000  0  4G15G19G 2G 6
  23647096.865     -209149.366 5   -116045.75521         9.250           0.344
  22235991.193     8100956.027 6   6312418.61021        13.250           0.875
  20086773.342   -17954613.229 8 -13990593.99323        31.000           3.438
  20589822.123   -20104249.457 7 -15436302.49723        24.250           2.625
 91  5 29 20 12 44.9980000  0  4G15G19G 2G 6
  23641477.506     -238658.017 5   -139039.47221         9.000           0.406
  22242285.732     8134055.033 6   6338209.98721        12.500           0.844
  20085607.998   -17960742.778 8 -13995370.26623        31.750           3.438
  20584757.482   -20130862.014 7 -15457039.55323        24.000           2.500
 91  5 29 20 12 59.9980000  0  4G15G19G 2G 6
  23635885.459     -268069.222 5   -161957.28021         9.750           0.469
  22248599.647     8167217.449 6   6364050.75721        12.500           0.813
  20084453.389   -17966803.887 8 -14000093.21023        31.750           3.438
  20579706.709   -20157420.067 7 -15477734.13023        24.000           2.500
 91  5 29 20 13 14.9980000  0  4G15G19G 2G 6
  23630307.529     -297389.322 5   -184804.07621        10.000           0.469
  22254920.678     8200436.376 6   6389935.56821        12.750           0.844
  20083311.904   -17972803.422 8 -14004768.17623        31.500           3.438
  20574659.584   -20183930.282 7 -15498391.44022        23.500           2.406
 91  5 29 20 13 29.9980000  0  5G15G19G 2G13G 6
  23624747.553     -326610.695 5   -207573.93121        10.250           0.344
  22261254.584     8233718.986 6   6415869.99621        12.750           0.719
  20082185.092   -17978734.016 8 -14009389.41524        31.750           3.563
  23500575.928          -0.22114                         6.250
  20569624.334   -20210385.194 7 -15519005.65323        23.500           2.500
 91  5 29 20 13 44.9980000  0  5G15G19G 2G13G 6
  23619209.756     -355731.968 6   -230265.80521        12.000           0.438
  22267598.631     8267066.354 6   6441854.89121        12.250           0.813
  20081068.647   -17984594.669 8 -14013956.16124        31.250           3.625
  23488230.311      -64905.178 4                         6.250
  20564601.350   -20236783.310 7 -15539575.61222        23.750           2.469
 91  5 29 20 13 59.9980000  0  5G15G19G 2G13G 6
  23613682.264     -384758.685 6   -252883.99221        12.000           0.406
  22273955.889     8300472.769 6   6467885.79321        12.500           0.781
  20079964.123   -17990391.216 8 -14018472.94623        30.500           3.469
  23475887.404     -129784.153 4                         7.000
  20559590.311   -20263130.204 7 -15560105.65623        24.250           2.531
 91  5 29 20 14 14.9980000  0  5G15G19G 2G13G 6
  23608175.881     -413696.430 6   -275432.84521        12.500           0.313
  22280322.967     8333932.063 5   6493957.90421        11.750           0.781
  20078874.170   -17996129.652 8 -14022944.46524        31.250           3.531
  23463547.459     -194643.083 4                         7.000
  20554583.131   -20289431.898 7 -15580600.48123        23.500           2.563
 91  5 29 20 14 29.9980000  0  5G15G19G 2G13G 6
  23602692.115     -442533.965 6   -297903.61521        12.250           0.406
  22286706.326     8367454.942 5   6520079.55121        11.500           0.844
  20077796.053   -18001799.262 8 -14027362.34124        30.750           3.563
  23451209.240     -259470.675 4                         6.750
  20549590.326   -20315677.114 7 -15601051.28823        24.000           2.656
 91  5 29 20 14 44.9980000  0  5G15G19G 2G13G 6
  23597217.240     -471271.555 5   -320296.51821        11.250           0.406
  22293094.568     8401040.876 6   6546250.35021        12.000           0.781
  20076729.920   -18007400.546 8 -14031726.98124        31.250           3.531
  23438881.318     -324266.980 4        -0.35631         6.500           0.156
  20544607.006   -20341866.196 7 -15621458.37023        24.000           2.688
 91  5 29 20 14 59.9980000  0  5G15G19G 2G13G 6
  23591761.600     -499914.912 5   -342615.96421        10.000           0.375
  22299497.990     8434683.922 5   6572465.64821        11.750           0.813
  20075675.436   -18012939.620 8 -14036043.14324        31.500           3.500
  23426552.834     -389037.586 4    -50470.66721         6.500           0.188
  20539630.404   -20368004.975 7 -15641826.24123        23.750           2.750
 91  5 29 20 15 14.9980000  0  5G15G19G 2G13G 6
  23586336.045     -528459.856 5   -364858.72721        10.750           0.406
  22305908.545     8468388.155 6   6598728.62321        12.000           0.844
  20074631.600   -18018412.513 8 -14040307.74223        31.000           3.469
  23414234.100     -453777.982 4   -100917.40721         6.500           0.188
  20534668.350   -20394089.168 7 -15662151.58323        24.750           2.688
 91  5 29 20 15 29.9980000  0  5G15G19G 2G13G 6
  23580918.107     -556901.175 5   -387020.75421        10.750           0.500
  22312340.412     8502158.164 5   6625042.84821        11.500           0.813
  20073604.897   -18023814.639 8 -14044517.18924        30.500           3.594
  23401919.975     -518483.167 5   -151336.79121         8.000           0.188
  20529714.318   -20420113.984 7 -15682430.65523        24.750           2.750
 91  5 29 20 15 44.9980000  0  5G15G19G 2G13G 6
  23575530.592     -585241.645 5   -409104.20321        10.750           0.375
  22318772.701     8535990.555 6   6651405.68421        12.000           0.688
  20072590.522   -18029149.150 8 -14048673.95024        31.000           3.719
  23389610.342     -583155.895 5   -201730.81521         8.000           0.188
  20524774.818   -20446082.215 7 -15702665.63923        24.750           2.719
 91  5 29 20 15 59.9980000  0  5G15G19G 2G13G 6
  23570155.428     -613478.187 5   -431106.65721        11.000           0.406
  22325228.537     8569888.021 6   6677819.23621        12.250           0.750
  20071588.201   -18034413.470 8 -14052776.02124        31.500           3.625
  23377307.506     -647793.262 4                         7.250
  20519844.123   -20471991.101 7 -15722854.37723        24.250           2.719
 91  5 29 20 16 14.9980000  0  5G15G19G 2G13G 6
  23564805.443     -641612.256 5   -453029.26421        11.000           0.406
  22331687.693     8603848.838 6   6704282.13721        12.500           0.844
  20070601.006   -18039609.403 8 -14056824.80824        31.250           3.594
  23365014.607          -0.55614                         7.250
  20514923.451   -20497842.139 7 -15742998.04323        24.750           2.719
 91  5 29 20 16 29.9980000  0  5G15G19G 2G13G 6
  23559469.381     -669644.222 5   -474872.31921        10.500           0.500
  22338168.459     8637872.266 5   6730793.83921        11.750           0.750
  20069623.342   -18044737.564 8 -14060820.78223        30.500           3.469
  23352727.279      -64569.984 4                         7.000
  20510017.404   -20523635.661 7 -15763096.88723        25.000           2.750
 91  5 29 20 16 44.9980000  0  5G15G19G 2G13G 6
  23554155.920     -697576.683 5   -496637.82921        10.500           0.438
  22344650.584     8671955.417 6   6757352.06721        12.250           0.719
  20068659.303   -18049800.994 8 -14064766.31624        30.000           3.625
  23340440.779     -129108.186 4                         7.000
  20505117.217   -20549374.338 7 -15783152.99623        25.500           2.719
 91  5 29 20 16 59.9980000  0  5G15G19G 2G13G 6
  23548857.897     -725409.618 5   -518325.80821        10.500           0.406
  22351146.693     8706097.712 6   6783956.38721        12.250           0.750
  20067709.201   -18054800.070 8 -14068661.70224        30.500           3.656
  23328171.303     -193614.940 4                         7.250
  20500232.623   -20575058.417 7 -15803166.55723        25.500           2.750
 91  5 29 20 17 14.9980000  0  5G15G19G 2G13G 6
  23543580.889     -753139.416 5   -539933.41521        10.250           0.438
  22357652.717     8740302.394 6   6810609.32321        12.500           0.688
  20066770.607   -18059731.606 8 -14072504.46424        30.750           3.625
  23315904.647     -258086.482 5        -0.12631         8.000           0.094
  20495354.670   -20600684.284 7 -15823134.76123        25.000           2.688
 91  5 29 20 17 29.9980000  0  5G15G19G 2G13G 6
  23538317.201     -780768.601 5   -561462.61421        10.000           0.531
  22364176.131     8774566.493 6   6837308.55121        12.000           0.750
  20065845.311   -18064598.654 8 -14076296.97524        31.250           3.750
  23303641.732     -322525.526 5    -50212.10321         8.250           0.156
  20490487.404   -20626254.827 7 -15843059.85823        24.750           2.688
 91  5 29 20 17 44.9980000  0  5G15G19G 2G13G 6
  23533084.240     -808295.534 5   -582912.12321        10.750           0.469
  22370706.029     8808891.383 6   6864055.15121        12.250           0.781
  20064931.029   -18069399.801 8 -14080038.13324        30.500           3.688
  23291388.068     -386930.392 5   -100397.43321         8.500           0.125
  20485634.951   -20651768.405 7 -15862940.56223        25.500           2.688
 91  5 29 20 17 59.9980000  0  5G15G19G 2G13G 6
  23527861.553     -835722.270 5   -604283.58321        10.750           0.531
  22377249.537     8843274.898 6   6890847.42321        12.000           0.688
  20064029.397   -18074137.119 8 -14083729.55524        30.250           3.594
  23279139.256     -451302.734 5   -150557.42621         8.750           0.188
  20480788.623   -20677226.818 7 -15882778.29723        26.000           2.625
 91  5 29 20 18 14.9980000  0  5G15G19G 2G13G 6
  23522662.764     -863045.852 5   -625574.63921        10.500           0.594
  22383804.873     8877719.337 6   6917687.18621        12.500           0.781
  20063139.131   -18078808.485 8 -14087369.58324        30.250           3.594
  23266893.240     -515639.993 5   -200690.10021         8.250           0.188
  20475957.037   -20702627.701 7 -15902571.18823        26.000           2.750
 91  5 29 20 18 29.9980000  0  5G15G19G 2G13G 6
  23517485.084     -890267.894 5   -646786.58221        11.250           0.531
  22390371.256     8912222.502 5   6944572.70321        10.750           0.625
  20062263.522   -18083415.937 8 -14090959.81224        30.500           3.531
  23254656.592     -579943.816 5   -250796.74421         7.750           0.156
  20471132.811   -20727972.701 7 -15922320.53923        26.500           2.719
 91  5 29 20 18 44.9980000  0  5G15G19G 2G13G 6
  23512325.686     -917381.736 5   -667914.21021        11.500           0.594
  22396946.623     8946790.698 5   6971508.87721        11.750           0.750
  20061398.482   -18087953.178 8 -14094495.32624        30.500           3.594
  23242424.779     -644207.170 5   -300871.82721         7.500           0.250
  20466322.022   -20753255.316 7 -15942021.27523        25.750           2.688
 91  5 29 20 18 59.9980000  0  5G15G19G 2G13G 6
  23507185.014     -944400.819 5   -688968.00521        11.750           0.625
  22403539.006     8981410.341 5   6998485.15521        10.750           0.688
  20060548.334   -18092433.842 8 -14097986.75824        31.000           3.500
  23230200.475     -708443.465 4   -350925.79721         7.250           0.250
  20461519.732   -20778488.909 7 -15961683.81623        26.000           2.906
 91  5 29 20 19 14.9980000  0  5G15G19G 2G13G 6
  23502059.787     -971321.187 6   -709944.88721        12.250           0.500
  22410133.811     9016085.110 5   7025504.38321        11.500           0.875
  20059706.154   -18096854.301 8 -14101431.27923        31.500           3.344
  23217983.264     -772648.578 5   -400955.50421         7.500           0.031
  20456726.904   -20803669.548 7 -15981305.09123        24.750           2.781
 91  5 29 20 19 29.9980000  0  5G15G19G 2G13G 6
  23496958.350     -998141.134 6   -730843.50221        12.000           0.500
  22416742.529     9050816.339 5   7052567.61021        11.250           0.719
  20058877.779   -18101213.186 8 -14104827.81523        31.250           3.344
  23205770.475     -836820.652 4   -450959.50021         6.750           0.219
  20451945.529   -20828795.565 7 -16000883.80023        25.250           2.938
 91  5 29 20 19 44.9980000  0  5G15G19G 2G13G 6
  23491872.607    -1024858.113 5   -751661.89321        11.250           0.563
  22423366.522     9085605.995 6   7079676.36721        12.000           0.781
  20058059.740   -18105508.379 8 -14108174.72523        31.000           3.406
  23193569.217     -900957.162 4   -500935.72121         7.000           0.188
  20447177.561   -20853864.759 7 -16020418.22623        25.250           3.000
 91  5 29 20 19 59.9980000  0  5G15G19G 2G13G 6
  23486808.717    -1051470.649 5   -772398.90321        10.750           0.438
  22429996.811     9120455.106 5   7106831.44321        11.750           0.656
  20057255.607   -18109738.806 8 -14111471.16723        30.750           3.375
  23181366.576     -965056.689 4   -550883.17521         6.500           0.094
  20442415.779   -20878875.714 7 -16039907.27723        26.000           2.844
 91  5 29 20 20 14.9980000  0  5G15G19G 2G13G 6
  23481760.662    -1077983.830 5   -793058.47821        10.250           0.438
  22436638.311     9155358.220 6   7134028.60621        12.250           0.656
  20056460.975   -18113909.939 8 -14114721.40323        30.500           3.438
  23169177.092    -1029124.234 4   -600805.70521         6.750           0.219
  20437668.334   -20903833.678 7 -16059355.03723        25.500           2.938
 91  5 29 20 20 29.9980000  0  5G15G19G 2G13G 6
  23476736.303    -1104391.379 5   -813635.77021        10.250           0.500
  22443293.912     9190321.299 6   7161272.49521        12.000           0.750
  20055679.787   -18118015.674 8 -14117920.68223        31.000           3.406
  23156993.662    -1093153.426 4   -650698.33121         6.750           0.188
  20432928.123   -20928732.363 7 -16078756.60723        25.000           2.969
 91  5 29 20 20 44.9980000  0  5G15G19G 2G13G 6
  23471733.756    -1130695.009 5   -834132.07021        10.500           0.375
  22449954.334     9225342.443 5   7188561.62321        11.750           0.625
  20054909.092   -18122058.203 8 -14121070.71023        31.000           3.375
  23144813.772    -1157145.523 4   -700562.12221         6.750           0.188
  20428203.053   -20953573.316 7 -16098113.19323        25.250           2.906
 91  5 29 20 20 59.9980000  0  5G15G19G 2G13G 6
  23466742.709    -1156896.811 5   -854549.01621        10.250           0.469
  22456630.170     9260419.320 5   7215894.17621        11.000           0.781
  20054153.897   -18126040.022 8 -14124173.42923        30.750           3.375
  23132647.897    -1221102.785 4   -750398.69421         7.000           0.219
  20423485.014   -20978358.839 7 -16117426.58323        25.250           2.813
 91  5 29 20 21 14.9980000  0  5G15G19G 2G13G 6
  23461775.459    -1182999.141 5   -874888.45121        10.000           0.281
  22463314.842     9295549.086 5   7243267.95021        11.250           0.625
  20053405.209   -18129963.648 8 -14127230.80523        30.500           3.281
  23120479.436    -1285027.529 5   -800209.95521         7.500           0.125
  20418781.006   -21003091.391 7 -16136698.70023        25.750           2.781
 91  5 29 20 21 29.9980000  0  5G15G19G 2G13G 6
  23456835.420    -1208996.709 5   -895146.27021        10.500           0.500
  22470010.904     9330736.435 5   7270686.58421        10.750           0.719
  20052672.506   -18133824.618 8 -14130239.35723        31.000           3.313
  23108322.654    -1348914.387 5   -849991.72021         8.000           0.188
  20414083.537   -21027765.996 7 -16155925.66823        25.250           2.844
 91  5 29 20 21 44.9980000  0  5G15G19G 2G13G 6
  23451905.537    -1234888.724 5   -915321.83121        10.500           0.375
  22476713.264     9365981.967 5   7298150.56621        10.500           0.813
  20051947.779   -18137622.369 8 -14133198.64923        31.000           3.344
  23096171.772    -1412762.510 5   -899743.28221         8.500           0.094
  20409400.873   -21052381.725 7 -16175106.75023        25.000           2.781
